GFSGL_850_thetae_000.txt.gz
Theta_e
331 332 330 332 333 331 329 332 333 331 327 327 328 326 331 332 331 330 330 329 330 330 330 330 330 330 332 334 333 333 337 337 339 338 337 338 340 345 345 347 346 347 346
335 333 332 332 330 329 329 331 331 331 329 324 325 330 332 332 332 331 331 330 329 329 328 328 329 331 330 333 332 333 335 335 337 338 337 338 339 341 345 344 345 346 347
333 332 333 332 332 331 330 329 329 329 329 331 332 331 328 331 331 331 331 329 328 327 321 323 324 328 330 332 335 333 335 335 335 338 338 338 339 341 343 342 345 346 347
332 331 332 333 332 331 328 326 329 331 331 331 332 331 331 332 331 331 330 328 324 325 322 322 324 327 329 332 334 337 334 334 336 336 338 338 338 340 344 343 345 345 346
332 332 332 333 333 329 329 331 332 332 330 331 330 330 330 330 330 328 326 327 321 322 323 319 324 324 330 332 334 335 334 335 333 337 337 337 338 339 341 343 343 345 345
333 332 332 333 334 334 332 333 331 330 329 330 329 329 330 330 329 324 325 327 321 320 321 322 322 322 324 326 329 331 333 336 336 335 334 336 337 338 340 342 344 343 344
330 332 333 334 334 333 331 331 330 331 330 329 328 328 329 329 326 324 325 326 322 319 319 321 321 321 320 324 326 327 333 333 336 335 334 335 337 338 338 340 340 344 343
331 333 333 334 334 333 331 330 330 330 329 328 328 328 328 326 322 319 321 325 323 321 319 319 321 320 319 320 325 326 328 333 333 336 335 335 335 339 338 339 339 339 343
332 332 332 333 333 333 331 331 331 329 327 326 327 328 327 327 323 318 321 326 326 323 321 320 319 320 317 320 322 325 326 330 334 334 334 335 334 337 336 336 339 342 341
332 332 331 332 333 332 331 330 329 328 326 326 326 327 327 326 325 319 322 325 323 323 320 320 319 320 315 318 323 324 324 330 331 336 334 334 335 335 335 335 339 339 342
332 331 330 332 333 331 330 330 329 327 326 326 327 327 326 324 323 321 323 324 323 322 319 320 318 320 316 317 321 324 324 334 333 333 336 336 334 334 334 335 335 338 339
332 332 330 326 331 329 330 329 328 323 320 327 328 327 325 325 325 323 321 323 322 320 319 319 318 317 319 318 319 323 324 331 334 334 335 337 335 335 334 335 337 334 335
335 326 327 323 326 333 328 325 327 325 324 323 325 324 324 324 324 324 321 320 322 322 320 319 320 319 317 318 321 323 323 323 330 334 335 336 335 335 335 335 336 335 334
327 324 325 326 332 332 328 328 327 325 325 325 325 324 323 323 324 323 320 320 322 322 321 320 322 321 322 320 321 323 322 322 324 324 323 328 335 336 338 337 336 339 336
324 324 331 330 330 329 327 322 325 322 321 321 324 323 323 322 321 319 319 319 322 321 321 322 321 320 320 323 322 323 320 322 321 320 321 324 325 331 336 338 337 337 338
326 328 329 327 327 325 326 324 321 321 321 320 320 320 320 318 319 319 319 320 321 321 323 321 319 319 321 323 323 323 322 317 324 323 320 319 319 322 324 328 335 336 336
328 328 326 325 324 326 326 322 322 321 320 319 319 317 318 318 318 318 319 320 320 320 318 317 316 315 320 322 322 323 324 323 320 317 324 323 319 318 318 321 323 325 324
325 323 324 326 326 326 325 322 321 320 321 321 317 317 317 317 317 317 318 318 316 315 314 314 313 313 312 317 319 320 322 323 323 320 321 319 322 322 322 322 321 319 319
325 325 326 325 324 323 320 319 318 317 316 317 317 315 314 314 314 316 316 314 313 312 311 311 311 316 316 315 313 313 317 318 321 323 323 323 320 324 324 323 322 322 321
321 322 322 321 320 318 316 316 315 314 312 314 313 311 311 312 311 310 313 311 310 312 314 313 313 312 313 313 314 315 312 316 316 318 320 321 322 322 323 323 323 322 322
320 320 317 316 315 314 314 314 314 312 311 310 308 308 309 308 309 309 310 311 312 312 310 308 311 311 311 310 311 312 312 314 314 314 315 315 317 319 318 320 322 323 323
319 319 318 317 315 313 311 310 311 310 310 309 307 306 307 305 307 306 306 308 309 309 308 308 308 308 308 307 306 307 307 309 310 310 308 310 313 315 313 316 318 319 321
316 314 314 313 312 310 310 309 309 309 308 307 306 304 304 305 303 304 305 304 303 303 301 300 300 299 300 298 299 301 301 302 304 304 303 304 306 308 310 313 314 314 315
312 311 311 310 309 308 308 307 306 305 305 304 303 303 302 302 302 301 301 299 300 298 297 295 295 296 295 295 293 293 293 294 295 297 297 298 299 301 304 306 308 309 311
310 309 308 307 306 306 304 305 304 304 303 302 301 300 300 299 299 298 298 297 296 295 293 293 292 291 290 290 290 291 291 291 291 292 294 294 294 296 297 298 301 303 305
307 306 305 304 303 303 303 303 303 302 301 300 299 298 297 297 296 296 295 295 294 294 292 291 290 290 290 290 291 291 292 292 292 292 293 294 295 293 295 296 296 296 297

GFSGL_850_thetae_003.txt.gz
Theta_e
339 339 336 334 335 335 334 334 334 335 335 335 334 333 334 335 334 334 332 333 332 331 330 329 327 328 329 331 328 330 335 335 339 335 335 333 341 340 340 344 346 347 345
338 338 336 335 335 335 334 333 334 333 334 334 333 333 333 334 333 334 333 333 332 330 330 329 327 327 326 326 329 330 331 334 336 335 334 335 339 340 341 341 346 348 348
336 337 336 336 336 336 335 334 333 332 333 333 333 333 333 333 333 333 333 332 330 331 329 327 326 323 323 325 326 333 331 333 335 335 335 334 336 340 341 339 341 341 342
334 333 334 335 336 336 335 334 334 334 334 333 332 332 332 332 333 333 333 332 330 330 328 326 325 322 321 322 323 325 332 334 335 336 336 335 336 338 340 341 342 340 338
334 334 334 335 336 337 336 335 334 334 332 332 331 331 331 330 329 331 332 330 330 329 328 327 322 321 319 319 321 323 326 328 331 338 336 337 335 336 339 339 341 343 338
336 335 335 335 335 336 335 334 334 332 331 331 331 330 331 329 328 327 324 322 329 328 328 326 321 319 319 317 320 321 323 326 328 332 337 336 336 335 338 340 341 343 343
336 335 336 336 337 336 334 333 333 332 331 332 331 330 329 330 327 326 323 319 321 328 327 327 325 322 320 320 318 320 321 325 327 328 331 337 336 335 336 338 341 341 343
336 337 336 336 336 336 334 333 332 332 332 332 330 329 330 328 327 326 324 320 321 326 326 324 324 321 319 319 316 319 322 324 325 326 329 334 336 337 333 333 341 338 341
337 337 337 336 336 336 334 334 332 333 331 331 329 328 329 329 329 327 325 322 326 326 324 322 322 320 318 318 316 320 322 324 324 324 328 332 335 338 334 340 337 343 341
336 336 336 335 334 335 334 334 333 332 331 329 328 327 327 328 328 326 320 324 326 327 327 325 322 320 319 318 317 319 323 323 323 329 331 332 334 335 335 335 340 338 341
336 335 335 335 334 334 335 332 325 333 331 327 329 328 328 328 326 326 324 320 323 326 325 323 322 319 320 320 318 319 321 323 323 335 335 334 335 336 336 336 336 337 339
337 336 334 333 335 331 326 328 335 332 331 331 323 325 323 320 325 324 325 324 321 320 322 323 322 319 321 322 321 320 322 321 324 330 333 336 338 336 335 335 335 336 338
339 336 335 337 333 332 330 335 333 329 329 326 326 324 325 324 325 325 325 324 320 321 322 322 321 320 321 320 321 321 321 321 321 322 322 334 337 338 337 336 335 335 335
341 340 340 336 333 334 333 331 329 328 327 324 324 325 323 324 324 323 322 318 320 322 323 322 324 323 320 320 322 321 320 320 321 319 322 323 329 336 338 336 337 340 335
338 336 334 332 331 331 331 329 327 326 324 321 323 323 323 323 320 317 318 319 320 321 321 323 322 319 319 321 322 322 320 318 320 321 319 320 322 325 332 337 336 337 338
335 333 331 329 328 326 327 326 325 321 320 320 320 319 319 318 317 317 318 319 320 320 322 321 320 317 317 320 321 323 322 318 316 319 320 321 320 320 322 327 331 337 337
332 329 327 326 325 326 328 328 326 322 321 320 319 319 317 316 317 316 316 318 318 319 320 319 317 316 313 314 316 318 320 322 319 320 318 321 320 321 321 321 321 322 324
329 327 324 325 327 328 327 324 323 324 321 321 319 317 315 315 315 313 314 318 318 317 316 315 313 311 311 314 315 315 317 319 321 322 319 320 321 322 322 320 321 321 321
326 326 328 328 326 324 322 320 319 318 318 317 317 317 315 312 312 312 315 315 314 313 312 310 309 308 310 309 310 312 313 315 316 317 320 321 321 320 322 323 322 322 321
321 320 322 324 323 321 316 316 316 315 315 315 314 314 312 313 310 310 309 309 309 307 308 311 311 311 311 311 312 312 312 314 314 313 314 316 318 320 321 322 322 322 323
324 323 323 322 319 315 313 313 315 316 315 313 310 309 309 309 307 307 307 307 309 308 306 305 308 309 309 308 307 307 308 309 310 311 309 311 315 317 319 319 319 321 322
322 322 321 320 318 317 316 315 314 312 312 310 308 306 306 307 307 305 305 306 306 307 305 304 302 302 301 302 304 302 302 304 305 304 305 306 308 310 313 316 317 317 318
319 317 316 315 315 313 312 313 312 311 311 309 308 307 306 305 304 304 304 304 304 303 302 300 299 298 297 296 296 296 296 297 299 300 300 301 302 304 307 310 311 312 314
314 314 312 312 312 311 311 311 310 308 308 307 306 305 305 304 305 303 302 302 302 300 298 297 296 294 293 293 291 291 291 292 294 296 297 298 298 300 301 303 306 306 308
313 312 311 311 310 309 309 307 307 306 306 305 304 303 303 302 301 301 300 299 298 297 296 295 295 294 291 291 291 292 292 293 293 294 296 298 297 298 299 299 299 299 301
311 310 309 308 307 306 306 306 306 305 304 303 302 301 301 300 299 298 298 297 297 296 295 295 294 294 292 292 292 292 293 293 293 293 296 297 297 296 297 298 299 299 299

GFSGL_850_thetae_006.txt.gz
Theta_e
338 340 339 333 334 336 335 333 334 335 335 334 332 333 331 331 330 333 332 331 331 333 329 329 328 326 321 319 320 321 323 324 330 333 331 334 337 333 335 335 340 340 344
340 339 338 334 331 335 335 335 335 334 333 333 332 332 331 331 332 331 332 330 331 329 329 328 328 326 322 319 319 319 320 322 327 335 332 333 334 333 332 334 337 341 343
340 339 336 335 334 333 334 335 334 334 332 333 333 332 331 330 330 329 330 329 330 328 329 329 328 324 321 318 318 318 319 322 323 327 332 333 334 334 333 335 340 339 338
338 338 337 335 335 333 336 337 335 334 334 333 331 330 328 331 330 329 331 332 329 328 329 328 327 326 321 320 319 319 317 320 323 324 327 334 336 335 334 334 338 341 339
335 335 334 335 335 335 337 336 333 333 334 333 330 331 331 331 330 329 330 327 325 320 322 326 326 327 325 323 320 318 319 317 320 322 324 327 332 336 337 334 336 339 340
335 334 334 335 336 336 336 336 335 334 334 332 331 331 331 329 328 327 326 326 324 322 319 323 324 324 325 323 319 317 319 318 319 321 323 324 326 331 336 337 334 336 342
334 330 330 333 333 335 335 335 334 334 331 329 330 332 328 328 329 328 326 325 325 320 320 323 324 325 320 318 318 318 318 317 320 322 323 323 325 329 332 337 335 334 337
336 329 329 331 335 336 336 334 334 333 330 330 331 327 327 327 328 327 326 325 324 321 325 325 324 323 320 320 320 319 318 319 322 322 322 323 323 326 330 335 336 334 339
335 331 332 331 336 336 336 335 334 334 329 329 329 326 329 327 327 327 326 326 324 323 325 325 323 322 322 322 321 321 318 320 321 322 321 322 324 325 329 332 335 336 337
333 332 332 334 337 336 336 335 334 334 331 324 331 331 330 328 326 324 324 322 321 323 324 323 322 323 322 321 321 321 321 320 320 322 321 329 333 328 327 332 334 338 334
335 336 337 337 336 335 334 335 335 332 328 330 329 326 328 325 325 324 324 324 323 324 322 321 323 323 322 321 321 320 320 318 320 320 320 325 333 332 328 331 334 336 336
336 336 337 337 336 335 334 334 331 326 330 331 329 327 323 325 323 325 323 325 323 322 321 323 323 322 322 322 320 321 319 319 320 320 320 321 330 334 332 331 334 336 336
341 339 338 337 335 335 335 332 329 330 330 329 328 326 327 325 324 323 325 322 319 319 322 323 323 323 324 321 320 321 320 318 318 320 321 321 322 333 338 336 336 335 336
333 340 340 339 337 338 334 331 331 331 331 329 326 324 324 323 324 323 319 318 319 320 321 321 324 322 320 319 322 322 321 317 316 320 321 320 321 327 337 337 337 336 336
343 343 340 338 336 331 333 331 331 328 326 325 322 320 321 321 321 318 316 317 319 320 320 322 321 319 317 318 320 321 322 318 318 319 319 321 319 321 324 333 337 339 337
338 337 335 335 332 330 329 328 326 326 325 322 319 320 320 319 318 316 316 314 318 319 320 319 318 317 315 314 318 319 319 319 320 318 320 320 319 319 321 322 324 327 329
333 330 330 329 327 327 328 329 328 325 325 323 320 320 318 316 315 315 314 312 318 317 317 317 316 313 312 314 315 316 317 317 318 320 320 321 321 321 319 321 320 322 321
331 329 327 326 328 329 329 328 326 325 324 322 320 318 317 315 316 311 310 318 317 315 314 314 312 311 312 312 313 314 316 316 316 317 319 320 320 321 322 321 322 320 320
328 327 328 329 328 327 325 323 322 320 319 319 318 316 314 314 313 311 314 314 313 312 313 313 312 311 311 311 311 311 311 313 314 314 314 318 320 321 322 320 319 321 320
325 321 324 327 324 324 322 320 318 317 316 317 315 315 314 313 312 309 309 311 311 311 311 310 309 309 309 308 307 307 307 309 310 311 310 313 316 318 319 319 320 319 318
325 324 320 324 323 321 319 315 316 317 316 315 312 311 308 308 308 308 308 307 308 307 307 306 305 303 304 304 305 304 303 305 305 305 306 307 312 313 314 317 317 318 320
323 323 322 322 320 320 318 318 316 315 314 313 311 308 307 305 304 306 307 307 307 307 306 304 303 301 300 299 299 298 299 300 302 301 300 302 305 307 310 311 313 314 316
322 322 320 319 317 315 315 314 314 314 313 312 311 309 308 306 306 304 305 306 305 303 301 300 299 298 297 296 294 292 293 295 298 299 298 299 300 300 304 304 304 309 312
317 315 316 316 315 314 313 313 312 311 311 310 309 307 307 307 306 304 304 304 303 300 298 298 297 295 292 292 292 292 292 293 295 297 298 299 299 299 299 299 299 300 302
315 315 315 314 313 312 311 310 310 309 308 307 307 306 305 304 303 303 302 300 299 298 297 296 296 295 293 292 292 293 293 294 294 296 297 297 297 298 299 299 299 300 300
314 313 312 311 310 309 308 308 308 308 307 306 305 304 304 303 301 300 299 299 298 297 297 296 296 295 294 293 293 293 293 293 293 294 296 295 295 295 297 298 298 299 299

GFSGL_850_thetae_009.txt.gz
Theta_e
324 330 335 335 330 323 323 322 321 326 330 332 331 329 326 328 330 331 332 331 330 330 330 330 327 326 325 322 320 318 318 317 316 317 321 323 327 333 331 334 335 337 338
326 330 337 337 329 329 331 328 329 331 330 329 328 331 332 330 329 329 327 329 329 328 327 326 326 327 326 324 320 319 319 319 318 318 316 320 323 330 331 332 334 334 334
328 332 338 338 327 326 325 327 329 329 328 330 332 332 330 328 328 329 330 328 329 328 328 325 323 328 327 326 324 322 320 317 317 318 317 319 322 324 331 333 334 334 334
334 334 337 336 331 328 325 325 328 326 325 330 333 332 329 331 329 329 329 329 328 326 324 322 321 321 326 325 325 323 319 317 318 319 318 319 321 322 326 330 334 334 333
338 338 338 337 334 330 326 324 325 326 327 331 332 330 329 330 331 328 330 327 326 325 324 324 322 320 324 323 324 321 318 318 318 319 319 321 321 322 322 325 328 335 335
338 338 337 335 333 327 325 324 328 329 331 333 332 330 329 330 329 326 328 328 327 325 325 321 322 323 324 324 323 319 318 320 319 319 319 320 320 321 321 324 325 329 336
338 337 335 335 330 325 325 328 330 332 334 332 326 328 329 328 325 326 327 326 326 325 326 321 322 323 323 323 322 319 321 321 321 321 320 320 321 321 321 323 325 326 333
336 335 335 331 325 322 328 333 334 333 333 331 325 327 327 325 328 327 327 326 324 323 323 322 323 323 321 322 321 321 321 320 319 318 318 320 321 321 320 321 322 324 330
336 336 332 326 323 326 331 335 334 335 333 331 330 329 326 330 328 328 326 324 323 321 321 322 324 323 322 322 323 321 320 321 319 319 319 321 321 321 322 322 321 324 328
338 335 327 330 328 331 334 336 336 335 334 334 330 329 327 328 328 327 324 323 323 324 324 324 322 322 322 323 322 322 320 320 318 318 318 320 321 321 329 329 323 325 331
339 327 330 332 332 333 334 336 336 335 334 332 328 329 328 327 328 325 324 323 323 323 323 323 321 323 323 322 323 321 320 320 317 319 317 319 320 321 326 332 327 324 334
334 334 336 335 336 337 336 336 336 335 333 328 328 327 327 325 326 326 324 323 323 322 318 319 321 322 322 322 322 319 321 320 317 319 317 318 320 320 329 329 330 326 330
339 339 339 339 339 338 337 335 336 333 331 326 328 328 327 327 326 323 323 322 317 317 320 321 322 322 322 321 318 321 322 320 317 319 318 317 320 321 323 333 331 328 328
331 328 326 326 333 338 337 335 334 332 326 326 327 326 325 323 321 323 322 318 316 318 320 321 323 321 320 318 318 320 320 320 318 318 320 319 318 320 320 330 335 334 333
326 325 324 325 331 332 331 331 329 328 322 326 326 324 320 320 320 319 318 316 314 318 320 321 320 319 318 318 317 318 318 319 321 318 320 318 319 319 319 320 326 335 337
325 326 334 332 333 332 331 329 327 326 326 325 324 322 321 320 319 318 315 314 316 318 319 318 318 317 316 316 317 318 318 317 318 319 320 319 320 317 320 319 320 320 325
331 328 331 330 329 328 328 327 326 325 325 325 323 320 319 318 317 316 312 313 317 316 317 316 314 314 315 315 315 315 316 315 315 317 319 320 320 318 318 319 319 320 321
329 324 326 328 327 327 328 328 326 324 323 322 320 319 317 316 316 314 315 316 316 315 315 314 314 314 314 313 312 312 313 314 314 315 315 318 320 320 318 317 319 320 321
326 329 328 328 328 328 327 325 323 323 322 318 317 317 316 314 314 313 310 313 314 312 312 312 311 310 309 309 309 307 308 310 311 311 312 314 317 318 319 318 319 318 320
329 326 329 328 326 325 323 321 318 316 315 316 316 315 314 313 312 311 308 311 311 310 309 309 308 307 306 306 307 306 305 306 306 306 308 311 312 313 315 317 318 320 320
327 326 322 322 324 323 321 318 316 316 317 316 315 313 310 306 307 307 307 308 308 307 306 305 304 304 304 304 300 300 301 302 303 302 303 304 306 309 307 312 315 317 319
325 324 322 323 321 321 318 317 317 316 314 314 313 312 310 307 306 304 306 306 306 306 305 304 303 302 302 298 295 295 296 299 300 299 300 300 301 301 301 304 309 314 316
324 323 322 322 321 320 318 317 315 314 314 313 312 311 308 307 306 304 306 306 305 304 303 300 298 297 296 292 292 293 295 297 298 297 299 299 299 299 300 300 302 304 311
321 321 319 318 318 315 315 314 312 313 312 311 309 309 307 307 306 304 304 304 303 302 299 297 297 294 292 292 292 293 294 296 296 297 297 298 298 298 299 299 300 301 300
317 316 315 315 314 314 312 311 310 310 310 308 307 307 306 305 304 303 302 301 299 298 297 296 296 295 293 292 293 293 293 294 295 295 296 296 296 297 298 299 299 299 300
315 315 314 313 312 311 310 309 309 308 308 307 307 306 305 304 303 302 301 299 298 298 297 296 296 295 295 293 292 292 292 293 294 294 295 294 294 295 296 297 298 298 299

GFSGL_850_thetae_012.txt.gz
Theta_e
327 322 324 328 325 321 322 321 320 321 323 324 326 327 326 328 329 328 327 328 328 330 328 327 328 325 324 325 326 325 320 320 320 319 317 317 318 318 320 323 327 331 332
333 324 324 330 326 322 322 322 321 321 322 322 326 326 328 328 328 326 327 328 329 328 327 328 328 325 321 321 326 326 325 323 321 317 316 317 319 320 319 321 322 328 331
342 329 325 332 327 321 320 321 321 320 320 323 326 327 329 328 329 328 329 328 329 330 328 326 325 322 322 322 323 326 325 324 321 319 318 319 318 319 319 320 321 322 330
348 339 327 331 329 326 322 321 321 320 321 326 329 330 332 331 329 330 329 328 329 326 325 325 324 324 322 321 323 323 323 322 319 318 318 319 319 319 319 319 320 320 323
348 346 330 327 333 333 324 322 322 320 322 327 330 331 332 330 329 330 329 329 327 327 326 325 325 322 322 323 324 324 324 323 319 319 320 320 319 319 318 319 319 319 320
349 346 333 330 336 335 327 322 321 321 325 330 330 329 331 327 328 329 327 326 326 325 325 325 325 321 322 323 323 323 323 322 321 321 321 319 318 319 319 320 320 322 322
348 344 339 336 337 336 330 321 322 323 327 332 332 330 326 328 328 327 328 327 326 324 323 323 324 322 323 322 321 320 321 321 321 320 320 318 317 317 319 320 320 320 319
347 342 339 338 336 336 330 320 324 327 329 331 331 332 329 328 327 326 327 328 326 323 323 321 322 321 323 323 321 321 322 322 321 320 318 318 317 317 319 320 321 320 320
346 338 339 338 337 335 332 321 327 331 331 332 331 333 331 329 327 326 327 326 326 323 323 323 323 323 323 321 322 322 322 322 320 319 317 317 317 317 319 319 320 321 321
345 342 339 338 336 335 332 326 329 331 332 334 334 333 329 330 327 327 326 327 324 322 323 323 323 322 319 321 322 322 322 321 319 320 319 318 316 317 319 320 321 321 321
345 340 338 336 336 335 331 329 330 334 335 334 334 330 323 324 328 325 324 325 324 323 322 321 317 317 319 320 322 322 319 318 320 321 318 317 317 317 319 320 322 325 325
340 336 335 337 336 335 333 334 335 335 336 334 334 330 325 327 327 325 325 324 322 322 317 317 319 320 321 321 322 319 318 319 321 320 319 318 316 317 320 320 329 327 326
339 339 338 331 337 338 336 337 335 336 335 333 331 325 325 327 327 326 324 321 322 318 316 318 319 320 321 321 320 317 318 318 320 320 319 318 316 317 320 320 325 326 326
338 334 330 329 330 328 326 334 336 333 331 329 327 326 326 326 325 323 321 322 318 316 316 317 320 321 320 319 317 316 317 317 319 319 319 319 316 317 319 320 320 326 327
326 324 326 329 324 328 331 331 333 330 329 326 323 325 325 323 320 320 319 318 316 314 314 318 321 319 318 316 316 316 317 317 318 319 319 319 317 316 319 319 320 321 324
324 322 322 327 326 330 332 331 330 330 327 325 325 324 321 321 320 318 318 315 314 314 317 318 317 316 314 315 316 316 316 316 317 319 320 320 319 316 317 318 319 320 320
322 325 326 331 334 333 328 329 328 326 325 324 324 323 322 320 317 316 316 311 313 316 317 316 314 314 313 314 313 312 312 313 315 317 318 318 318 318 316 317 319 319 320
326 327 329 330 328 328 327 327 325 324 324 323 322 320 319 318 316 314 314 315 316 316 315 314 313 312 312 311 309 308 308 309 309 312 315 315 316 317 318 318 320 319 318
328 326 323 324 328 327 325 324 325 324 323 322 319 317 316 315 314 314 313 311 313 313 312 312 311 310 310 309 307 305 305 305 305 307 310 312 313 315 316 318 318 319 320
321 320 323 326 326 324 324 324 321 320 319 316 315 314 313 311 309 310 309 309 310 310 309 309 308 308 307 304 302 301 301 302 302 303 304 306 308 309 312 316 318 319 320
324 325 325 323 323 324 323 321 317 315 314 315 316 314 312 310 305 305 307 308 307 307 307 306 305 305 305 303 297 295 297 300 300 300 301 301 301 302 306 312 315 317 318
326 326 325 323 322 323 320 317 316 316 315 314 315 313 311 309 306 304 306 306 306 305 305 304 302 300 300 295 293 295 297 299 298 299 299 299 299 300 302 304 312 313 315
324 324 323 323 323 321 320 318 318 317 315 315 313 312 310 307 306 304 306 305 305 304 304 301 297 295 294 292 293 295 296 296 296 298 298 298 299 299 299 300 301 307 309
323 323 322 321 321 320 319 315 313 313 314 313 312 310 308 307 305 304 303 304 303 303 301 297 296 293 292 292 293 294 295 296 296 296 296 297 298 298 298 299 299 300 300
319 318 316 314 315 315 314 314 311 310 310 310 309 308 307 306 304 303 302 301 301 298 297 296 296 295 293 292 293 293 294 294 294 295 295 295 295 297 297 298 298 299 299
316 315 316 315 315 313 312 312 310 310 309 308 307 307 306 305 304 303 301 300 300 298 297 297 296 295 294 293 293 292 292 293 293 294 295 294 294 295 296 297 296 297 298

GFSGL_850_thetae_018.txt.gz
Theta_e
334 332 329 330 329 326 321 318 318 319 321 325 329 324 326 327 325 327 328 327 326 326 326 326 328 327 327 327 327 326 322 323 323 320 321 321 320 321 321 318 317 317 318
337 339 337 333 332 331 323 319 318 319 320 321 320 322 325 326 327 326 324 326 327 328 328 328 327 326 326 326 324 323 322 322 325 324 322 322 322 321 322 320 319 318 318
342 344 346 341 343 332 324 323 319 319 319 320 321 322 324 324 327 326 327 327 327 327 325 327 327 326 326 325 324 324 323 322 323 324 324 324 324 322 321 319 319 318 318
345 345 347 348 346 332 327 327 326 325 324 321 321 321 323 322 324 326 327 328 328 327 325 325 325 325 325 325 325 325 324 321 323 323 323 321 322 321 321 321 320 318 316
347 347 350 350 346 333 327 333 327 327 328 327 325 323 324 325 326 326 327 327 328 326 324 325 325 325 323 322 323 324 324 322 323 323 322 321 321 321 321 321 320 317 318
348 349 350 350 345 337 340 334 331 326 333 328 326 323 325 325 325 328 328 328 327 325 324 325 326 325 323 322 321 323 323 323 323 322 322 322 321 321 321 321 318 318 318
348 350 350 349 348 346 342 335 331 327 329 326 327 324 325 325 327 327 328 329 328 326 325 325 327 326 324 322 322 322 321 323 323 321 322 322 321 321 320 320 318 318 317
346 349 350 349 348 344 341 337 335 330 330 332 328 325 322 328 327 328 330 329 329 327 326 326 326 325 323 322 322 323 322 322 321 321 321 320 318 317 318 319 318 316 316
345 348 349 349 348 341 339 340 337 334 333 334 331 324 327 328 328 328 330 329 328 328 327 326 325 324 322 322 322 319 317 318 319 320 319 318 317 319 320 318 317 316 316
344 347 348 348 347 345 343 339 338 333 334 334 334 330 329 329 330 331 329 328 327 325 326 324 324 321 321 317 317 319 320 320 319 318 315 316 320 320 320 318 316 316 317
346 347 347 347 346 344 343 340 336 335 336 333 329 331 332 332 332 331 330 328 324 327 325 324 321 321 319 317 318 319 319 318 318 316 315 319 320 319 319 317 317 318 317
347 347 346 345 344 343 341 340 337 337 335 332 331 327 326 328 332 330 329 325 327 326 325 323 321 321 317 316 318 318 316 317 315 315 317 319 319 319 319 317 318 317 318
346 346 345 343 342 340 338 338 337 333 327 326 326 326 328 329 330 328 325 326 326 326 324 321 320 318 316 317 319 316 316 315 315 316 317 318 318 318 318 317 317 317 319
344 343 342 340 339 335 334 332 330 329 330 329 327 327 328 328 328 325 326 326 325 322 320 319 318 316 316 319 317 315 314 315 315 315 316 316 316 316 316 318 318 317 318
341 340 338 337 335 331 328 327 327 326 327 327 328 328 328 325 325 325 325 323 321 320 318 317 315 315 317 317 314 313 314 314 313 312 311 311 311 311 313 318 317 317 317
338 335 329 332 334 329 327 326 327 326 329 328 327 328 325 324 324 322 321 320 318 317 315 313 315 317 316 315 313 312 312 311 309 308 307 306 306 307 311 317 318 317 317
328 331 329 321 324 326 326 326 325 327 328 328 327 324 323 322 321 319 318 317 316 314 313 314 316 315 314 312 311 310 310 309 307 306 305 304 303 305 310 316 319 317 316
330 331 325 323 324 326 326 327 327 327 326 325 323 322 321 319 317 315 314 314 314 314 314 315 314 314 311 310 309 309 307 304 303 303 302 301 301 303 309 314 317 318 316
324 324 325 326 327 327 327 326 326 325 324 323 322 320 318 313 310 309 307 306 309 311 311 311 311 309 309 309 308 307 305 300 300 300 300 300 299 302 307 312 316 318 318
324 324 325 324 321 322 325 325 324 324 322 321 320 317 314 312 311 310 308 305 305 308 309 308 307 307 307 306 305 304 298 297 299 299 299 298 298 299 302 308 313 317 318
326 325 323 324 323 324 323 322 322 320 318 316 314 314 314 312 311 310 308 305 304 307 307 306 304 303 300 299 298 295 297 298 298 298 298 297 297 298 298 301 310 315 316
327 326 325 323 324 323 322 322 320 318 315 314 314 313 313 312 311 310 307 304 304 304 305 304 303 299 296 295 294 296 297 296 297 297 297 296 297 297 298 298 301 310 314
325 325 324 324 325 324 323 322 319 318 316 315 315 314 314 312 311 310 307 305 303 303 304 303 300 296 292 292 293 295 295 296 295 295 295 295 295 296 297 297 298 300 307
320 320 321 322 322 323 322 321 319 319 317 312 310 312 314 314 311 309 307 304 302 303 302 298 295 295 292 292 293 294 294 295 295 295 295 295 295 295 296 296 297 298 299
320 321 322 322 321 321 320 319 319 317 313 312 310 309 309 311 312 309 306 304 302 300 298 296 296 295 294 292 293 293 293 294 294 294 294 294 294 295 295 295 296 297 298
318 319 321 320 317 315 316 318 314 313 312 311 310 309 308 308 309 309 306 304 303 301 299 297 296 295 294 294 294 294 294 293 293 294 294 294 294 295 295 295 295 296 297

GFSGL_850_thetae_024.txt.gz
Theta_e
346 346 340 339 343 342 340 339 333 327 322 320 319 320 324 328 328 326 328 332 335 334 334 334 334 334 333 331 331 331 331 330 329 328 327 328 329 330 330 329 329 328 327
345 346 345 338 339 336 338 336 331 326 321 319 321 323 321 324 332 335 331 334 335 334 334 334 333 333 333 331 331 331 330 330 329 328 328 329 328 328 329 329 329 327 327
355 354 351 348 342 332 339 340 330 327 321 321 332 332 326 323 324 323 324 326 331 333 334 334 333 333 333 332 332 330 329 330 329 330 329 328 328 327 327 329 328 326 326
355 356 356 355 347 335 335 343 332 327 324 322 330 334 332 321 321 323 323 323 326 334 335 334 334 333 333 332 332 331 331 330 329 329 328 329 328 327 327 327 327 325 324
355 356 357 356 352 347 343 341 342 332 327 324 329 335 329 323 320 323 328 324 329 335 335 335 335 334 326 326 328 329 329 328 328 326 326 327 327 327 327 326 324 325 323
356 357 357 354 350 349 347 343 345 341 331 327 326 333 332 325 326 324 323 326 328 336 336 336 336 331 327 326 325 326 327 326 324 326 325 326 327 327 324 324 324 323 323
354 357 355 351 348 348 348 347 346 343 332 327 327 335 337 329 327 327 325 326 332 336 332 333 329 329 332 329 327 326 325 324 322 323 324 326 325 325 324 323 322 322 321
354 349 351 347 345 346 347 347 347 346 340 332 329 331 336 338 333 329 331 330 329 331 330 326 327 329 330 329 327 326 326 327 327 325 325 324 323 322 320 319 318 317 319
350 348 342 341 344 345 347 346 344 342 339 336 335 334 339 337 337 334 332 331 330 331 329 325 326 328 329 328 327 324 324 325 324 323 322 319 316 315 315 318 319 321 321
338 340 339 341 345 346 346 346 346 343 341 339 339 339 338 337 337 331 332 331 331 329 326 326 326 326 326 326 325 323 324 325 324 322 320 320 319 320 320 320 320 320 321
352 343 340 341 342 346 347 346 346 344 340 339 338 338 337 338 337 329 332 331 331 327 327 327 327 327 326 325 323 321 322 319 316 318 318 317 318 319 320 319 320 319 317
333 335 338 343 346 346 347 345 345 344 341 340 339 338 338 337 334 332 326 328 329 329 328 331 329 327 326 324 321 320 318 316 317 318 316 316 317 317 317 316 315 314 315
333 336 342 345 346 344 345 344 342 342 341 340 339 338 337 335 334 330 327 328 327 328 328 329 327 326 324 321 319 318 316 317 318 316 315 316 316 314 314 313 313 311 313
341 345 345 345 343 343 343 342 341 340 340 339 338 336 334 334 329 327 327 328 328 326 325 326 326 323 320 319 318 317 317 317 314 314 314 313 313 312 312 310 308 310 316
344 343 342 343 342 343 342 341 340 339 338 338 334 331 331 330 327 327 327 328 327 326 325 324 322 321 320 320 320 318 316 314 313 312 312 311 311 309 308 307 307 312 318
342 342 341 340 339 339 337 336 334 330 330 329 329 330 327 328 327 326 325 325 325 323 321 321 321 321 320 320 318 316 314 312 312 310 309 309 308 306 306 306 309 313 317
342 341 338 337 336 335 333 331 329 327 327 327 327 328 327 327 326 324 323 322 321 319 318 319 320 320 319 317 315 313 311 310 309 308 308 307 305 305 305 306 309 313 316
333 332 334 333 330 330 330 330 330 328 327 328 328 327 326 324 323 322 320 318 316 315 316 317 318 317 316 314 312 311 310 308 308 307 306 305 304 304 304 305 308 313 314
333 331 330 330 330 329 330 331 330 328 327 323 326 324 322 322 320 316 313 314 314 314 314 313 313 313 311 311 309 308 307 306 304 304 304 303 303 303 304 304 306 311 312
332 329 330 330 330 331 330 328 327 327 326 324 322 322 320 317 315 315 314 313 312 311 310 310 310 309 309 309 307 304 303 304 304 303 303 303 303 303 303 303 304 307 311
331 328 329 329 327 327 327 327 326 326 325 324 324 322 318 317 317 315 314 313 312 310 310 309 309 308 307 304 302 302 302 303 302 302 302 302 302 302 303 303 303 304 308
330 329 328 329 329 328 328 327 326 325 324 324 322 320 314 315 317 315 314 313 312 311 309 309 308 307 303 301 300 301 302 301 301 301 301 301 302 302 302 303 303 303 304
330 330 329 329 328 328 326 326 325 325 324 323 321 320 315 315 316 315 314 313 311 310 309 308 306 303 300 298 299 300 301 300 299 299 300 301 302 301 302 302 303 303 303
329 328 328 328 328 326 326 325 325 324 323 321 320 319 318 317 316 316 314 312 311 309 308 306 303 300 299 296 298 299 298 297 296 299 298 300 301 302 302 302 302 302 303
325 325 325 326 326 324 325 324 324 324 322 320 319 318 317 315 315 315 313 312 311 309 307 305 302 300 297 295 297 297 296 294 294 295 297 300 301 301 301 301 301 302 302
321 322 323 323 324 324 324 324 324 323 321 319 319 316 315 314 314 313 313 311 310 309 307 305 302 299 297 296 295 294 295 295 294 295 295 300 300 300 300 300 300 301 301

GFSGL_850_thetae_027.txt.gz
Theta_e
348 348 349 349 349 345 350 352 348 351 343 332 324 321 319 327 326 324 319 330 338 337 337 334 331 334 334 333 332 332 332 331 331 331 331 330 331 331 330 329 331 330 330
356 348 347 347 346 345 340 350 348 350 340 330 323 319 320 332 324 323 323 336 336 337 336 333 336 334 335 334 333 330 331 330 331 330 331 332 331 331 330 328 329 329 329
357 357 354 348 347 344 339 340 344 341 337 332 323 319 324 332 325 327 323 327 332 335 332 336 336 335 335 334 334 334 330 330 332 332 330 328 328 329 329 329 329 327 329
355 357 359 356 350 349 348 341 336 335 335 335 326 321 327 332 327 325 324 325 333 330 336 335 336 336 336 334 334 333 332 331 332 329 330 329 328 327 329 328 328 328 328
355 357 358 359 357 357 356 351 348 341 339 337 328 321 326 332 335 330 328 326 328 330 336 335 336 334 335 332 332 331 330 329 329 329 328 327 326 326 328 328 327 325 326
356 357 358 360 359 358 357 356 353 349 345 338 327 323 326 334 338 333 327 326 336 336 337 337 333 334 335 330 328 330 328 326 326 326 327 327 325 327 327 326 327 325 324
358 357 359 361 359 359 357 354 355 352 346 343 338 325 328 339 335 334 334 327 337 336 336 335 331 329 328 326 327 327 329 328 327 327 326 326 326 327 326 324 324 324 323
357 359 360 360 360 357 352 354 353 351 347 343 339 333 335 339 335 336 336 328 331 333 335 335 328 328 328 326 326 328 328 328 329 327 327 325 326 325 323 321 318 318 320
359 360 360 362 359 356 351 350 351 350 348 345 342 341 341 338 337 336 338 336 336 334 331 329 329 329 329 326 326 326 325 324 328 327 326 324 324 320 317 318 320 320 321
360 361 361 360 356 354 350 352 351 349 347 345 342 341 340 338 336 337 338 336 337 338 336 332 330 330 327 327 326 326 325 328 327 327 325 324 320 320 319 321 320 321 321
361 360 359 355 353 354 356 351 351 349 347 343 343 342 341 341 340 339 337 334 337 337 337 332 331 327 328 328 327 326 326 325 323 321 321 321 321 319 319 320 321 321 320
356 357 356 354 354 354 353 348 347 348 345 343 342 342 341 342 340 338 338 334 335 334 334 331 330 331 329 327 326 326 324 321 319 319 320 321 319 318 318 318 317 316 314
356 355 355 354 350 350 347 348 346 347 343 342 341 341 341 340 338 337 336 333 330 329 328 328 329 329 327 326 326 323 320 318 319 320 320 318 317 317 315 315 314 313 311
355 349 347 345 347 346 345 347 343 343 343 342 341 341 340 337 336 334 332 329 329 327 328 328 328 328 327 325 321 319 319 319 320 319 316 316 315 314 314 312 310 309 309
348 349 348 346 346 344 344 343 342 342 341 341 339 339 336 331 328 327 328 327 327 327 329 329 326 325 324 323 322 321 320 319 318 317 315 314 313 312 311 309 308 309 312
344 344 343 343 342 341 340 341 340 338 337 336 336 335 332 331 331 328 327 328 329 328 326 326 324 324 323 322 321 320 319 318 316 315 314 312 311 310 308 307 308 310 313
347 344 344 344 343 341 339 336 335 332 328 329 329 329 328 327 328 328 326 325 325 324 322 322 322 321 321 320 320 319 317 315 314 312 312 311 309 308 307 307 307 309 313
343 341 340 339 338 336 335 334 332 330 328 327 327 327 327 327 326 324 323 322 320 319 319 319 319 320 320 319 317 316 315 314 313 311 309 308 307 306 306 306 306 307 311
336 336 335 334 332 332 331 331 331 330 330 326 324 327 326 325 323 321 318 316 318 318 317 317 316 316 316 315 314 313 312 311 308 306 307 307 306 305 306 306 306 306 307
335 333 332 332 331 330 331 331 330 329 328 326 323 322 323 322 319 316 316 318 316 315 314 313 313 313 312 312 312 310 308 306 307 306 306 305 305 305 305 305 306 306 307
334 329 330 331 331 331 331 329 328 328 327 327 325 324 322 318 319 319 318 317 316 314 313 312 312 312 311 310 307 305 305 305 305 305 304 304 304 305 305 305 305 305 306
333 331 329 330 330 330 329 329 328 328 327 325 325 324 323 317 320 319 318 317 315 314 313 312 311 311 309 306 304 303 305 304 304 303 303 303 304 305 304 305 305 305 306
331 331 329 330 329 329 328 328 327 326 326 325 324 323 321 318 319 319 318 317 315 314 313 311 310 309 306 303 301 302 303 304 303 302 302 303 304 305 304 305 305 305 305
330 330 330 330 329 328 327 327 327 325 325 324 323 322 321 319 319 319 317 316 315 314 312 310 308 306 303 301 300 301 301 301 300 301 300 303 304 304 304 304 304 304 304
327 326 326 326 326 326 325 325 326 325 324 324 323 322 321 320 318 317 317 315 314 313 312 310 308 305 303 301 300 301 300 299 295 296 296 302 303 304 303 303 303 303 304
323 324 324 324 324 324 325 324 324 324 324 323 321 321 319 318 317 316 316 314 314 313 312 310 308 305 302 301 299 299 297 295 295 296 296 300 303 303 300 302 302 303 303

GFSGL_850_thetae_030.txt.gz
Theta_e
354 348 345 346 346 344 348 349 351 350 351 343 342 340 325 323 324 329 325 326 336 331 326 332 336 333 329 332 334 334 332 333 331 329 329 332 331 330 329 328 328 328 329
353 351 343 345 348 347 343 348 348 350 350 350 342 334 328 322 323 331 324 327 335 328 323 322 323 329 335 334 332 331 331 331 331 331 330 331 330 329 328 328 329 327 328
358 350 349 346 349 348 341 339 346 346 345 343 344 341 329 322 321 332 323 325 327 328 323 322 323 332 333 332 334 333 332 331 331 330 331 331 328 330 329 330 329 329 327
358 354 347 354 348 345 345 347 344 342 342 340 341 340 333 323 320 331 325 328 325 323 322 322 328 333 332 333 333 332 332 332 333 332 329 330 331 328 328 327 327 326 326
356 357 356 353 352 350 353 354 353 350 346 345 345 343 337 324 320 331 329 328 326 323 326 325 329 330 331 335 333 331 329 328 328 327 327 326 325 326 325 324 326 328 328
353 354 354 359 358 358 358 358 358 357 355 352 348 346 340 326 321 332 333 331 330 329 326 333 332 336 337 335 332 331 326 325 326 328 327 327 326 325 324 325 327 326 325
351 352 354 357 359 359 359 359 359 358 357 355 353 348 342 329 324 333 337 333 331 330 329 332 331 336 333 333 328 329 326 326 327 328 327 325 326 325 324 324 323 322 321
353 356 356 359 360 361 361 360 360 359 358 356 352 346 341 335 326 338 339 334 332 333 337 334 332 333 331 329 327 328 328 326 326 327 324 321 324 325 325 324 323 318 317
358 358 361 361 364 363 361 360 359 357 356 354 350 346 341 337 337 338 337 335 334 333 332 333 333 329 329 329 329 330 329 327 326 326 327 327 327 326 324 321 318 319 320
361 359 363 364 365 362 359 360 356 356 355 351 349 345 343 342 341 341 340 338 337 338 337 334 332 330 331 330 331 329 327 327 326 327 327 326 324 322 320 321 319 320 320
363 364 364 365 363 361 360 354 353 353 351 349 346 345 343 342 342 341 339 339 338 338 337 336 336 333 330 330 328 328 328 327 327 326 324 321 319 321 322 320 320 319 320
364 365 365 363 361 359 353 347 348 349 350 347 345 344 342 342 341 341 341 340 338 336 336 337 335 332 329 328 329 327 326 326 324 322 319 319 321 321 318 318 318 317 314
363 363 362 360 355 353 354 353 351 348 347 346 343 341 341 342 343 342 340 339 338 337 333 332 328 325 329 328 328 326 326 323 320 318 320 321 319 317 316 315 314 312 310
360 359 356 353 353 353 348 347 348 346 345 343 343 342 343 342 340 338 335 333 332 330 328 327 328 328 328 327 326 323 320 320 319 319 319 317 316 315 314 312 311 309 308
356 355 355 352 351 348 348 346 345 344 342 342 342 342 341 339 337 329 329 328 327 327 328 328 328 326 325 324 324 323 322 320 319 318 318 316 315 313 312 310 308 307 309
352 352 350 349 348 347 346 345 344 341 341 342 340 338 338 335 331 329 327 326 326 326 327 329 328 326 326 326 324 322 320 319 319 317 316 315 313 312 309 308 307 308 307
339 345 347 346 343 341 340 340 339 337 337 336 336 335 332 330 327 327 327 326 326 327 327 326 323 323 323 321 321 320 319 318 316 315 314 313 311 309 307 307 307 307 307
345 343 343 344 344 342 339 336 335 332 329 331 332 329 327 327 327 327 326 325 323 321 319 320 320 320 320 320 319 318 317 316 315 313 312 311 308 307 306 306 306 306 306
343 343 342 342 340 339 336 335 333 331 330 326 327 326 326 326 326 324 322 320 320 320 320 318 317 317 317 316 316 315 314 313 312 309 307 307 307 306 306 306 305 306 306
337 338 335 334 333 333 332 332 332 331 331 329 322 323 325 325 323 320 317 318 319 317 316 314 314 313 314 313 313 313 311 308 307 307 307 306 305 305 305 305 305 306 306
334 334 333 333 331 331 332 332 331 330 330 328 326 324 323 321 320 320 320 319 318 316 315 314 313 313 312 312 310 307 306 306 306 306 305 304 304 305 305 305 305 306 306
333 330 331 332 332 331 331 330 329 329 329 328 327 325 325 323 321 321 320 319 318 317 315 314 313 312 312 310 307 305 305 305 305 305 304 304 304 305 305 305 305 305 305
334 332 329 331 331 331 330 330 330 328 327 327 326 325 325 323 320 321 319 318 317 316 315 314 312 311 309 306 303 303 304 305 304 303 303 303 304 305 305 305 305 305 305
332 331 330 330 330 326 329 328 328 327 327 325 325 324 323 322 320 320 319 318 317 316 315 313 311 309 307 305 302 302 302 303 302 300 299 300 304 305 305 304 304 304 304
328 328 330 330 329 328 328 327 327 327 326 325 325 324 323 322 320 319 319 317 316 316 315 313 311 309 307 304 301 301 301 301 300 298 296 297 304 304 304 303 303 303 304
326 326 325 325 325 325 326 325 325 325 325 325 324 323 323 321 320 319 318 317 315 315 314 313 311 309 306 304 302 300 300 299 297 296 296 298 304 304 303 302 303 303 303

GFSGL_850_thetae_033.txt.gz
Theta_e
353 352 352 351 341 345 345 345 344 353 352 348 347 344 342 341 332 321 326 325 324 328 328 328 331 331 329 331 333 333 333 332 332 331 330 329 330 329 328 328 326 327 328
352 352 351 351 347 342 344 345 342 342 351 353 352 347 343 341 330 321 327 328 324 330 331 329 329 328 325 322 331 332 331 330 330 331 330 327 328 330 327 328 329 329 329
350 351 350 349 350 342 341 344 344 342 339 346 350 350 348 343 337 324 323 330 323 326 329 329 324 323 320 328 330 330 332 331 332 331 329 328 327 327 330 329 330 330 327
348 349 348 347 347 342 340 342 346 345 345 344 341 343 344 346 342 334 321 330 324 326 327 326 324 323 322 328 330 331 330 331 331 331 330 330 329 328 329 327 326 325 322
346 346 345 343 343 343 342 342 344 348 347 348 347 346 347 347 346 342 324 327 326 327 327 333 325 324 325 328 329 329 331 330 328 327 325 326 327 327 326 325 323 323 323
345 345 345 339 341 342 343 343 345 350 352 351 353 352 351 350 349 347 331 323 328 328 327 326 326 327 328 329 331 332 332 333 331 326 325 327 327 328 326 325 324 322 322
345 346 348 345 341 343 343 347 353 355 356 356 356 357 356 354 351 347 337 325 330 331 330 329 332 329 332 335 334 332 334 331 330 326 327 326 327 323 323 323 323 324 322
348 348 349 349 350 350 353 354 359 360 360 359 358 358 356 353 350 346 338 329 333 335 333 332 334 332 333 329 330 330 329 329 330 329 327 326 325 325 326 327 325 324 321
349 350 350 350 352 354 357 360 361 362 361 361 358 356 354 350 347 343 336 331 337 337 334 335 336 337 336 331 329 328 328 329 331 329 326 326 326 326 325 324 323 322 320
351 351 351 352 353 355 358 361 362 362 362 359 355 354 351 349 345 342 339 335 337 338 335 334 334 336 334 332 329 328 330 330 328 327 327 327 327 325 321 320 321 322 322
353 354 352 354 355 357 361 363 362 361 359 356 354 351 336 347 345 342 340 341 341 339 337 338 338 337 334 331 329 328 328 328 327 326 326 325 323 319 321 322 321 318 316
356 361 359 361 362 363 364 364 360 359 356 355 353 350 347 346 344 342 342 341 340 339 339 338 337 334 332 327 327 323 324 327 326 325 322 320 319 320 317 317 317 315 314
361 362 364 367 368 367 365 361 356 353 354 353 350 348 346 344 342 341 341 340 340 340 339 338 335 333 330 330 328 328 327 324 320 319 318 319 320 318 317 315 315 313 311
363 366 367 366 365 363 360 354 348 351 351 350 347 345 344 342 342 342 341 340 340 339 337 336 333 332 328 326 324 323 322 321 320 319 318 318 318 316 315 314 312 311 308
366 365 364 362 359 354 353 349 347 348 347 346 344 342 342 342 341 340 337 335 332 331 331 331 329 328 326 326 325 324 324 322 320 319 318 319 317 316 315 312 308 307 307
357 356 358 355 353 350 348 345 346 345 343 343 342 340 341 340 337 331 329 328 327 327 326 327 327 327 325 324 324 326 324 322 320 319 319 318 315 313 311 308 307 306 307
351 347 345 346 349 345 346 344 342 341 341 341 341 340 340 339 333 330 328 326 325 326 327 327 327 326 323 324 321 321 320 320 319 318 315 314 313 312 308 306 306 306 306
341 338 343 347 345 344 344 343 340 338 339 339 338 336 332 331 328 327 326 326 326 324 320 319 319 320 320 321 319 319 318 316 315 314 314 313 312 308 306 306 305 305 305
342 344 343 343 341 340 337 338 337 336 335 333 333 334 330 327 326 326 325 323 320 319 321 320 318 318 317 317 316 316 316 316 316 313 307 307 307 305 305 305 305 305 306
344 345 345 345 342 340 336 334 331 329 328 326 328 327 325 324 324 323 321 318 318 317 316 315 315 314 314 314 314 313 313 312 307 307 307 305 305 305 304 305 305 305 306
338 338 339 338 338 336 335 335 333 330 330 327 324 321 321 321 321 320 319 319 318 316 316 315 315 313 313 312 310 309 305 306 306 306 305 305 304 304 305 305 305 305 305
334 335 334 333 333 332 331 332 333 332 330 329 327 325 324 323 322 320 320 319 318 317 317 316 315 313 312 311 310 307 306 305 305 305 305 304 303 304 305 305 305 304 304
332 331 331 332 332 331 331 331 330 330 330 329 328 327 326 324 321 321 320 319 318 318 317 315 315 313 311 311 309 304 303 305 305 304 304 301 303 305 304 304 304 304 304
325 326 326 329 331 330 329 329 329 328 328 328 327 327 326 325 321 320 320 319 319 318 316 315 315 314 310 308 307 305 301 302 304 303 300 297 301 304 304 304 303 303 304
330 330 330 330 328 328 326 327 327 327 327 326 325 325 324 324 321 320 320 319 318 317 316 315 315 313 312 309 306 302 300 302 301 301 299 296 299 304 304 303 303 303 303
327 328 328 327 323 327 327 326 327 327 326 326 325 325 324 323 322 321 320 319 316 314 315 315 314 313 312 311 309 306 301 299 299 297 296 296 302 304 303 302 302 303 303

GFSGL_850_thetae_036.txt.gz
Theta_e
348 349 350 351 348 341 341 348 350 350 350 351 351 349 347 344 342 339 324 322 328 323 324 323 323 327 325 329 330 331 332 332 332 330 330 329 329 330 329 329 329 328 327
348 349 350 351 351 347 341 340 344 348 349 350 352 350 348 346 343 342 339 322 329 325 325 327 324 323 327 327 325 331 331 331 332 331 330 328 328 327 328 329 326 328 329
349 350 350 351 351 351 347 340 339 341 346 347 351 351 349 348 345 343 340 327 323 329 325 329 327 324 323 326 325 322 330 331 329 328 330 328 328 329 329 327 328 328 328
348 350 350 351 350 349 348 345 338 339 342 342 344 351 352 351 350 346 343 338 324 327 326 327 329 329 326 325 322 328 329 331 330 329 329 329 326 325 327 329 329 327 324
348 349 349 350 349 348 347 346 341 340 341 341 344 344 346 348 350 349 347 345 339 324 328 325 327 329 330 329 325 329 331 332 331 332 331 328 325 326 327 327 327 326 324
348 348 349 349 350 349 346 344 345 340 341 344 345 345 344 346 348 349 349 347 345 334 324 327 327 327 330 333 329 331 333 333 332 332 332 331 326 327 326 325 324 324 322
348 348 349 348 348 348 348 345 342 343 343 344 348 350 351 352 352 352 351 349 346 344 326 328 327 329 329 333 333 333 330 329 330 330 331 330 328 328 326 324 323 326 326
350 351 349 349 347 348 348 347 344 343 345 345 350 353 353 353 355 355 354 352 348 344 331 328 330 331 332 334 331 334 333 331 330 331 331 330 330 326 325 326 326 325 324
350 350 349 348 347 347 348 347 346 346 347 348 352 354 355 356 355 356 353 349 346 340 331 330 334 335 334 333 334 333 332 329 329 329 329 329 327 325 326 326 325 321 320
347 347 349 348 348 347 348 350 351 352 350 352 356 357 357 357 356 353 348 345 342 337 333 333 337 337 337 336 334 336 332 328 328 329 329 327 325 325 325 322 320 321 321
345 345 349 350 348 347 348 353 354 357 358 357 359 357 350 355 354 349 344 342 340 338 337 338 338 337 336 335 334 333 330 328 328 326 327 325 324 324 320 320 318 316 315
348 348 347 349 349 351 352 355 358 358 359 362 358 353 346 352 349 345 343 341 341 341 340 339 338 339 337 336 332 328 327 325 325 326 323 319 318 318 320 318 317 316 314
349 349 349 351 352 354 356 359 360 358 359 357 355 348 347 346 345 343 342 342 342 341 339 338 338 338 334 332 329 328 328 327 323 320 319 318 318 318 317 317 316 315 313
353 354 354 354 355 356 360 360 359 357 357 354 351 347 345 343 344 344 342 340 339 339 338 337 337 336 333 330 329 325 323 322 320 320 319 319 318 319 317 316 315 312 307
358 361 360 361 361 362 364 363 360 355 353 350 346 341 341 339 337 341 341 341 340 338 335 334 335 332 330 326 324 324 323 322 322 320 319 318 318 318 316 315 309 307 306
361 362 359 358 359 359 359 357 352 347 338 348 343 341 342 341 341 340 339 337 334 331 330 329 329 328 326 325 323 324 325 324 323 321 320 319 318 315 314 311 307 306 306
359 357 357 356 353 351 349 343 334 332 340 345 344 342 341 340 339 336 329 328 327 326 325 325 326 326 325 323 323 322 322 322 321 319 319 317 314 313 311 308 306 305 305
350 350 351 348 348 347 342 339 343 344 344 342 342 340 339 339 334 330 328 326 324 326 326 324 322 322 321 321 321 320 319 319 319 318 315 314 313 310 308 306 305 305 305
345 345 343 335 332 333 333 337 342 341 341 341 339 336 333 333 329 327 326 325 325 322 320 319 320 320 319 319 319 318 317 316 315 314 312 307 306 306 305 305 305 305 305
336 333 332 334 340 341 341 340 339 339 337 336 335 333 331 328 325 324 324 323 321 319 320 320 317 316 315 314 314 314 313 312 311 308 307 306 306 305 304 304 305 305 305
334 329 337 338 336 334 332 332 334 328 327 326 328 328 324 321 321 322 322 319 318 317 317 316 315 315 314 313 312 310 308 304 305 306 306 305 305 304 304 304 305 304 304
335 336 336 337 338 335 334 333 331 329 328 322 323 321 321 322 321 320 319 319 319 318 318 317 317 316 314 312 311 310 309 308 306 305 305 305 304 303 303 304 304 304 304
334 334 334 335 335 335 334 333 332 332 330 327 326 324 323 323 321 320 320 320 319 318 317 317 316 315 314 310 310 310 307 303 304 304 304 304 301 301 303 304 304 303 303
331 331 331 329 326 331 328 324 328 330 330 329 328 326 326 324 322 321 321 320 319 318 317 316 316 315 313 311 308 306 304 302 301 303 304 301 297 301 303 304 303 303 303
327 329 328 328 325 325 329 329 329 329 329 327 327 327 327 326 323 321 321 320 319 318 317 317 316 314 313 312 311 308 305 300 300 300 300 299 297 298 303 303 302 302 303
328 329 327 327 326 328 328 327 327 327 326 326 326 326 326 326 325 324 321 320 319 317 313 313 313 314 314 313 312 309 303 301 300 299 298 297 297 300 302 302 302 302 303

GFSGL_850_thetae_039.txt.gz
Theta_e
345 346 347 347 347 349 347 338 342 343 345 347 349 349 348 344 340 332 328 325 322 324 324 323 322 321 321 323 332 332 331 331 331 331 330 330 330 329 330 330 328 329 330
345 346 346 346 347 348 349 340 339 340 346 349 350 351 349 349 346 344 342 339 329 322 328 324 325 323 323 328 328 330 329 331 332 331 331 330 328 329 328 328 328 327 326
344 345 347 347 347 347 349 348 339 340 345 347 349 349 349 350 350 347 345 343 341 334 323 328 326 328 324 324 327 329 328 327 331 332 329 327 328 327 325 326 326 328 329
345 345 346 347 347 347 349 350 347 339 339 346 347 348 348 349 351 348 347 345 343 341 331 324 327 327 327 326 325 325 327 324 328 329 331 330 329 329 325 326 326 326 327
345 345 344 346 347 347 349 349 350 347 340 339 342 345 349 350 349 350 350 350 347 345 343 331 325 327 326 328 330 327 328 326 330 330 331 330 330 330 329 327 326 327 327
345 345 345 346 347 347 349 349 350 350 349 341 338 340 342 343 342 344 348 349 349 348 346 338 329 328 326 327 331 333 332 328 332 333 332 332 330 331 329 328 326 325 322
345 346 346 346 347 347 349 349 349 350 349 348 343 339 340 341 342 343 344 344 349 349 346 342 338 329 328 327 329 334 335 333 332 332 330 329 330 331 329 329 326 325 325
345 346 347 348 347 349 349 349 350 350 350 349 347 343 341 342 344 344 345 348 351 350 348 346 344 335 328 328 331 334 336 332 332 332 332 330 327 327 329 327 326 325 326
345 346 347 347 347 350 350 348 349 351 351 350 348 348 345 343 345 347 351 354 352 351 349 346 342 334 330 332 337 336 333 334 334 333 331 326 325 328 327 326 326 326 324
345 345 346 347 349 349 347 348 349 350 350 351 350 349 348 344 348 353 355 355 351 350 347 340 333 332 334 337 337 336 336 334 335 329 328 326 328 327 326 326 324 320 320
346 347 347 349 350 350 351 353 352 351 354 355 357 346 347 349 355 355 355 351 348 343 341 337 335 334 336 339 338 337 336 334 330 328 327 326 326 323 320 319 319 317 316
342 346 347 347 350 352 354 355 356 356 356 359 359 354 353 356 356 344 338 333 341 341 339 337 337 339 339 339 337 336 332 328 326 325 325 324 319 318 317 319 318 316 315
341 343 343 341 343 343 348 350 353 354 357 362 361 353 353 352 339 339 342 343 341 341 340 341 341 340 339 338 335 331 328 326 328 327 320 319 318 318 317 317 317 316 315
336 338 343 344 347 351 354 355 357 358 361 361 360 355 351 347 339 337 343 343 341 341 342 341 338 336 335 334 331 329 328 327 326 321 319 319 318 318 318 317 316 315 311
347 349 348 348 350 352 357 359 361 359 360 358 358 355 348 336 331 335 342 341 340 341 339 338 337 335 335 331 330 327 323 322 322 321 320 319 318 317 317 317 314 312 307
354 355 354 353 353 357 359 354 359 357 352 347 344 344 333 331 331 338 339 342 341 340 340 336 331 331 330 329 325 323 324 324 323 323 322 320 319 319 318 314 312 308 306
360 358 359 360 359 358 354 351 348 340 334 335 333 337 333 338 343 341 341 341 338 334 331 328 327 327 326 325 324 323 323 324 324 321 320 319 319 317 313 312 309 305 305
354 352 353 351 349 348 346 341 338 335 334 331 331 333 341 341 341 340 336 331 328 326 325 325 325 325 325 323 322 321 320 319 318 318 318 318 316 314 311 308 305 305 304
344 345 342 337 339 339 336 332 331 334 333 335 340 341 341 340 336 329 327 326 324 323 324 323 321 319 318 319 319 319 318 317 317 317 316 315 313 307 306 305 304 304 304
339 338 339 340 340 337 334 336 332 335 340 340 339 339 338 334 330 328 326 324 324 323 321 319 319 319 318 317 317 316 315 315 314 313 312 309 306 305 305 304 304 304 304
336 336 334 335 333 331 334 337 339 338 338 338 337 334 331 329 326 324 323 322 321 320 319 319 317 315 315 314 313 313 312 309 305 304 305 305 305 304 304 303 303 304 304
332 333 336 336 334 333 333 335 334 333 334 335 334 331 328 324 322 322 321 320 318 318 318 317 317 316 314 312 311 310 309 308 308 306 304 305 304 304 303 301 303 304 304
334 330 331 331 331 329 330 330 328 328 327 328 326 322 321 321 321 320 319 319 319 318 318 317 316 315 314 311 308 308 308 306 303 303 304 304 303 303 299 301 303 303 303
333 334 333 332 334 334 334 333 332 329 327 323 323 322 322 323 321 320 320 320 319 319 318 317 316 315 312 310 309 306 305 303 302 301 302 303 302 298 298 301 303 303 302
328 329 330 329 330 329 327 325 327 328 328 325 326 324 324 324 322 321 320 320 320 319 318 317 316 315 313 312 312 310 305 304 300 299 299 300 299 297 297 300 302 302 302
328 326 326 326 328 329 327 328 328 328 328 328 328 327 326 325 324 325 321 321 320 319 317 314 313 312 313 314 313 312 310 305 300 299 299 298 298 297 297 301 302 302 302

GFSGL_850_thetae_042.txt.gz
Theta_e
342 344 344 345 346 346 347 346 348 342 338 344 343 346 348 347 344 336 332 334 328 322 323 324 323 323 321 321 324 327 331 332 331 330 331 331 330 330 328 329 328 328 327
342 342 343 344 345 345 346 346 347 347 338 340 340 345 348 347 344 339 329 327 328 326 323 324 325 324 324 321 322 325 326 328 328 329 330 330 329 329 330 328 325 326 326
342 343 343 343 344 344 345 346 346 348 341 338 340 343 347 347 347 345 344 342 341 340 336 328 324 325 325 325 322 324 327 327 327 327 329 330 328 328 328 325 324 326 327
342 342 342 343 343 343 344 346 346 346 348 338 339 340 347 347 348 348 348 347 346 344 342 340 335 325 326 326 327 323 326 327 327 326 324 329 330 330 329 329 328 329 327
342 343 342 342 343 343 344 345 346 346 347 348 338 340 345 348 348 348 348 349 349 347 345 344 342 336 328 327 328 329 329 328 329 325 329 330 331 331 331 331 330 329 328
341 342 342 343 343 343 344 345 346 346 347 348 348 341 340 346 347 347 348 348 349 349 349 348 346 343 336 327 329 329 334 334 333 330 328 331 331 332 330 330 330 328 328
342 342 343 343 343 343 344 345 345 346 347 348 347 348 344 339 341 343 347 348 347 349 349 347 348 345 342 337 330 330 331 336 336 335 333 332 331 330 329 329 328 328 327
342 343 343 343 344 344 345 345 345 346 346 347 348 347 348 346 342 340 344 345 345 346 347 347 348 346 344 342 336 332 331 333 335 334 333 331 331 328 328 326 326 327 325
342 344 343 343 344 346 347 347 346 347 346 347 348 348 348 347 347 347 342 344 346 348 348 349 350 347 344 343 333 334 331 336 335 333 333 334 333 331 326 326 328 326 326
342 342 342 343 344 346 346 347 348 348 347 348 348 348 348 348 348 348 347 345 347 349 351 351 349 340 342 337 332 332 337 336 335 335 334 330 328 326 328 326 325 325 321
338 340 341 343 344 345 348 349 350 352 352 351 350 352 351 349 350 350 349 348 350 352 350 351 345 340 337 333 333 337 337 337 336 335 329 327 327 326 324 319 317 318 318
341 342 343 344 345 347 348 349 351 350 350 352 354 354 354 353 351 350 353 351 352 348 346 341 341 336 332 334 336 338 338 337 334 330 327 326 325 320 318 317 317 317 316
345 346 346 348 350 351 350 352 354 356 357 357 358 357 356 355 351 349 352 351 347 340 335 337 338 337 337 339 338 338 336 333 327 326 326 324 319 318 318 317 317 317 316
341 342 343 345 349 352 355 356 356 357 358 356 357 357 356 357 354 352 352 346 337 342 341 338 339 340 340 339 338 336 332 329 327 327 325 319 319 318 318 318 317 316 315
340 340 345 348 346 347 349 353 357 358 357 358 358 356 353 350 346 349 343 339 335 336 334 332 339 340 338 336 335 331 329 328 327 325 321 320 319 318 317 317 317 316 313
349 351 352 352 350 350 351 354 356 354 353 357 352 344 338 336 340 337 331 332 335 335 339 340 338 337 336 335 333 330 328 323 322 322 321 321 320 319 318 319 315 312 310
352 355 357 356 355 353 353 351 347 341 341 338 336 331 332 333 334 331 331 330 334 338 340 340 338 337 333 331 330 326 323 322 323 323 323 322 321 319 318 315 312 310 305
347 349 352 354 353 352 352 349 349 347 344 337 334 334 333 332 331 331 332 332 339 339 338 338 335 330 329 327 325 324 323 322 322 321 320 318 319 318 315 312 307 305 304
343 344 344 345 341 343 346 347 344 338 335 333 332 334 335 334 335 338 337 339 339 337 334 329 326 325 325 324 324 322 320 319 318 317 316 316 316 314 310 305 304 303 303
336 338 339 339 341 341 335 335 334 332 333 333 333 331 332 338 335 338 338 335 331 327 324 324 324 322 320 319 319 319 318 317 316 315 315 315 313 307 305 304 303 303 303
332 333 336 339 336 333 332 331 331 333 333 333 334 335 337 338 335 329 327 325 324 324 323 321 319 318 318 317 316 315 315 314 313 312 310 307 305 305 304 303 301 302 303
334 334 332 332 332 333 333 335 335 335 335 336 336 337 336 332 328 326 324 323 323 321 319 319 317 316 315 314 313 313 312 310 307 305 304 304 305 304 303 301 301 302 303
333 335 334 334 334 335 334 330 330 332 334 334 333 332 330 326 323 322 322 321 318 317 317 316 316 315 314 311 309 309 309 308 307 305 304 304 304 303 302 299 301 302 303
333 332 334 332 329 327 325 324 327 331 333 333 331 327 321 321 320 320 319 318 318 318 317 317 316 314 311 309 308 306 305 305 304 302 304 304 303 302 299 298 300 302 302
330 331 331 330 330 331 332 331 330 329 327 328 326 326 324 322 321 319 319 319 319 318 318 317 316 315 311 312 311 308 305 304 301 301 302 302 302 300 297 298 300 301 301
327 327 328 328 328 327 328 328 328 328 328 325 324 324 325 323 321 320 320 320 319 318 318 317 316 315 312 313 313 311 310 306 301 300 299 299 299 298 298 297 299 301 301

GFSGL_850_thetae_045.txt.gz
Theta_e
339 340 341 342 343 345 345 346 346 346 347 344 339 343 346 343 344 346 346 338 332 328 325 325 324 323 323 322 321 326 328 330 333 333 330 330 330 330 329 328 328 328 328
341 340 340 340 341 342 344 345 345 346 346 347 341 340 344 344 345 347 346 340 333 331 325 323 324 325 324 324 323 321 323 325 331 330 332 330 330 329 329 329 328 325 325
343 342 341 341 341 342 343 344 344 345 346 347 347 339 340 342 342 347 346 342 333 330 328 325 323 323 325 325 325 324 323 325 326 330 332 326 329 329 328 329 327 325 327
342 342 342 342 341 341 341 343 344 344 345 346 347 345 337 339 339 346 346 344 341 336 336 337 338 336 329 325 326 326 325 324 327 327 332 331 325 328 329 329 331 331 330
341 342 342 342 341 341 342 342 343 344 344 346 345 347 341 336 338 342 346 346 346 345 344 344 343 342 341 338 327 327 328 328 329 330 333 332 330 329 330 333 331 330 329
341 341 342 342 342 342 342 342 342 343 344 345 346 345 347 340 335 336 343 346 347 347 348 348 347 345 344 343 337 329 327 330 332 335 334 333 329 329 331 332 331 329 329
341 341 341 342 342 342 342 342 342 343 343 344 346 346 345 345 342 334 338 344 347 347 348 349 349 349 348 346 344 342 332 330 331 335 336 335 333 330 333 332 330 329 330
341 341 341 341 342 343 344 343 343 343 343 343 345 346 346 345 344 344 340 338 343 347 347 348 350 350 350 349 345 342 337 332 331 335 335 335 334 333 331 331 329 327 326
341 341 342 342 342 343 343 343 343 345 344 344 344 345 346 347 346 344 346 347 341 343 346 348 349 348 348 348 344 343 339 336 333 331 335 335 334 333 333 333 329 326 327
342 342 342 342 342 342 342 343 344 345 345 346 346 346 346 346 347 347 347 348 348 346 345 345 347 348 349 345 342 343 341 338 334 333 335 333 334 332 331 329 328 329 328
342 341 341 342 342 343 346 347 348 350 352 350 348 347 347 346 347 347 347 349 350 350 349 345 343 347 348 345 341 342 340 334 334 337 336 335 332 327 327 326 323 320 321
340 340 340 341 343 345 345 347 350 350 351 347 354 354 352 350 352 351 351 351 351 350 350 347 343 348 347 344 339 334 331 338 338 337 336 334 328 327 325 320 317 316 316
338 338 340 342 343 345 347 349 352 351 352 343 351 355 355 355 354 355 355 355 353 351 350 348 348 345 342 336 333 332 333 339 337 336 332 330 328 325 319 318 317 317 316
342 343 342 343 344 347 350 353 355 355 355 356 352 355 356 356 356 356 356 355 354 348 344 338 343 337 335 334 332 335 337 337 336 331 327 328 325 319 318 318 318 317 316
343 344 345 345 346 347 350 354 356 355 356 356 356 357 357 357 357 357 355 355 352 343 338 333 330 334 332 332 335 337 337 337 332 327 327 326 320 319 319 318 316 316 317
345 345 346 347 347 347 348 351 354 356 354 355 356 356 357 355 355 351 348 344 343 335 330 332 333 331 331 336 337 337 335 333 329 327 327 323 320 320 320 318 317 317 315
348 350 351 352 350 350 350 351 351 351 352 353 353 345 341 334 333 333 334 334 331 330 330 331 331 332 335 336 336 335 333 330 328 326 324 321 322 322 320 318 318 315 312
345 346 348 350 351 351 351 351 350 348 348 344 337 334 335 334 332 332 333 333 332 331 331 332 331 336 337 336 335 333 331 328 323 322 323 322 322 319 319 318 314 312 308
343 345 347 350 351 351 351 350 348 346 344 343 340 337 333 334 332 332 331 331 332 332 334 335 333 336 336 334 332 329 325 323 322 323 323 321 318 317 317 314 311 306 305
341 342 342 342 346 348 346 344 343 344 341 336 333 333 333 334 331 330 330 332 333 332 333 336 335 332 330 329 327 324 323 322 321 319 318 316 315 315 312 309 307 306 306
332 335 337 338 343 344 344 341 336 333 332 332 332 332 333 333 333 334 335 336 336 336 334 330 326 325 325 325 324 322 321 319 318 316 314 313 313 311 308 307 306 305 305
333 332 336 336 334 333 332 332 334 333 334 334 334 333 336 336 336 337 333 331 328 326 325 323 322 321 319 319 319 318 317 316 315 314 312 310 308 307 307 306 305 305 305
334 335 336 334 334 335 335 335 335 335 336 336 336 337 336 334 331 328 326 325 324 323 320 319 318 317 316 315 314 314 314 313 312 310 307 304 306 306 306 305 304 305 305
332 333 333 334 334 333 331 329 329 331 334 335 336 335 331 328 327 325 324 323 320 319 317 316 315 315 313 312 310 308 309 309 309 307 305 305 306 305 305 304 304 304 305
329 331 331 330 328 328 327 329 332 332 334 334 332 331 328 325 323 323 322 318 317 317 316 316 316 315 311 310 309 307 305 304 304 304 302 304 305 303 304 303 303 304 304
328 328 328 329 329 328 328 327 329 328 328 331 330 329 327 325 323 322 319 318 318 317 317 316 316 315 311 312 311 309 308 304 302 301 301 301 302 302 302 300 303 304 304

GFSGL_850_thetae_048.txt.gz
Theta_e
341 338 339 341 342 342 344 345 345 346 346 346 350 341 342 346 347 344 345 352 344 334 333 331 328 326 333 336 335 335 335 335 333 333 334 334 330 330 335 331 333 333 334
346 341 338 337 338 340 341 343 344 345 346 346 346 346 339 348 349 344 343 350 349 342 334 332 328 327 325 328 336 334 335 336 334 336 335 335 332 336 337 336 334 333 332
354 351 342 339 338 339 338 339 341 343 345 346 346 346 343 337 341 342 342 343 347 347 341 332 328 326 325 333 330 336 336 333 334 334 335 336 335 337 337 332 336 334 331
353 354 349 342 339 338 338 338 340 341 343 344 346 346 345 341 336 339 345 343 346 348 347 337 332 328 325 323 325 326 328 333 335 336 335 334 336 335 336 335 336 334 334
351 351 344 342 342 341 340 340 341 341 342 343 344 345 345 345 344 336 337 339 340 346 347 341 330 328 331 335 334 329 325 326 335 337 336 335 335 335 336 334 334 334 334
349 346 341 342 342 342 342 342 342 342 342 342 343 344 345 345 344 343 334 334 335 344 346 344 343 338 340 341 341 341 337 328 326 334 336 336 336 336 335 334 334 334 335
346 344 343 344 343 342 342 343 342 342 344 342 342 343 344 345 345 344 341 335 335 336 343 345 346 347 345 345 344 343 343 343 336 334 331 337 337 338 338 337 334 334 333
341 342 343 343 343 344 343 342 342 343 343 342 342 342 343 344 345 345 344 345 338 338 341 342 346 348 348 348 348 348 348 346 341 335 334 335 335 336 335 335 333 333 332
343 341 341 342 342 342 342 342 343 349 351 356 357 355 351 350 346 345 346 346 347 344 347 343 344 346 348 347 348 349 349 348 343 340 333 332 332 335 334 335 334 333 333
342 342 341 341 341 341 342 345 350 350 355 357 358 357 357 358 357 354 352 351 350 350 349 349 345 340 342 344 348 349 349 347 343 341 335 333 331 335 334 334 333 332 332
341 344 343 343 342 342 345 349 352 353 355 354 351 353 351 349 347 346 349 352 350 339 349 350 351 349 347 343 343 348 346 345 343 342 336 333 334 335 334 332 330 332 330
339 347 343 343 345 350 344 352 355 356 355 352 349 347 346 341 344 337 337 353 355 350 349 337 350 344 349 350 346 347 346 343 342 338 336 336 336 335 333 332 330 325 324
341 345 346 345 346 349 354 352 356 357 357 357 357 354 353 349 341 336 336 351 354 353 352 352 351 348 348 340 334 328 342 340 338 337 337 336 336 334 332 329 322 317 316
342 343 342 342 349 350 357 358 358 358 358 357 356 355 349 344 354 342 348 355 355 355 351 351 350 349 341 334 335 332 330 334 335 336 336 336 333 332 329 325 323 322 320
339 342 349 354 346 357 359 360 360 359 359 359 359 358 356 358 356 352 355 357 356 355 348 345 345 342 337 333 330 329 333 336 334 337 336 333 331 328 325 324 322 321 319
351 356 357 358 359 360 356 357 359 360 360 359 359 361 359 356 354 354 356 357 356 355 342 342 337 334 333 332 331 334 334 333 336 334 332 331 328 326 324 324 322 320 319
354 352 349 350 347 346 348 353 352 353 353 354 353 354 356 356 353 343 340 345 348 347 340 336 334 333 332 330 331 331 333 336 335 334 332 330 326 325 324 323 321 320 318
350 349 349 349 349 352 353 352 350 351 351 350 351 349 343 338 337 335 334 336 340 337 337 337 337 335 332 331 332 335 336 335 335 332 331 328 325 325 324 322 321 318 316
347 349 349 350 350 350 348 347 344 344 340 345 341 338 338 339 334 333 334 334 335 332 334 334 335 332 332 333 333 334 333 333 332 331 328 326 325 325 323 321 318 315 311
343 345 347 349 349 349 349 347 344 343 342 341 340 336 335 333 333 331 332 331 331 332 333 332 331 332 334 334 334 334 333 331 329 328 327 326 324 322 320 318 315 311 308
340 341 342 344 344 344 343 342 341 343 340 334 332 332 332 333 333 332 331 331 332 333 333 334 334 334 333 331 330 330 328 327 327 326 325 324 322 319 317 313 310 309 308
338 338 341 341 340 339 337 337 336 334 333 332 332 333 333 333 331 331 332 332 333 333 332 333 333 333 331 330 329 328 327 326 325 324 322 319 318 316 313 310 309 308 308
339 338 338 338 336 336 336 334 335 335 335 335 334 335 336 335 334 334 334 333 333 333 331 330 328 327 327 326 325 324 323 322 321 320 318 317 315 312 310 309 308 308 308
337 337 337 338 337 337 334 334 333 332 332 335 336 335 334 335 333 331 330 328 326 325 324 324 323 321 320 320 320 320 320 319 318 317 316 313 311 309 309 308 307 307 308
334 335 335 334 333 333 333 333 333 333 333 332 332 332 331 330 329 328 327 326 324 323 321 320 319 317 315 314 315 315 314 314 313 312 312 311 310 309 309 308 307 307 307
331 331 332 332 332 329 328 327 328 328 329 330 330 330 329 328 326 325 324 322 321 320 319 319 318 316 314 313 313 312 307 306 307 307 309 309 309 309 307 307 306 306 307

GFSGL_850_thetae_051.txt.gz
Theta_e
341 338 338 340 342 343 344 345 345 349 351 348 353 354 352 351 352 353 351 353 353 350 344 344 338 331 338 339 339 339 338 338 337 337 337 337 336 330 337 335 332 336 335
351 344 341 342 341 341 341 343 344 344 345 346 346 351 350 343 350 353 352 352 354 354 341 339 334 330 328 335 339 338 338 338 339 337 338 338 337 337 332 339 337 336 336
358 357 350 344 341 340 339 339 341 343 344 344 345 346 347 346 342 344 344 342 349 354 351 346 337 334 328 329 330 339 337 336 339 338 338 338 338 338 340 338 337 336 334
357 359 358 355 344 340 338 337 338 340 341 342 343 345 345 345 344 340 343 347 347 352 354 351 348 338 329 325 326 330 337 338 339 339 337 337 337 338 338 339 339 338 338
354 357 358 357 350 344 341 338 337 337 338 339 341 343 345 346 348 345 343 347 349 345 348 354 353 347 334 328 325 324 326 329 336 338 334 337 336 338 338 339 338 336 336
353 355 357 358 356 352 346 341 339 336 336 338 340 341 343 347 352 352 351 349 351 352 347 347 348 349 345 335 328 327 332 334 330 329 336 337 337 337 338 338 337 336 337
352 356 356 358 357 356 352 349 344 339 338 338 340 343 343 343 344 347 351 351 351 353 354 353 353 352 349 344 333 330 336 339 340 340 331 331 338 338 338 338 337 337 336
355 353 357 357 357 356 353 352 350 349 345 344 343 345 347 346 345 345 347 349 348 348 351 351 353 352 351 343 343 341 340 342 342 342 341 337 334 339 339 338 337 337 335
353 354 353 358 355 355 351 352 351 350 350 349 352 356 351 349 353 351 349 351 351 352 351 352 351 348 345 346 348 344 343 345 344 343 341 342 340 337 338 335 335 337 338
344 347 353 356 356 348 346 350 349 349 349 359 359 356 356 353 354 354 354 355 354 352 349 350 350 347 349 352 352 350 349 346 347 345 342 342 341 339 337 334 335 336 337
355 356 355 351 353 349 350 351 348 349 358 359 358 360 360 354 350 342 341 342 342 343 350 350 347 351 353 353 353 354 352 350 346 344 342 333 336 337 335 334 336 335 335
346 351 355 354 353 359 354 355 353 353 354 354 361 359 361 361 359 355 355 349 349 347 353 354 352 352 352 352 354 355 353 348 343 340 335 334 336 338 335 333 335 334 334
345 346 353 357 356 356 359 357 361 360 361 362 361 362 360 359 360 358 354 352 349 346 354 354 349 352 349 345 344 353 353 347 343 339 338 338 335 335 332 336 333 331 329
342 343 352 357 354 356 362 363 363 362 362 360 360 360 360 359 359 358 355 353 349 345 346 353 355 355 354 354 350 351 349 346 342 339 340 336 334 333 336 334 332 327 321
354 357 358 359 359 361 360 361 361 360 360 361 360 360 360 359 358 353 350 354 355 355 356 355 355 354 353 353 353 350 347 339 337 341 334 334 334 336 334 332 328 325 323
359 358 358 357 362 361 361 359 360 361 360 360 360 361 362 360 359 360 361 357 358 358 357 357 357 355 348 347 347 344 337 337 337 335 333 335 336 333 332 327 325 324 323
360 358 358 358 362 361 363 360 360 360 360 360 359 359 360 361 360 357 355 353 351 352 351 348 346 343 342 341 337 335 334 334 333 332 334 336 333 331 327 326 325 324 322
360 360 359 361 361 360 358 358 358 358 355 359 357 354 354 353 355 352 343 339 338 339 341 339 338 337 336 336 334 333 332 333 335 334 334 333 330 327 326 326 325 323 322
355 355 355 355 356 356 356 354 352 350 347 345 349 349 349 344 341 340 337 334 335 338 338 337 338 338 335 335 335 333 332 333 333 334 334 331 328 327 326 326 324 322 320
353 353 351 350 351 351 350 347 347 345 344 343 341 340 341 340 336 334 335 337 337 337 336 335 334 334 333 332 332 332 332 333 334 333 332 330 328 327 326 324 323 320 317
346 347 345 346 346 346 346 346 345 344 343 342 341 337 335 334 332 333 334 332 332 332 333 334 332 332 332 332 333 334 334 335 333 332 330 328 327 326 324 323 320 318 313
342 343 344 343 344 343 343 341 340 339 337 335 332 332 332 333 333 332 332 332 333 333 333 334 333 334 334 334 333 334 333 332 331 329 328 327 326 324 322 319 317 313 312
340 340 341 339 338 338 339 338 338 338 338 335 334 333 333 333 337 335 334 333 333 333 334 333 334 334 333 333 331 331 330 329 328 327 326 325 323 321 319 316 313 312 311
339 339 339 339 338 336 337 336 333 334 337 337 336 335 335 335 335 334 336 336 334 334 333 333 332 331 330 329 329 328 327 326 325 325 323 322 320 319 316 313 312 311 310
336 335 335 335 334 334 335 334 333 334 334 333 334 335 334 333 333 333 332 332 331 329 328 326 326 325 324 324 323 323 322 322 322 321 321 320 318 316 313 312 311 310 310
332 331 332 332 330 329 327 329 332 331 332 332 330 330 329 329 330 329 329 328 326 325 324 322 322 321 320 319 318 318 318 319 319 318 317 315 314 313 312 311 310 309 310

GFSGL_850_thetae_054.txt.gz
Theta_e
348 345 337 333 332 333 335 335 340 343 352 351 356 354 351 351 340 347 349 352 349 351 348 340 334 332 332 338 339 339 339 337 337 337 339 338 337 336 336 338 336 334 328
346 348 346 340 336 335 337 339 340 345 347 349 347 356 355 352 345 338 341 347 356 355 352 348 338 332 332 332 338 336 337 338 338 338 338 338 337 337 336 331 331 334 337
356 354 353 347 340 342 340 339 342 343 344 346 346 348 351 348 346 344 337 341 347 352 353 352 343 335 328 329 331 336 337 337 338 338 338 337 338 339 338 337 336 334 335
356 359 358 354 352 351 344 339 337 340 341 342 343 344 346 347 346 346 346 342 338 342 348 351 344 341 334 329 328 328 329 335 335 336 334 335 338 339 338 338 338 339 339
356 358 359 359 357 357 353 347 345 342 338 338 340 342 344 345 346 345 346 346 346 341 341 343 343 337 337 337 335 330 327 329 338 337 337 337 335 338 338 338 338 338 338
355 356 358 358 359 359 358 355 354 352 345 340 338 339 341 342 343 344 345 347 347 348 345 341 345 347 342 340 338 335 335 328 325 332 337 336 334 333 338 338 339 339 338
355 355 357 358 358 357 357 357 357 355 350 343 339 337 337 338 340 342 344 350 351 350 349 348 347 344 340 343 343 341 341 341 331 327 329 332 332 333 335 340 338 338 338
353 355 356 358 359 359 357 358 357 356 352 347 344 341 338 337 338 339 341 347 353 353 352 352 349 346 346 345 346 345 345 346 344 337 336 337 336 336 337 339 338 337 337
356 354 355 356 358 359 358 358 358 357 355 351 348 344 340 338 339 342 345 350 355 352 347 350 352 349 349 350 348 348 350 348 346 344 342 341 338 337 339 338 336 336 337
345 346 356 356 358 358 359 358 358 356 353 357 355 351 348 346 348 350 354 354 348 342 349 347 348 352 350 354 353 352 351 351 351 348 344 342 336 333 335 339 334 337 337
339 345 347 352 356 361 361 361 360 359 358 355 353 353 353 351 352 354 356 358 354 354 355 356 356 356 357 357 357 356 354 354 353 352 350 347 341 337 335 339 337 333 336
345 344 345 347 354 359 363 362 361 362 362 358 360 356 357 359 360 359 360 361 361 358 359 359 358 357 357 356 355 356 357 357 355 354 352 349 343 340 334 338 334 334 336
351 349 345 350 353 355 363 363 363 364 363 363 361 363 362 361 364 362 361 360 360 361 360 358 355 354 357 356 354 353 353 356 358 353 348 348 342 339 339 338 333 335 333
346 354 350 353 356 358 359 364 364 365 364 363 364 363 363 365 361 362 361 360 360 360 359 357 355 354 352 353 354 354 353 354 355 352 350 347 342 339 338 336 335 334 334
361 357 355 357 361 363 362 367 366 365 366 365 362 364 363 362 362 361 360 360 358 356 353 352 352 349 348 350 352 353 354 351 351 348 345 342 339 339 339 337 333 334 333
353 359 361 358 363 364 365 362 365 366 365 363 363 362 362 362 362 361 360 359 355 355 356 356 356 356 355 355 355 354 350 348 345 343 339 337 340 336 335 333 334 333 328
357 360 360 360 361 363 364 363 360 360 361 361 359 360 361 361 360 359 359 359 359 356 354 353 353 353 351 349 348 345 346 342 340 337 338 337 336 334 333 334 332 326 323
357 360 359 358 360 363 364 362 360 358 359 359 359 359 359 359 359 360 359 356 351 347 345 341 340 340 341 341 340 338 333 333 334 337 337 335 334 333 333 331 327 324 324
363 361 361 361 364 364 363 362 360 360 358 355 357 359 357 354 352 352 351 348 344 340 337 338 338 337 337 335 335 335 334 334 333 333 334 331 333 332 329 327 326 324 323
359 358 358 357 357 358 357 355 353 351 347 345 344 345 348 347 344 343 340 336 335 335 338 337 337 336 335 334 335 334 332 332 333 333 332 333 332 329 327 327 326 324 323
354 355 355 354 352 350 349 347 346 346 345 344 344 342 342 340 338 335 334 335 335 337 337 336 334 333 333 332 332 332 332 332 332 332 334 332 330 328 327 326 326 324 322
347 348 349 348 346 346 345 344 345 343 341 340 339 338 334 335 335 337 336 333 333 334 334 335 334 333 332 334 332 333 333 334 334 334 332 330 329 328 327 327 324 321 318
345 345 344 343 342 341 340 340 340 339 337 336 334 333 333 334 334 333 332 334 335 334 335 335 334 333 334 334 335 334 334 334 333 332 331 329 328 327 326 323 321 319 315
339 339 339 340 339 337 336 337 337 337 337 336 336 336 336 336 336 336 335 335 335 334 334 334 334 333 333 332 331 331 331 330 329 329 328 328 327 326 324 320 318 315 313
335 334 334 335 335 335 335 334 334 335 335 335 333 335 337 336 335 335 336 334 333 332 332 331 332 332 331 331 330 330 330 328 329 327 327 326 325 322 321 318 316 313 312
332 331 330 330 329 330 331 331 331 332 332 330 330 330 332 331 332 332 331 330 329 328 327 327 326 326 326 326 324 325 324 324 324 324 324 323 321 320 319 316 314 312 311

GFSGL_850_thetae_057.txt.gz
Theta_e
345 343 342 333 328 329 334 333 333 338 347 351 350 353 353 351 350 349 340 345 347 346 347 342 333 328 332 336 337 338 336 336 336 336 337 339 338 337 336 335 333 332 330
343 344 344 343 337 332 333 335 334 333 337 354 354 354 355 355 352 351 342 340 342 343 343 344 340 334 332 330 333 332 333 333 333 331 335 338 339 337 337 337 336 333 330
344 344 344 343 342 340 335 333 334 333 333 336 353 354 353 354 355 353 349 337 334 338 340 346 343 345 341 333 333 331 331 332 332 334 332 336 338 338 338 338 338 336 335
344 344 343 342 342 342 338 329 330 333 335 336 340 344 348 350 349 348 347 346 343 335 332 333 336 341 336 336 335 331 331 333 333 334 335 338 338 339 339 338 338 337 336
346 346 346 344 343 342 339 336 333 334 336 337 339 341 343 346 347 347 346 346 346 345 340 335 333 331 331 334 335 336 333 331 333 335 336 337 337 338 338 336 338 336 337
348 349 349 351 352 350 349 345 341 337 337 340 339 341 343 343 342 343 343 344 344 345 345 344 340 336 334 333 333 335 335 338 335 331 332 335 335 335 334 334 334 338 338
350 351 352 352 353 354 355 355 352 348 345 343 344 344 342 340 339 339 340 342 342 343 343 344 345 344 344 342 341 341 341 340 342 342 339 332 329 330 334 335 333 339 339
352 353 354 354 354 355 356 356 356 353 351 350 348 345 343 339 337 337 338 341 341 341 341 342 345 346 347 349 349 349 348 347 346 349 347 345 340 331 333 334 334 336 339
353 354 354 354 355 356 356 357 356 356 356 355 354 352 347 343 341 338 341 345 345 341 340 343 347 350 352 354 354 354 353 352 352 351 351 350 349 341 336 335 337 335 336
353 353 354 356 356 356 356 357 357 357 356 356 355 353 351 348 348 347 348 351 347 345 347 347 353 355 358 358 359 358 357 356 355 354 354 353 351 344 340 336 337 332 334
346 342 344 350 353 355 357 358 358 358 358 358 358 357 354 351 351 351 353 356 354 355 354 353 354 357 357 358 358 358 358 357 358 357 357 355 353 349 344 341 338 336 333
352 350 348 347 348 353 357 359 360 360 360 360 360 359 357 355 354 353 356 358 361 361 360 360 360 360 359 358 357 357 357 356 357 358 358 357 353 351 346 343 342 336 336
335 335 346 350 347 349 351 358 362 362 362 361 361 360 359 359 357 356 358 362 362 362 361 361 361 360 359 358 357 356 356 356 355 355 355 353 353 353 346 343 340 338 337
339 335 352 355 352 351 351 356 359 363 363 363 363 363 363 363 361 360 360 361 364 363 362 361 361 361 360 359 359 359 358 356 353 352 352 350 350 348 344 340 338 338 335
343 339 340 351 356 354 357 357 360 363 363 363 363 364 363 362 359 358 359 360 360 359 359 360 360 360 359 355 353 352 351 352 352 352 352 349 345 341 339 332 337 335 334
356 349 356 360 359 359 359 358 359 365 365 365 366 364 363 363 365 363 362 362 361 361 360 359 357 355 353 354 355 355 353 352 351 347 347 342 340 338 332 337 337 335 334
360 362 356 363 363 362 362 362 359 361 366 366 365 363 363 364 361 361 361 361 360 358 356 356 357 355 355 354 350 348 345 344 342 342 339 336 335 338 338 336 335 334 332
359 360 361 360 361 362 363 363 364 362 361 363 364 361 360 361 361 359 359 359 359 358 355 352 350 346 341 340 340 339 335 334 334 334 337 338 336 336 334 333 332 332 332
358 360 358 363 359 360 363 362 363 363 361 358 359 359 358 358 358 358 357 356 355 352 347 343 339 337 337 336 335 335 335 334 333 334 334 336 334 335 334 333 333 333 324
359 363 362 360 361 360 364 364 363 359 357 355 355 356 356 356 354 353 350 347 344 341 338 336 336 337 337 337 335 334 333 332 333 333 334 334 332 332 333 333 332 327 325
356 358 358 360 361 362 362 361 358 354 350 348 348 346 345 345 343 343 342 338 335 334 334 335 336 336 332 332 332 331 331 331 332 333 333 332 333 332 331 330 327 326 324
352 354 353 353 353 351 351 350 347 345 344 344 343 342 340 339 339 337 334 333 333 334 335 336 335 333 332 332 332 331 331 331 332 331 332 333 332 330 329 327 326 326 324
349 350 348 348 346 345 345 344 342 342 341 339 336 335 334 333 333 333 333 334 334 334 334 335 335 332 333 333 332 333 333 333 332 332 333 333 331 329 328 327 326 326 325
346 344 343 343 341 340 339 338 338 337 336 335 335 335 335 335 335 335 335 334 334 334 335 335 334 333 334 333 333 333 333 333 333 333 331 330 329 329 328 327 325 324 322
340 340 339 339 338 337 336 336 336 336 335 336 337 336 337 337 337 337 337 336 334 333 333 333 333 332 331 330 330 330 331 330 328 328 331 329 327 326 326 325 323 321 320
335 335 335 335 334 334 333 334 334 333 332 332 334 335 334 334 335 335 334 332 332 331 329 329 329 330 330 330 327 327 328 329 329 328 327 327 326 325 325 324 323 319 315

GFSGL_850_thetae_060.txt.gz
Theta_e
345 344 344 343 340 338 335 333 334 337 340 344 344 351 354 353 353 350 349 348 342 343 343 335 330 328 330 335 336 336 337 337 336 335 336 337 338 338 337 337 336 336 333
343 344 344 343 342 339 335 332 331 332 337 340 342 346 350 350 352 351 350 350 342 337 339 340 334 335 330 328 333 333 334 335 337 334 334 336 337 338 338 337 336 336 336
344 343 344 344 344 341 336 333 330 330 332 335 340 348 350 351 352 352 351 350 348 333 335 334 332 337 336 335 331 329 330 334 336 336 331 332 334 336 338 338 337 336 337
344 343 342 343 342 341 337 334 331 329 331 333 334 338 351 352 352 352 350 347 346 344 339 332 331 333 334 339 342 340 336 333 332 334 336 335 334 334 337 338 337 337 338
344 344 342 339 340 339 337 335 334 333 332 331 334 335 336 348 352 351 349 348 346 345 345 344 342 335 330 330 333 333 338 342 342 336 335 336 336 336 336 336 338 338 338
345 344 344 344 342 340 339 337 334 334 334 332 331 332 334 335 339 342 344 345 345 345 345 344 343 344 344 341 338 336 335 336 342 345 344 337 334 335 335 337 338 339 339
346 346 345 345 345 345 345 343 341 339 337 336 334 333 334 334 336 338 340 342 343 344 344 343 342 342 344 344 344 344 344 343 343 345 346 344 344 344 340 336 336 338 336
347 347 347 347 347 348 349 351 352 350 349 347 345 341 339 338 338 339 340 342 343 342 341 341 343 343 343 344 346 347 348 349 350 350 350 348 348 347 347 347 344 336 337
347 347 348 348 349 349 350 351 352 353 354 354 353 352 348 346 345 346 348 348 347 344 344 342 343 347 349 351 352 352 353 355 355 356 356 355 355 354 354 351 345 340 339
349 348 349 350 350 351 352 353 353 354 354 355 355 354 354 354 353 352 352 352 349 347 346 345 345 347 352 357 359 358 357 358 357 356 355 355 356 357 356 354 351 342 340
352 351 351 351 352 353 354 354 355 355 356 356 356 356 356 355 355 355 356 356 352 353 352 351 351 352 354 356 357 357 357 357 356 356 356 357 357 356 354 353 351 343 340
353 356 354 354 355 356 356 356 357 357 358 358 358 357 357 357 357 356 357 357 357 358 357 358 357 358 359 359 358 357 357 358 357 357 357 357 357 355 352 351 349 348 341
339 338 351 353 352 352 353 354 356 358 359 359 359 359 358 359 358 359 358 359 359 361 361 359 360 361 361 361 360 359 359 358 358 356 354 354 352 352 350 349 344 340 338
338 336 337 334 338 347 353 353 352 354 357 359 360 361 361 360 360 361 360 360 361 361 360 360 362 362 361 360 361 360 360 356 355 354 353 351 352 349 348 344 340 338 338
349 346 343 340 338 347 355 354 352 352 354 356 356 359 360 360 360 361 360 360 359 359 360 361 363 363 361 359 358 358 358 356 353 353 351 350 347 344 344 338 338 335 332
361 359 357 353 348 344 351 358 355 353 352 357 361 361 362 362 361 362 362 362 360 361 362 360 359 359 359 359 360 357 353 352 349 345 346 343 342 341 337 334 333 333 335
339 345 359 358 359 357 364 361 358 356 355 357 360 359 363 362 363 363 362 362 363 362 362 361 360 361 357 354 354 352 349 342 341 341 339 339 339 337 336 333 335 337 334
337 342 351 357 360 359 363 364 361 359 357 356 360 358 361 360 361 361 361 360 359 358 358 358 357 356 354 350 343 339 339 335 333 333 334 335 335 334 336 336 337 334 334
336 342 345 348 354 358 361 364 363 363 362 362 361 361 360 361 359 359 359 358 358 358 357 355 352 348 343 337 336 335 335 335 335 334 332 335 337 337 336 335 334 333 332
344 346 350 356 357 359 361 362 362 363 364 364 359 357 357 357 359 359 357 356 354 352 348 345 343 338 335 336 336 335 335 333 331 333 334 333 334 334 335 333 332 332 333
347 350 352 355 357 360 360 360 361 363 363 360 354 353 353 353 351 350 348 348 344 341 339 336 334 334 336 332 332 331 331 331 332 332 335 332 332 331 332 333 332 332 325
349 351 354 355 355 357 360 360 361 362 358 355 352 350 348 345 343 342 340 339 336 334 334 335 335 334 332 332 330 331 330 330 331 332 332 332 332 332 332 332 332 329 325
350 350 351 352 354 358 358 356 354 350 347 345 344 343 341 339 336 334 333 333 333 334 334 334 334 333 332 333 333 332 331 332 332 332 331 332 332 331 329 328 327 326 325
349 348 349 348 347 348 350 345 343 341 338 337 334 334 334 334 333 333 334 335 334 334 334 335 334 334 333 333 333 332 333 332 332 332 332 332 332 331 329 328 327 326 325
346 347 344 346 343 339 339 338 337 335 334 334 334 334 334 334 334 334 334 335 335 335 334 334 333 332 332 332 332 331 332 331 330 332 331 330 331 329 328 327 327 327 326
341 342 340 340 339 338 337 336 335 335 335 335 335 334 334 334 334 335 335 334 333 333 333 333 332 332 331 330 330 329 328 329 328 328 327 329 329 328 327 326 326 324 323

GFSGL_850_thetae_063.txt.gz
Theta_e
346 345 345 345 344 343 338 334 334 333 334 340 342 343 347 348 351 352 351 349 348 345 340 344 341 337 333 333 334 336 337 337 336 333 334 334 336 336 337 338 338 337 336
345 345 345 345 345 344 342 336 334 332 333 336 340 343 344 348 353 352 352 352 349 348 341 339 342 341 334 330 328 332 335 336 337 335 332 331 334 334 335 336 337 337 337
346 345 345 345 345 344 343 341 338 334 333 333 337 340 342 342 348 352 351 351 350 349 348 340 332 337 340 337 335 331 329 331 335 336 332 331 332 334 335 334 335 337 337
346 345 345 345 344 343 343 342 339 335 335 332 332 334 337 339 343 348 348 349 347 348 347 344 341 333 331 332 333 336 338 339 337 335 334 333 332 332 334 335 335 334 336
346 345 345 343 342 342 342 341 339 337 334 332 330 330 332 333 336 340 346 346 347 347 345 343 343 343 342 340 336 332 331 334 339 343 344 342 343 342 339 335 335 335 335
346 345 345 344 343 340 340 339 338 337 335 336 333 330 330 332 332 332 335 343 346 347 345 343 343 343 344 344 344 344 344 343 341 341 341 342 339 340 342 344 344 339 338
346 346 345 344 344 342 339 339 338 337 336 336 335 336 334 331 331 332 332 334 338 342 343 342 343 342 343 343 344 345 346 347 347 348 348 347 347 347 349 350 350 349 347
346 346 346 345 344 344 344 343 341 340 340 339 338 337 336 334 332 331 332 335 337 338 339 340 341 342 343 343 345 347 346 346 350 351 352 352 354 355 355 355 354 350 346
346 346 346 346 345 345 345 345 345 346 346 348 349 347 346 344 342 341 340 341 341 341 343 344 344 343 343 347 349 350 350 352 353 354 355 355 356 355 354 354 352 347 345
347 347 346 346 346 346 347 347 348 348 350 351 352 353 353 353 353 353 352 351 350 351 350 350 349 349 351 353 354 355 355 356 357 357 356 356 356 355 355 354 354 351 347
347 346 347 346 347 347 347 348 349 350 351 352 353 354 354 354 355 355 355 355 355 355 354 354 354 353 354 356 357 358 358 356 355 356 355 356 358 357 354 354 352 352 349
349 349 349 350 349 349 349 350 351 352 353 354 355 355 356 356 356 356 357 357 357 357 356 356 356 356 356 358 360 359 358 360 359 358 358 357 356 354 352 351 346 346 347
347 351 356 357 356 355 355 354 354 355 356 356 356 357 357 357 358 358 358 358 359 359 357 356 357 358 360 360 359 359 361 361 360 359 358 357 354 352 351 351 346 345 343
339 341 342 343 349 354 356 356 357 356 355 355 354 354 355 356 357 359 360 360 359 359 358 357 357 360 363 360 360 361 358 360 359 355 352 353 351 349 348 347 342 343 339
343 342 342 342 343 344 349 355 356 357 355 354 351 351 352 354 354 357 361 362 362 360 359 360 360 361 361 360 359 359 356 356 354 354 351 348 345 344 343 340 339 338 337
353 351 349 349 350 349 348 343 346 354 356 355 355 354 352 353 357 360 361 361 361 362 363 364 362 361 360 360 360 359 357 355 352 349 343 342 341 340 339 337 335 337 337
327 325 328 341 349 353 353 352 347 349 352 358 357 356 355 355 359 355 359 361 362 363 363 362 362 362 360 359 360 357 354 352 344 338 338 337 339 338 336 336 334 333 332
326 327 328 333 337 345 351 353 352 355 359 360 359 358 356 357 359 358 358 361 361 361 360 361 361 361 361 360 356 354 346 338 336 334 333 334 334 334 335 334 334 334 335
326 329 331 330 332 342 349 352 353 354 360 363 361 360 359 359 359 358 358 357 357 359 358 357 357 357 356 355 350 341 336 335 335 334 334 333 334 336 335 333 334 335 334
321 325 334 335 331 342 353 354 356 356 358 362 363 362 359 358 358 356 356 358 357 356 356 356 355 353 348 342 337 335 335 334 333 331 332 332 334 336 335 335 335 332 332
321 325 332 338 335 335 353 355 357 359 360 361 362 361 355 355 353 355 357 357 356 353 351 348 345 341 336 334 334 333 332 332 330 331 332 332 333 333 334 335 333 332 331
319 321 326 336 334 334 342 353 355 359 359 359 360 360 356 352 350 351 352 351 348 345 341 337 335 334 334 332 331 331 331 330 331 332 331 332 332 332 333 333 333 332 332
323 323 328 326 330 340 343 350 354 357 359 359 358 355 349 347 346 344 343 341 338 336 334 334 335 334 332 332 333 332 331 330 330 330 331 331 331 331 332 332 332 332 330
332 336 340 344 346 345 345 350 354 357 355 352 348 345 342 340 340 336 333 333 333 333 334 334 334 333 332 333 332 332 331 331 331 331 332 331 331 331 330 330 331 330 327
334 340 341 342 343 347 350 351 351 349 346 344 342 340 338 335 333 333 333 333 333 334 333 334 334 334 333 333 333 332 332 332 331 331 331 331 332 331 329 328 327 326 325
341 342 341 342 342 345 345 344 342 340 336 335 335 334 334 333 333 333 332 332 333 333 335 334 333 332 332 330 330 329 329 330 330 328 330 330 329 331 330 329 326 326 325

GFSGL_850_thetae_066.txt.gz
Theta_e
347 347 346 344 344 345 344 344 343 337 334 332 335 339 343 344 346 346 348 350 350 349 347 344 340 342 341 338 336 337 337 336 336 334 332 332 332 333 334 334 334 335 337
347 348 348 347 345 345 344 344 344 341 336 333 332 335 338 343 346 348 349 351 351 352 350 348 345 340 340 341 339 332 330 330 331 332 333 331 331 331 332 332 331 332 333
347 347 348 346 346 345 344 344 344 343 337 334 333 332 334 338 344 347 350 352 352 350 350 349 347 347 337 336 339 339 336 336 337 334 330 331 331 331 332 333 332 332 332
346 347 347 346 345 344 344 344 344 343 341 336 333 331 331 332 336 338 342 347 348 349 348 346 344 344 343 336 331 331 334 336 335 337 339 339 340 339 341 339 337 339 339
346 346 346 346 345 345 344 344 344 344 342 340 336 332 330 330 330 332 334 335 342 344 344 344 342 341 341 342 344 343 343 342 341 339 340 340 340 341 342 344 345 346 347
345 345 345 345 345 345 342 341 342 342 342 341 336 333 331 329 328 328 330 332 334 336 340 340 341 342 342 342 343 344 346 346 347 348 347 347 347 348 348 350 351 352 353
345 346 345 345 345 344 342 342 341 340 340 339 337 336 333 330 328 328 328 331 332 332 332 334 337 339 340 340 340 341 343 345 347 349 350 349 350 353 354 355 356 356 355
346 346 346 346 345 345 344 343 342 340 339 339 338 337 336 334 332 332 332 332 332 332 332 332 333 334 336 337 339 340 341 342 344 348 351 352 354 355 356 357 357 355 354
346 346 346 345 344 345 345 344 343 342 340 337 336 337 338 337 337 336 338 339 337 333 332 333 334 336 338 341 344 345 344 346 348 352 354 355 354 354 355 355 353 354 354
346 346 346 346 346 346 345 345 344 344 344 344 345 345 346 349 350 348 348 349 348 346 344 344 345 346 348 351 352 353 354 354 356 356 354 354 353 353 352 352 350 354 354
346 346 346 346 346 346 345 346 346 346 346 347 347 348 350 351 352 353 354 355 355 355 355 354 354 354 355 355 355 356 357 358 356 356 356 354 354 354 353 354 354 352 350
346 346 346 346 346 346 346 346 347 347 347 348 349 350 351 352 353 354 355 355 356 357 356 356 356 356 356 357 358 359 359 357 357 355 354 360 353 353 352 352 352 350 349
345 347 346 346 347 348 348 348 349 350 350 351 351 353 353 353 353 354 355 356 357 357 357 357 359 359 358 361 357 358 357 357 356 361 355 360 353 351 350 349 344 346 345
350 350 351 352 353 352 353 352 353 353 353 353 353 353 352 351 350 350 351 355 357 358 359 359 359 360 362 359 359 357 358 357 358 358 355 353 352 349 346 343 343 342 339
348 348 348 349 352 355 356 356 356 355 354 354 354 354 354 353 350 352 354 356 358 359 361 361 361 362 360 359 358 357 357 359 357 354 354 352 349 340 341 340 338 336 336
353 353 353 353 351 348 345 344 346 348 349 349 352 353 353 354 355 354 355 357 359 360 361 362 359 360 361 362 359 358 357 356 355 354 352 347 338 339 338 337 336 336 337
336 336 334 336 342 350 353 351 348 347 344 342 345 352 355 355 356 356 357 356 358 361 361 358 358 359 359 360 360 359 359 360 356 353 343 336 336 338 337 336 335 335 334
326 327 328 328 331 336 339 346 350 351 349 347 349 351 352 356 357 358 359 353 357 357 358 358 359 361 362 361 362 361 360 356 353 342 335 334 334 335 335 334 333 333 333
318 320 324 324 328 329 335 342 345 348 350 351 352 358 359 359 359 359 360 357 356 354 354 356 358 359 358 360 360 358 356 352 340 334 334 333 334 334 336 334 334 333 335
315 316 319 321 322 327 330 334 341 348 350 350 350 354 361 360 359 358 358 356 355 354 355 355 355 356 356 356 355 354 347 338 334 334 334 333 336 337 335 334 334 335 334
312 314 314 316 319 323 329 329 334 338 348 354 352 355 359 360 357 354 354 354 353 353 355 356 355 354 353 351 346 340 335 334 334 333 331 332 336 337 338 335 334 332 332
311 312 313 314 315 319 327 330 325 324 332 352 356 358 360 360 357 353 352 350 350 352 353 353 349 347 342 338 335 334 333 332 331 331 331 332 333 335 334 338 335 332 332
312 312 314 315 316 319 326 327 339 336 341 351 357 359 359 357 358 354 349 349 349 349 347 343 339 336 334 333 331 331 330 330 330 331 331 331 332 332 333 333 333 332 332
314 313 319 319 317 320 330 337 339 343 347 351 353 356 355 353 351 349 349 349 344 342 339 336 335 334 333 332 332 333 332 331 330 330 331 331 331 331 331 331 332 332 332
320 315 320 329 327 338 333 339 341 345 346 349 349 351 347 345 344 341 342 339 336 335 334 334 333 333 333 332 332 332 332 332 331 331 331 332 331 331 331 330 330 331 331
328 334 335 334 335 340 338 339 340 341 343 344 343 343 339 337 336 335 334 333 333 332 332 333 333 333 333 333 332 332 332 332 331 331 331 331 331 331 331 329 328 327 326

GFSGL_850_thetae_069.txt.gz
Theta_e
341 341 342 342 342 342 342 344 345 344 343 340 335 333 337 340 343 345 345 346 347 349 350 349 347 343 341 341 339 338 338 336 335 334 331 329 329 330 331 331 331 331 332
343 344 344 344 343 343 343 343 344 344 344 343 337 331 333 337 342 346 346 347 348 349 350 351 351 350 346 342 340 339 339 337 334 329 329 330 332 333 333 335 336 336 336
344 345 346 347 347 346 345 344 344 344 344 344 339 334 330 331 336 341 345 347 348 350 350 350 349 349 347 345 340 337 336 337 338 337 334 335 335 331 330 329 331 334 338
346 346 346 346 346 347 346 345 344 344 344 344 342 335 332 330 331 335 342 345 346 348 348 349 348 346 341 340 341 339 338 336 336 338 339 343 343 341 343 344 345 346 348
346 346 346 346 346 347 347 345 343 344 344 344 343 340 334 332 330 329 332 335 337 340 342 342 343 342 340 341 344 343 344 344 345 351 351 350 350 351 351 351 351 350 351
345 345 345 346 346 345 346 346 345 343 343 344 344 342 340 336 330 328 328 329 330 333 333 333 337 339 339 340 341 342 346 347 346 345 346 351 347 351 353 354 355 354 354
344 345 345 345 345 344 345 345 345 344 342 342 343 343 341 338 333 330 330 330 329 329 329 329 330 331 332 334 336 338 340 341 342 341 343 343 346 350 354 354 356 356 356
344 344 345 345 344 345 345 344 344 344 342 340 340 340 339 335 333 332 332 333 332 330 329 328 329 330 331 331 331 333 334 336 336 338 342 345 350 354 355 355 357 355 354
344 344 345 344 345 345 345 344 343 343 342 340 339 339 337 335 333 333 335 337 336 333 333 332 331 330 329 331 333 334 336 339 342 345 348 352 354 353 354 353 352 353 353
344 344 345 345 346 345 345 345 343 342 341 340 338 335 333 333 334 336 338 340 340 338 336 335 335 335 335 336 339 342 346 349 352 354 357 356 354 354 353 352 353 355 356
344 344 345 345 345 345 342 343 345 345 345 344 344 344 344 344 345 346 347 349 349 347 347 348 348 348 349 351 352 354 354 355 356 357 357 356 356 354 356 353 353 353 351
345 345 345 346 346 346 346 346 346 346 346 346 346 346 346 347 349 350 351 352 353 354 355 355 355 355 355 356 356 356 357 357 358 359 357 357 355 355 359 356 351 351 348
345 345 345 345 345 346 346 346 346 346 347 347 347 347 348 349 351 352 353 353 354 355 355 356 357 357 357 358 358 358 358 358 357 356 356 355 356 356 354 352 351 347 341
344 345 345 345 345 345 346 346 347 348 348 349 353 353 351 352 351 350 350 352 354 356 357 357 358 358 359 358 359 359 357 356 356 357 356 356 358 353 353 352 345 340 337
345 346 345 345 346 347 348 349 350 349 351 352 353 354 353 352 351 351 352 350 349 350 355 358 360 360 360 361 361 359 357 357 357 358 358 358 354 353 352 344 340 337 336
354 355 356 354 347 352 353 354 355 355 355 355 355 354 354 354 354 354 353 352 351 353 357 359 359 360 361 359 358 358 358 357 356 356 355 354 354 352 343 338 337 335 336
342 348 350 352 355 355 350 348 349 350 350 351 352 352 350 352 353 356 356 355 355 357 358 359 359 357 358 357 358 359 358 358 358 356 355 355 353 344 337 338 337 335 335
322 334 337 339 339 341 346 347 347 346 344 343 342 343 342 343 347 355 358 358 358 358 356 356 356 356 356 357 359 360 360 361 358 358 358 354 344 335 336 337 335 335 334
313 315 320 329 336 335 332 334 337 337 339 342 345 347 347 346 350 352 358 359 359 355 350 353 354 355 356 358 359 360 360 360 359 357 354 343 335 334 335 336 334 333 333
313 313 314 317 322 325 329 331 329 327 328 333 340 347 348 351 356 357 358 358 358 358 355 353 354 353 354 355 357 358 359 358 356 353 344 335 334 333 334 335 334 333 333
313 313 313 314 315 319 323 324 324 324 327 324 326 339 352 354 356 359 358 357 357 358 354 353 353 354 355 355 355 355 355 354 348 340 335 334 333 332 336 335 333 333 335
313 313 312 313 313 314 315 317 321 324 321 319 320 326 349 357 358 360 360 359 354 356 355 353 352 355 355 355 353 351 347 342 337 334 334 333 331 331 335 334 333 333 333
314 314 313 312 312 314 315 315 322 328 319 318 320 324 340 355 358 359 360 355 352 350 348 348 350 350 350 350 347 343 338 335 334 333 331 331 332 335 334 333 332 333 332
316 317 315 314 315 322 331 332 333 332 331 322 324 327 339 352 355 356 354 354 350 349 347 347 347 346 344 340 337 335 332 331 331 330 331 331 331 332 334 337 336 333 332
323 323 325 322 323 328 332 334 337 339 335 330 331 336 345 349 352 352 352 350 347 346 342 341 339 338 336 335 333 332 332 331 330 330 330 331 332 332 332 333 333 333 333
323 326 326 329 333 333 333 332 335 338 337 339 338 342 344 345 345 344 344 345 339 340 337 337 336 335 333 333 332 332 332 332 332 332 331 332 332 332 331 331 332 333 332

GFSGL_850_thetae_072.txt.gz
Theta_e
348 346 344 342 340 340 341 341 341 343 344 343 343 339 336 345 342 342 346 350 353 353 352 355 354 351 350 348 350 350 347 347 346 343 341 341 340 333 331 332 334 334 337
351 346 345 343 342 344 341 343 342 342 344 344 343 340 337 344 347 341 343 350 351 352 353 356 356 356 354 349 351 351 349 349 349 346 346 346 347 348 345 336 332 336 341
350 351 349 346 345 343 340 340 342 342 343 344 343 343 338 333 343 342 341 344 351 354 355 356 356 357 356 355 355 353 351 353 352 352 349 347 346 346 347 349 351 351 351
349 350 349 340 340 339 340 341 342 343 343 343 343 341 338 333 332 338 346 339 344 352 355 356 357 357 356 355 355 355 354 352 350 351 350 350 350 350 351 352 352 352 353
350 350 348 341 342 343 344 344 344 344 343 343 343 342 340 336 338 330 332 337 338 341 350 351 352 347 346 346 353 353 354 354 352 350 349 348 347 348 350 351 352 353 353
351 350 349 343 343 344 345 346 346 346 344 344 343 342 342 340 342 330 330 335 331 332 335 337 336 337 336 337 339 340 342 347 348 353 350 349 351 351 352 352 352 355 358
352 350 349 345 344 344 345 345 346 346 344 343 343 343 341 339 335 331 329 331 333 333 329 329 332 344 342 333 331 332 335 336 339 339 339 339 338 346 354 355 357 357 355
353 351 347 346 345 345 346 346 345 346 345 344 342 341 342 340 335 332 332 335 336 333 331 330 328 327 328 329 329 331 331 330 332 333 333 334 338 351 356 356 357 355 354
352 348 346 345 345 347 346 346 345 345 345 345 344 342 340 337 335 333 336 338 337 333 332 330 329 329 328 328 329 329 329 330 333 334 336 342 351 353 356 355 355 355 355
351 345 344 345 344 345 345 345 345 345 344 343 341 339 337 335 335 334 335 338 339 336 334 331 331 331 330 331 332 333 332 332 336 346 356 358 358 358 355 354 355 355 357
355 354 352 349 346 345 345 344 344 344 345 343 348 341 337 335 334 333 333 336 339 347 347 348 346 337 333 336 338 341 342 346 351 354 358 360 361 358 356 356 356 358 355
354 354 354 348 348 352 346 346 346 346 345 348 345 349 351 339 339 341 341 342 343 344 350 354 355 355 349 350 353 353 354 355 356 356 357 359 360 358 357 357 356 356 353
355 355 355 354 352 352 347 348 348 347 355 354 357 357 357 357 351 346 346 347 348 349 351 358 359 360 355 354 355 356 356 358 358 358 358 357 358 359 357 357 355 353 352
356 357 357 356 354 352 355 355 357 357 357 356 357 357 358 358 359 360 352 350 350 352 352 353 354 355 356 357 357 357 358 359 358 357 357 357 357 357 361 359 354 353 341
355 356 356 356 353 357 357 357 357 357 357 358 357 358 359 360 361 361 362 363 354 351 354 355 355 356 356 357 358 359 359 360 359 358 357 357 357 361 359 355 353 347 340
356 354 354 354 355 355 356 356 355 357 356 356 358 359 360 361 361 360 355 355 355 352 351 355 357 354 356 359 360 360 360 360 359 358 358 356 357 360 357 353 351 338 341
354 357 358 357 356 355 357 359 359 358 354 356 354 355 355 362 359 359 355 356 355 355 355 357 353 353 357 359 359 359 359 357 357 358 358 357 359 358 354 349 342 340 341
338 345 351 353 353 353 348 352 355 351 352 357 354 354 355 355 355 355 355 357 356 356 354 354 355 356 358 359 359 357 357 358 357 359 359 358 357 355 355 346 340 340 339
326 332 335 341 347 344 339 337 337 350 342 351 356 350 346 346 347 348 348 348 358 361 360 358 359 360 359 360 359 358 358 359 361 361 361 359 358 353 346 340 336 337 337
318 316 318 327 333 339 339 342 342 346 350 351 349 349 348 338 341 343 346 351 354 358 359 359 359 359 355 356 356 354 354 357 358 360 359 355 353 347 343 339 338 337 334
319 321 317 323 327 329 335 339 342 343 343 345 347 348 346 341 352 353 355 353 355 358 359 362 361 362 359 355 355 352 352 354 357 359 355 348 348 344 341 340 339 335 336
319 320 321 324 325 327 329 332 334 336 339 340 339 340 320 319 322 338 352 354 357 357 359 360 362 360 358 355 353 354 355 354 354 354 349 347 343 341 339 338 337 337 336
317 321 322 323 324 325 326 329 330 331 333 337 339 339 340 333 328 329 349 352 355 358 357 357 356 354 353 354 354 355 354 353 350 346 344 342 340 339 338 338 337 335 334
320 319 319 324 325 326 327 329 332 332 333 334 339 339 339 342 342 338 347 356 356 355 352 353 350 347 348 351 349 348 345 343 342 342 341 338 336 337 336 336 333 334 335
318 321 323 324 324 329 331 330 331 334 337 338 339 339 338 335 337 341 348 352 352 352 351 349 347 343 346 344 341 341 341 340 338 337 336 332 334 334 334 333 333 335 334
316 318 320 322 324 326 329 330 329 333 333 332 336 335 336 337 337 343 345 344 343 346 346 345 346 344 343 341 340 339 337 335 333 332 335 335 337 335 335 333 334 334 334

GFSGL_850_thetae_075.txt.gz
Theta_e
351 345 341 337 334 331 346 348 348 352 352 350 352 352 349 350 352 352 349 350 354 352 352 356 356 352 353 351 351 351 350 348 348 348 347 345 344 345 344 347 348 348 348
354 350 345 342 340 342 337 344 348 348 350 350 347 351 350 348 350 352 354 349 352 353 354 353 354 355 355 351 352 351 351 352 353 350 351 351 351 350 349 349 351 353 352
354 354 352 349 347 344 344 339 342 344 342 341 345 348 349 349 348 352 353 354 351 352 354 355 355 355 354 356 357 356 355 354 356 357 354 350 348 349 351 352 352 353 354
354 354 354 354 352 348 346 341 340 341 338 340 342 344 346 347 345 347 351 351 353 352 353 354 355 356 356 357 357 355 356 354 354 354 353 352 350 350 349 350 352 350 352
353 353 353 355 353 353 348 346 343 341 340 339 341 343 343 348 349 343 341 348 348 346 352 354 355 355 355 357 357 355 357 357 356 353 351 349 347 347 353 351 352 351 350
354 353 352 354 355 352 349 348 346 341 339 340 341 342 342 349 348 346 344 338 343 343 340 338 339 346 349 344 340 338 338 342 344 351 350 349 349 351 352 350 352 353 359
355 354 352 354 355 351 345 343 341 340 341 342 342 343 342 339 344 345 344 341 342 337 332 331 334 346 346 343 338 333 331 331 333 335 335 335 335 336 341 351 357 358 358
355 357 354 354 355 350 349 345 343 343 343 344 344 343 342 341 339 337 339 340 338 335 334 331 330 328 330 335 338 338 335 331 328 332 334 336 339 349 354 354 356 356 356
357 356 357 355 356 355 347 345 346 345 345 346 346 345 342 339 340 335 337 339 341 337 334 332 331 330 327 327 328 329 329 330 333 338 341 345 349 353 358 359 358 357 357
357 358 359 357 358 358 352 346 344 345 345 348 349 346 343 340 339 339 337 338 346 341 335 331 329 328 328 328 330 331 332 331 333 337 342 351 359 364 361 360 361 358 358
358 359 359 359 359 359 359 356 350 346 355 350 356 355 351 347 342 339 338 338 341 348 347 346 346 341 337 335 334 334 334 336 339 345 354 360 361 361 362 363 359 358 358
357 359 359 360 359 360 358 358 358 355 353 356 352 356 357 347 341 339 337 335 334 335 339 343 344 346 349 351 351 350 349 352 353 353 356 359 360 361 361 359 358 356 355
357 358 359 359 359 358 359 359 360 359 358 359 360 358 355 354 353 339 334 332 332 335 334 343 348 351 355 357 356 357 356 355 355 356 359 360 360 360 360 359 359 357 357
358 358 358 358 358 357 361 361 360 360 360 358 358 357 356 353 353 359 359 352 346 345 345 345 346 351 355 357 359 357 357 357 357 360 359 360 361 360 361 358 358 357 355
357 358 359 359 359 359 359 359 360 358 358 358 354 356 357 358 359 359 360 362 360 351 348 348 349 351 352 355 360 361 362 363 364 360 360 360 361 361 359 358 360 357 351
356 357 359 359 360 360 358 359 359 359 357 357 358 358 359 359 359 360 360 361 364 365 360 356 359 360 361 362 361 356 358 361 363 361 361 360 359 358 357 358 359 354 351
356 358 359 360 360 360 360 360 359 359 358 358 358 358 358 361 360 360 361 361 361 363 363 362 360 360 361 360 353 354 358 356 359 360 360 359 357 356 359 359 357 351 348
348 357 357 356 358 358 358 359 359 361 358 355 354 355 354 357 358 360 360 360 361 358 357 361 361 362 361 359 360 361 363 360 360 358 357 357 357 357 359 358 355 350 346
334 339 342 351 359 359 360 361 361 358 358 353 349 346 346 344 349 351 354 356 358 361 361 360 361 361 361 361 361 360 358 359 361 359 356 358 359 360 358 357 354 350 345
324 323 327 340 347 350 351 348 345 346 335 339 346 345 342 340 342 343 343 346 347 351 356 356 358 359 359 358 359 359 362 360 357 355 354 355 361 361 358 356 350 346 342
321 325 324 327 328 332 343 344 345 342 338 335 335 340 348 348 341 349 354 352 350 350 357 357 356 357 358 358 361 360 356 359 357 352 353 355 358 360 355 352 348 344 342
323 325 325 326 328 329 331 334 340 343 341 335 334 339 346 349 349 347 347 350 354 357 357 358 359 358 360 359 359 358 355 355 352 353 354 354 356 355 350 348 346 344 341
322 323 326 327 327 327 329 330 333 335 337 339 340 341 340 340 342 338 341 346 351 353 355 358 359 361 361 360 358 356 355 355 354 352 352 353 352 349 347 346 345 342 341
317 319 321 323 326 329 330 330 331 332 332 333 334 337 341 342 343 345 346 342 348 350 354 356 356 356 356 356 353 351 351 352 352 350 348 347 347 346 344 343 342 340 339
316 318 320 321 321 322 330 331 331 332 336 338 338 338 339 340 341 341 336 332 336 347 350 351 351 351 351 350 349 349 348 346 346 346 345 345 344 343 340 341 340 338 336
313 314 316 318 319 321 323 325 329 331 332 333 333 334 334 335 336 333 333 335 337 341 343 344 345 347 348 348 347 346 345 345 344 343 341 340 340 338 336 336 336 335 335

GFSGL_850_thetae_078.txt.gz
Theta_e
349 347 335 327 327 327 339 343 348 350 348 349 352 350 349 347 351 349 345 353 354 350 347 357 355 353 349 351 353 353 352 351 349 349 349 349 348 345 347 349 348 350 352
351 350 347 336 328 327 329 341 346 348 348 346 348 352 349 344 344 344 345 347 353 354 351 350 356 355 349 346 347 351 353 353 353 351 350 351 354 353 348 350 351 351 351
355 354 352 348 340 332 329 330 346 339 345 344 342 340 344 343 341 342 341 341 348 350 350 351 350 349 352 354 355 359 359 359 359 358 358 357 350 350 350 351 353 355 352
357 357 355 353 350 341 336 332 333 344 336 337 338 338 340 341 341 340 340 340 342 349 354 352 352 353 352 352 352 352 352 350 349 349 350 354 353 353 350 353 351 349 345
355 356 356 355 353 353 350 345 339 338 339 334 334 336 338 340 340 340 340 343 341 342 349 350 351 351 354 354 355 355 355 357 360 360 360 357 351 345 343 344 343 343 341
354 355 355 357 356 354 354 354 352 344 343 341 338 336 337 339 339 343 345 341 339 341 340 341 346 352 353 351 348 345 342 344 343 343 341 339 336 336 336 338 343 350 354
355 355 356 355 356 357 356 355 355 352 347 346 343 337 335 338 339 344 348 346 344 341 340 338 336 333 336 340 340 341 340 338 338 337 336 332 333 336 343 343 351 355 355
357 357 356 356 355 357 357 356 356 356 354 349 345 339 336 337 337 339 344 348 347 344 341 338 336 332 331 340 342 338 331 330 329 332 336 337 341 341 346 350 352 355 358
356 358 358 356 355 356 358 356 355 357 357 353 342 337 337 338 339 339 341 344 346 344 339 337 337 333 328 329 332 332 330 331 331 334 335 337 343 349 351 353 356 359 358
357 357 359 359 356 356 355 354 354 356 355 352 344 339 341 342 342 342 342 344 344 343 340 336 333 330 329 330 333 333 332 328 330 331 334 337 342 347 352 356 360 360 360
362 358 359 360 359 357 358 358 356 356 357 354 353 350 348 345 345 344 342 343 343 342 340 337 331 327 328 332 340 343 342 345 346 347 346 344 348 360 361 358 360 360 360
354 360 359 360 361 360 360 360 359 358 358 360 358 357 355 351 347 345 344 343 343 343 341 339 338 339 342 344 344 346 350 352 354 355 354 353 353 355 359 357 361 358 359
353 359 360 361 361 362 361 361 361 360 360 359 360 358 357 362 356 350 344 344 342 341 338 338 338 342 346 348 349 352 355 356 357 358 357 356 356 359 358 360 360 359 358
359 359 359 361 362 362 361 362 361 361 361 363 361 361 361 357 358 359 353 351 347 342 340 336 335 337 338 338 341 347 352 356 358 358 358 357 361 360 360 360 361 361 357
363 360 362 362 362 362 361 363 362 362 362 361 360 358 360 360 355 352 356 355 357 358 357 354 349 345 344 344 345 349 352 355 357 360 360 361 361 360 360 360 362 360 356
360 361 361 361 361 360 361 360 364 361 362 361 358 361 359 356 357 357 357 357 359 360 363 363 359 355 351 351 352 355 358 361 362 362 361 361 362 362 361 360 356 359 358
354 357 358 360 361 361 360 360 362 362 361 359 361 358 357 358 357 358 359 359 360 362 362 363 363 360 358 359 360 363 363 359 350 352 357 360 359 359 359 355 355 356 358
342 353 355 357 359 361 359 361 361 360 360 360 358 357 356 356 358 359 359 360 361 361 361 362 363 363 362 362 362 362 359 359 362 362 360 356 356 356 354 354 356 355 357
334 331 348 352 350 357 361 362 360 362 360 359 358 358 357 358 358 358 358 359 359 360 360 361 359 358 358 361 360 357 357 357 362 362 361 358 357 356 356 353 357 357 357
325 334 331 345 348 355 352 358 357 359 361 361 359 358 356 355 352 351 350 348 349 352 354 355 359 363 363 362 361 359 361 363 362 360 359 359 356 355 351 353 357 359 355
322 325 330 329 334 343 346 348 347 344 345 344 352 352 349 349 349 345 348 349 347 347 348 348 346 351 357 358 358 358 360 359 358 357 356 355 352 352 351 352 357 356 354
324 325 324 328 330 332 332 335 342 344 346 343 341 338 339 347 351 352 349 345 354 357 358 358 357 355 358 357 356 358 357 356 357 357 353 353 351 352 352 352 354 353 351
320 324 327 328 329 330 330 333 335 335 336 336 339 343 345 339 336 336 338 338 341 348 354 353 356 357 357 357 357 357 355 355 357 356 354 354 351 351 353 354 352 349 348
318 322 325 327 329 330 333 333 333 332 333 334 336 339 342 344 345 344 344 342 345 346 351 355 355 354 354 353 355 356 358 356 355 354 354 354 352 350 349 348 348 347 346
315 317 319 320 323 328 328 330 331 332 333 334 335 336 338 339 339 341 342 342 342 338 329 339 350 350 350 351 351 351 351 352 351 350 351 349 347 346 346 346 345 344 342
310 311 313 316 318 321 322 325 326 328 329 329 331 330 330 331 333 334 334 335 337 334 331 334 342 342 343 344 344 346 349 348 349 347 347 346 344 344 344 344 343 341 340

GFSGL_850_thetae_081.txt.gz
Theta_e
346 345 331 333 329 334 346 347 347 345 346 348 350 348 347 346 333 335 342 345 347 348 346 345 350 348 343 350 352 352 351 351 351 351 350 347 349 347 345 348 349 350 352
347 346 346 329 328 326 332 345 342 348 345 352 351 350 349 348 336 334 337 338 350 354 353 351 352 354 353 344 350 351 352 353 353 352 351 354 351 345 350 352 354 355 354
348 347 347 347 333 326 326 327 338 337 346 349 350 350 351 349 338 333 331 333 339 351 351 353 347 350 353 348 348 351 348 350 352 356 355 350 346 351 354 351 353 348 344
350 349 349 349 348 343 328 327 328 332 341 345 345 344 346 344 339 338 335 331 332 340 345 346 348 346 346 348 348 349 350 351 351 350 349 353 352 352 353 347 335 334 334
352 352 352 351 350 349 346 335 328 329 330 336 340 339 337 339 337 338 338 335 332 331 336 341 343 347 347 348 351 350 352 351 351 353 350 349 341 338 335 334 335 339 339
355 354 354 354 354 352 350 347 339 331 330 331 335 339 339 336 335 335 338 339 336 333 331 332 336 342 343 348 350 350 350 352 351 348 343 339 333 332 334 340 341 344 350
356 355 355 355 355 354 352 352 348 341 336 335 336 336 336 334 334 334 336 338 339 338 336 332 331 332 332 334 338 342 342 343 344 343 342 333 336 333 341 340 343 349 351
356 356 355 354 354 354 354 353 352 351 347 345 343 341 340 337 336 335 336 340 340 341 342 341 338 334 330 331 331 334 337 338 335 336 339 338 338 336 339 342 348 350 353
357 354 355 355 355 354 354 354 353 354 353 352 352 350 347 343 341 337 336 339 343 344 341 341 342 339 333 334 336 335 333 332 332 334 335 336 336 336 339 343 348 355 357
358 359 355 356 356 355 355 354 354 354 353 354 353 353 352 348 345 338 335 339 341 342 342 341 340 336 335 337 339 338 337 329 332 336 339 340 341 341 343 348 355 358 359
358 361 361 358 357 357 356 355 354 354 354 354 354 354 353 348 343 337 337 341 342 343 343 341 339 336 336 337 337 336 334 338 344 347 350 349 347 348 350 354 360 359 359
355 357 362 359 360 358 358 356 355 355 355 354 354 355 354 348 341 338 339 342 343 346 343 339 337 337 339 339 338 339 344 346 346 347 351 353 353 354 355 354 359 359 360
354 354 354 362 359 360 360 358 357 356 356 356 356 356 356 352 347 343 342 344 346 349 346 344 343 344 346 347 348 348 348 349 350 351 353 354 356 358 357 359 359 359 360
354 357 359 359 361 360 361 361 358 358 358 358 358 357 357 356 354 348 345 346 347 350 350 350 349 349 348 345 343 342 342 340 341 345 351 356 358 358 359 359 360 359 359
353 362 363 360 362 360 360 361 362 361 360 359 359 359 360 360 353 348 346 345 345 347 347 351 354 349 345 341 338 337 339 341 344 347 350 355 360 359 358 360 360 359 359
349 351 359 361 361 360 357 360 362 362 361 360 359 360 360 360 358 352 352 349 346 351 355 356 359 360 360 359 356 351 348 347 349 354 357 358 357 356 358 360 362 357 356
341 347 351 357 359 361 360 358 359 361 363 362 361 361 360 359 359 356 358 358 355 354 354 359 360 361 361 361 354 354 355 357 357 359 359 354 354 355 358 355 353 355 354
333 338 341 346 353 358 359 361 360 358 359 365 362 363 362 359 360 360 356 355 357 358 357 359 360 360 361 360 358 358 361 362 362 361 356 361 360 356 356 355 351 351 350
324 331 335 340 346 351 356 359 361 361 358 357 363 360 360 362 359 358 357 358 359 359 359 359 360 360 360 359 360 358 358 360 359 355 354 360 360 357 355 354 352 347 351
322 325 333 334 335 346 350 355 357 360 358 360 359 359 358 356 356 357 357 357 357 358 359 359 358 359 360 361 361 361 361 360 358 359 359 359 357 357 359 358 352 348 351
324 325 326 330 331 333 341 345 348 353 357 359 358 357 354 353 356 355 353 350 350 350 351 352 352 353 357 359 359 362 362 359 359 358 358 358 356 356 355 354 352 348 349
322 324 326 326 329 331 333 339 340 343 345 348 350 343 345 348 351 350 349 348 351 353 355 352 353 356 357 358 357 358 361 360 360 359 356 355 355 354 351 350 351 349 348
321 323 326 328 328 330 333 332 335 337 338 341 343 344 347 350 349 347 345 341 345 346 347 347 346 347 355 358 358 356 357 357 355 357 356 355 354 352 352 350 349 350 352
316 320 323 326 328 329 331 332 332 333 333 336 340 339 342 340 339 337 338 339 340 342 345 348 349 349 348 352 352 352 353 352 352 355 354 353 351 350 352 351 348 347 348
315 316 318 320 324 326 326 327 329 331 333 333 334 335 337 340 339 342 340 340 340 340 340 340 338 342 346 349 350 346 344 350 350 349 350 350 350 350 352 349 347 347 346
311 312 314 316 317 318 321 321 322 324 327 328 330 330 330 332 332 334 330 338 334 331 337 333 332 332 331 336 338 340 342 344 343 344 346 345 347 347 347 344 347 346 344

GFSGL_850_thetae_084.txt.gz
Theta_e
345 344 344 335 330 336 344 348 350 351 349 346 349 348 349 347 346 335 338 340 343 345 346 345 340 335 346 346 348 351 351 351 351 350 350 347 347 349 345 350 352 354 353
347 346 345 342 330 329 340 345 347 350 349 347 348 349 349 347 346 338 331 337 339 343 345 346 343 348 345 342 345 349 351 351 351 351 350 347 349 343 351 353 353 351 342
346 347 346 345 338 329 328 342 346 346 347 346 346 347 349 347 347 338 331 330 334 338 347 351 349 346 347 350 346 343 346 347 348 351 350 348 340 346 345 349 350 340 334
348 347 347 347 345 339 326 326 342 345 346 349 348 349 348 348 347 347 339 333 330 333 336 344 346 349 347 345 345 343 345 347 348 350 348 345 340 335 340 342 335 336 338
349 348 348 348 347 347 344 327 325 334 344 342 344 350 350 349 348 346 342 336 334 331 332 334 338 339 341 345 345 345 347 348 349 348 345 340 336 337 339 338 341 341 342
351 350 349 348 348 348 347 347 338 325 326 334 335 342 348 349 346 341 338 337 336 335 332 330 331 335 338 342 342 343 345 348 348 348 346 344 340 339 338 342 341 344 346
353 352 351 350 350 350 350 349 349 346 332 327 327 329 336 338 337 336 337 337 336 336 335 333 331 330 331 333 335 339 342 345 346 347 347 342 343 337 341 340 340 343 346
354 356 356 354 352 352 352 352 351 349 348 340 331 328 330 330 331 335 336 336 336 335 336 336 335 333 333 333 333 333 332 331 332 338 342 337 338 337 341 342 342 344 346
345 349 353 356 354 353 354 354 353 352 348 347 342 336 333 332 333 335 338 337 336 335 334 336 337 336 334 337 339 336 333 330 331 333 335 336 338 340 342 342 341 346 351
344 340 346 354 354 353 354 354 354 353 352 349 347 346 343 342 342 343 343 343 342 339 335 335 336 336 336 337 340 340 339 330 334 333 336 343 346 347 348 349 350 351 357
342 338 340 343 356 356 355 354 354 354 354 353 352 350 349 348 347 347 347 347 346 343 336 335 334 335 336 337 338 339 338 336 338 340 344 346 347 349 351 354 355 355 360
345 348 340 348 355 357 356 355 355 355 355 354 354 354 352 350 347 347 346 347 342 341 336 334 337 338 339 340 342 341 342 342 343 345 345 345 346 349 353 356 357 355 356
344 349 350 350 351 355 357 356 357 356 356 355 355 355 354 353 350 344 340 338 336 338 338 338 340 343 344 345 344 344 344 345 346 346 346 347 346 347 355 357 357 358 357
341 348 353 354 356 357 360 360 358 358 357 356 356 356 355 355 353 349 343 340 339 343 342 344 346 349 350 350 350 350 349 348 349 349 346 341 343 352 356 357 356 356 355
331 344 349 356 357 356 360 359 360 359 359 359 358 357 356 356 355 353 348 343 341 340 342 348 353 352 353 352 351 349 347 347 345 342 341 342 346 351 354 355 356 356 357
323 336 346 351 359 359 362 361 361 361 360 360 360 360 359 358 357 357 357 355 352 352 355 357 356 356 353 354 356 356 355 354 351 348 347 345 350 355 356 356 357 357 356
320 325 337 345 350 359 363 363 361 360 361 362 362 362 361 360 360 359 359 358 357 359 359 358 357 357 355 356 359 360 358 352 352 353 353 354 357 356 360 358 357 355 351
317 323 328 336 343 349 355 359 359 358 357 359 361 361 360 360 361 361 361 361 361 360 361 359 356 354 354 357 359 360 358 355 357 358 359 360 361 358 359 355 354 352 350
317 320 324 331 334 341 347 352 356 358 360 359 357 356 358 361 361 360 362 362 359 358 357 357 356 357 356 357 358 360 360 360 361 361 362 362 359 359 361 357 355 355 353
317 321 324 329 332 335 342 347 349 352 355 357 355 354 355 358 358 357 359 362 356 357 356 356 356 357 355 355 356 358 360 360 360 361 360 357 356 356 355 354 355 358 358
319 322 324 327 330 332 335 340 344 348 351 352 354 356 357 356 358 355 355 352 354 355 354 353 353 353 353 353 353 358 359 361 361 361 360 358 357 357 356 355 354 351 351
319 322 324 325 328 330 333 337 339 342 347 351 353 354 356 355 352 353 352 348 347 350 350 350 352 353 353 353 352 353 357 357 359 359 358 356 358 356 356 354 351 351 348
318 320 323 325 327 329 332 334 336 338 342 346 349 350 347 344 343 345 343 339 334 347 352 353 353 351 351 351 352 356 356 354 355 356 353 354 354 353 354 350 348 351 351
314 317 320 324 327 327 330 332 333 331 333 336 335 339 344 343 341 341 342 345 346 346 346 346 348 348 347 345 345 345 349 351 351 350 350 349 350 350 349 350 349 350 349
312 315 318 322 323 323 325 329 331 331 331 332 335 331 333 335 337 336 334 335 336 337 336 337 338 341 344 345 345 345 344 347 346 346 343 346 348 346 345 347 349 344 345
308 311 314 317 318 319 319 322 322 324 326 328 330 329 331 329 333 334 334 334 334 337 339 333 331 332 332 328 331 331 335 336 338 340 339 343 342 343 343 344 346 345 345

GFSGL_850_thetae_087.txt.gz
Theta_e
344 345 343 342 335 330 337 344 346 347 346 347 347 346 347 347 347 346 342 342 338 339 339 339 338 339 339 343 347 347 350 351 351 349 348 346 343 345 341 348 350 349 347
345 345 344 344 343 335 328 338 345 346 346 347 348 347 348 348 349 347 346 338 343 342 343 346 344 343 336 339 344 345 346 349 350 349 346 340 343 341 346 342 339 343 335
344 345 345 344 344 344 332 326 341 345 348 348 350 349 347 347 349 349 347 341 336 339 341 344 344 346 343 345 347 346 345 344 345 347 346 344 340 339 335 334 335 335 337
346 345 345 345 345 345 344 329 325 339 345 347 347 347 346 346 347 347 347 341 334 332 334 336 344 350 348 343 344 345 345 344 345 347 345 344 337 336 339 340 337 337 339
347 347 347 346 346 346 345 344 327 326 338 345 346 347 348 347 346 347 348 347 346 340 336 332 331 335 340 342 342 341 344 346 347 347 343 337 334 335 338 341 344 342 338
349 348 348 347 347 347 347 345 345 331 324 333 344 344 346 348 346 347 347 346 345 342 338 338 335 331 330 334 337 340 344 344 343 345 345 342 337 338 338 342 343 346 344
346 348 349 349 348 349 349 347 346 346 341 326 326 337 342 342 339 342 347 347 344 339 338 337 336 336 334 331 331 332 335 338 340 342 340 334 336 338 340 339 342 345 342
350 350 350 351 350 350 350 349 348 347 347 347 339 326 325 328 337 333 339 344 342 336 335 335 334 334 335 335 335 333 331 331 331 334 335 332 334 336 340 342 343 344 342
346 350 352 354 354 354 352 352 350 349 349 348 349 348 342 330 326 326 327 332 334 333 335 335 333 333 333 335 340 340 338 333 334 335 336 337 339 340 342 345 346 348 349
343 346 348 348 348 344 351 351 351 351 352 352 351 349 348 346 341 333 329 328 332 334 336 337 333 332 331 334 337 338 339 331 335 335 338 339 339 340 345 348 350 352 353
342 341 340 339 341 342 339 349 351 351 351 352 353 352 348 346 345 342 337 335 335 337 340 340 337 332 329 331 334 337 337 337 340 341 340 338 337 341 345 347 349 352 355
338 343 343 340 340 342 339 343 349 350 352 352 352 353 353 352 350 347 346 345 344 345 345 342 339 335 330 332 336 339 341 344 343 342 341 336 335 338 344 348 349 351 356
325 338 342 346 344 341 337 339 348 352 352 352 353 353 354 354 353 352 350 348 348 349 347 344 338 333 333 336 340 343 346 347 347 344 342 337 337 343 345 342 350 355 356
322 326 336 344 347 340 338 337 347 351 352 353 354 354 354 354 355 354 353 352 350 347 347 345 341 340 340 342 343 345 348 348 349 348 345 341 344 344 342 346 353 356 353
319 322 324 336 345 340 335 336 347 349 352 351 354 355 356 356 356 356 355 355 353 349 345 346 347 345 344 345 347 349 349 350 349 348 348 345 344 344 342 346 355 355 353
319 320 323 325 338 345 348 350 348 353 354 353 354 356 358 357 356 357 357 357 357 356 355 354 352 350 350 349 352 351 349 353 356 356 355 352 348 347 347 345 355 353 353
318 318 320 324 328 337 344 351 354 353 353 357 358 357 359 359 358 360 359 358 359 359 359 356 356 354 353 353 352 352 355 356 358 359 354 355 352 349 349 355 357 357 355
318 317 317 322 323 331 338 343 349 352 352 355 356 355 354 355 361 361 361 360 359 359 359 359 356 357 357 354 351 353 354 357 359 356 355 356 357 356 358 357 358 354 354
316 316 317 318 321 327 334 339 344 348 352 351 353 355 355 354 355 359 361 361 360 359 358 360 359 357 357 357 356 356 355 357 360 360 360 361 361 361 360 356 358 358 355
316 316 317 318 321 326 331 335 339 344 348 351 353 353 353 359 357 357 357 357 359 359 359 360 358 357 356 356 356 355 356 358 358 360 360 360 359 358 354 355 354 353 353
316 316 318 321 324 324 329 332 336 341 344 346 348 350 350 353 356 355 355 358 358 356 356 356 356 355 353 352 352 353 354 354 354 357 358 358 358 359 357 357 355 353 351
315 316 319 321 323 326 328 331 334 337 340 343 344 346 351 354 355 356 355 355 356 355 355 353 353 354 352 351 351 351 352 352 352 353 356 355 354 357 358 355 354 352 350
313 315 318 320 322 324 327 329 332 335 337 340 343 345 347 350 351 352 353 354 355 353 350 350 349 349 349 351 352 352 352 352 351 351 353 355 354 353 352 353 355 352 347
312 313 315 318 320 324 323 328 328 329 333 335 337 338 339 341 339 341 341 344 343 342 342 343 345 345 342 343 347 349 350 351 351 351 352 351 350 350 350 349 347 351 350
312 313 314 316 319 322 323 325 326 326 326 331 333 332 330 334 331 334 336 337 338 339 340 341 341 341 339 341 340 340 340 342 345 346 346 346 346 346 344 346 349 347 346
308 310 312 314 315 317 321 322 321 321 322 325 327 328 327 328 328 328 328 332 334 333 334 334 333 334 334 333 331 335 331 329 337 339 335 335 336 337 338 343 344 343 344

GFSGL_850_thetae_090.txt.gz
Theta_e
342 343 343 342 340 334 332 332 339 342 343 346 346 347 348 345 345 346 345 341 341 341 341 339 341 342 341 342 340 343 346 347 349 349 348 346 340 344 339 342 337 335 335
343 343 343 343 343 341 333 330 331 339 344 347 346 346 347 347 348 348 348 347 343 343 339 341 340 343 344 343 340 343 345 346 346 346 344 343 342 342 338 334 333 335 339
344 343 343 343 343 343 343 336 329 332 340 345 346 346 347 348 348 348 348 349 347 338 339 342 343 345 344 345 345 345 346 348 349 345 342 342 342 339 332 332 333 333 336
344 345 344 343 344 344 343 343 341 329 331 341 344 344 346 349 348 347 346 348 346 342 334 335 337 341 345 349 349 345 345 346 345 345 345 344 341 334 335 335 330 331 333
345 345 345 345 344 344 344 343 343 343 330 329 343 343 343 345 345 345 345 347 346 347 345 342 337 333 333 336 343 343 343 342 343 344 344 340 334 333 334 336 337 335 332
346 346 346 347 346 346 345 344 344 344 344 333 327 338 343 342 342 343 343 345 346 347 346 344 341 340 339 336 334 334 337 340 340 341 339 338 333 332 332 336 337 338 338
344 347 347 347 347 347 347 347 346 346 345 345 337 326 333 340 340 339 341 344 343 344 344 344 340 338 338 338 339 339 335 334 335 337 336 333 331 332 336 337 339 339 340
347 346 345 346 346 348 348 348 348 347 347 347 345 344 331 326 332 337 335 337 338 335 336 339 339 336 335 335 335 338 336 334 332 335 335 333 334 336 340 342 339 342 345
344 346 348 349 348 347 348 349 349 349 349 348 347 346 346 345 336 325 328 334 335 334 328 329 330 330 332 333 334 335 336 333 334 337 337 337 338 339 342 341 339 346 348
338 341 342 342 345 349 351 351 351 352 350 351 350 349 348 348 347 347 343 331 326 325 326 326 327 329 332 333 333 333 334 330 333 336 335 337 339 338 340 341 344 346 348
327 334 339 341 340 341 343 344 340 341 348 349 350 351 351 351 350 350 349 348 346 338 331 329 330 331 333 336 336 335 331 331 334 337 337 336 336 336 337 338 345 347 347
320 322 329 336 338 340 340 341 340 340 341 345 348 350 350 351 352 352 349 347 346 346 340 336 334 336 338 340 341 338 333 334 338 340 340 337 335 334 336 339 345 347 345
319 320 321 330 332 343 343 340 338 337 337 340 349 349 350 349 351 352 353 352 349 347 346 343 342 341 342 344 342 338 334 336 340 343 342 339 338 338 338 340 345 345 343
320 319 320 323 326 333 342 343 341 339 337 339 349 350 350 350 351 353 353 353 353 352 350 347 345 347 347 345 342 336 335 337 341 343 343 343 342 342 340 342 343 343 349
319 320 318 320 321 327 335 343 342 339 337 338 343 349 350 351 351 353 354 354 355 354 353 352 347 344 343 340 337 333 335 340 344 345 345 346 345 344 343 344 346 347 347
319 318 318 318 320 322 328 338 343 340 336 340 345 349 351 351 352 353 353 354 355 355 355 355 352 348 343 340 338 337 339 343 345 348 347 352 355 354 350 346 347 348 346
318 318 317 318 319 321 324 327 338 342 343 345 347 349 349 352 352 352 354 355 355 355 355 355 355 352 349 346 345 344 345 346 349 349 355 356 357 357 355 355 353 351 348
318 317 317 317 318 319 322 324 331 338 343 339 347 351 351 350 351 349 352 358 357 357 357 357 356 356 355 353 352 352 352 351 350 354 355 357 356 354 354 352 349 350 353
318 317 316 316 317 317 320 323 327 334 341 335 345 347 348 349 349 349 349 351 355 356 355 356 355 356 355 356 356 357 358 358 357 356 355 358 357 358 359 358 357 358 357
316 315 315 315 316 317 318 320 325 330 335 341 343 347 346 346 342 344 348 351 352 355 356 356 357 356 355 358 358 355 356 356 355 355 355 358 357 356 359 359 359 357 356
315 314 315 315 316 320 320 320 323 329 333 337 341 345 346 347 344 341 347 347 350 353 354 356 357 357 359 359 356 356 355 355 355 355 354 355 354 354 354 354 353 354 356
313 313 313 314 316 319 320 321 325 328 332 335 337 340 343 344 347 348 348 348 348 349 353 355 354 353 354 356 354 353 352 351 352 353 353 353 352 352 352 351 351 352 351
312 313 313 313 316 318 321 322 324 329 332 334 336 338 341 343 343 346 350 351 351 352 352 351 351 349 351 352 352 350 350 350 349 351 351 350 350 350 349 349 348 349 348
311 312 313 313 314 317 319 322 323 327 330 333 335 337 338 341 343 346 347 346 347 344 341 343 342 342 344 344 344 342 342 343 345 347 348 347 348 349 348 347 347 347 347
307 309 311 312 312 315 318 320 322 323 328 331 331 330 329 331 334 339 339 337 334 335 335 338 340 340 339 339 339 339 339 340 341 340 339 340 341 343 345 345 344 345 346
306 307 309 310 312 314 316 316 318 316 318 322 322 323 323 321 324 328 328 326 328 330 329 331 332 332 332 332 332 332 333 333 334 333 335 331 330 335 334 334 336 337 339

GFSGL_850_thetae_093.txt.gz
Theta_e
342 342 343 343 343 341 338 336 340 337 341 344 344 346 346 345 342 344 345 344 341 340 341 341 339 341 342 342 341 341 340 342 350 350 351 345 339 341 341 335 336 343 338
343 342 342 343 343 342 341 335 334 338 337 341 343 346 346 347 347 346 345 348 348 346 341 341 339 340 340 341 342 342 341 343 345 351 349 341 339 340 339 332 333 334 334
344 343 342 342 343 343 342 342 336 335 333 338 342 346 346 346 345 346 348 347 348 348 347 338 341 343 343 345 344 346 349 347 349 349 350 350 341 344 334 333 332 330 336
346 344 344 344 343 343 343 343 342 340 334 333 337 342 346 345 347 347 347 347 346 348 345 340 335 338 341 344 345 348 349 347 352 348 351 350 350 344 338 344 330 331 330
343 345 344 344 345 344 343 343 343 343 342 339 332 334 343 345 344 346 346 346 345 347 345 344 341 338 336 334 335 336 341 344 350 349 349 348 348 348 347 342 344 340 342
344 344 344 344 345 345 345 344 344 343 343 343 343 336 330 342 344 342 344 343 342 344 345 346 345 344 340 338 339 338 336 335 334 342 346 347 335 337 344 345 337 342 346
345 345 346 346 346 346 346 346 346 346 345 344 343 343 342 329 335 340 341 343 342 340 341 343 343 342 340 338 337 337 337 338 337 334 333 332 330 331 335 336 340 341 340
343 345 344 345 347 348 347 347 347 347 347 347 345 345 344 344 332 326 333 342 343 341 340 338 335 335 337 336 335 334 334 334 335 336 334 330 332 335 339 340 340 339 336
332 340 343 345 345 346 348 347 347 348 348 347 347 347 346 346 345 340 328 328 335 339 337 336 337 335 330 330 333 331 333 330 331 334 335 333 335 336 341 342 341 349 348
320 321 328 340 343 346 347 348 349 349 348 349 348 348 348 347 347 346 346 344 336 329 327 328 330 330 329 327 328 329 332 329 330 332 332 334 334 335 338 338 339 343 348
319 320 320 325 334 340 344 347 347 348 348 347 348 349 349 348 348 347 347 347 347 347 346 341 332 328 327 326 327 328 331 333 334 334 331 331 332 333 334 335 336 340 342
320 319 320 320 321 328 338 342 342 343 341 341 345 345 348 349 350 350 350 350 349 349 349 349 347 343 337 334 332 331 332 337 339 339 335 332 332 333 336 337 337 339 341
320 320 319 318 320 321 325 331 341 340 341 340 344 343 339 345 348 349 350 351 351 351 347 345 345 344 343 339 336 336 338 342 342 340 336 334 334 337 339 340 339 340 339
316 320 320 319 318 319 322 321 324 338 342 341 340 344 339 341 348 348 348 349 351 352 352 351 347 344 345 344 343 341 344 344 343 341 336 338 342 341 341 343 344 346 347
312 316 319 319 318 318 319 323 321 325 340 340 343 346 347 342 344 349 349 349 351 353 353 353 352 351 348 348 346 344 346 343 343 339 335 336 340 345 344 346 346 347 352
312 315 318 319 319 317 318 319 320 321 329 341 342 341 339 338 343 349 350 350 351 352 353 354 354 353 352 351 347 343 341 341 342 336 335 338 345 348 351 351 353 353 353
311 316 318 318 318 317 316 318 318 318 322 331 340 343 342 338 344 349 350 351 352 353 353 354 355 354 354 354 353 349 343 341 338 337 341 344 348 350 351 356 357 357 356
309 314 317 318 318 317 317 317 317 318 319 324 334 341 340 343 344 345 348 349 351 352 353 354 355 355 356 356 355 354 350 349 351 349 349 350 351 353 356 357 356 353 353
309 313 316 317 317 316 316 316 317 318 320 322 328 338 338 341 344 345 346 348 348 348 350 351 355 354 354 355 356 356 356 355 356 356 355 355 353 355 355 358 356 357 353
310 313 315 316 316 316 316 316 318 319 320 322 328 334 339 339 341 344 346 346 347 347 348 350 350 352 355 354 353 354 356 359 358 358 358 357 356 355 355 358 357 358 359
311 312 315 315 313 314 315 316 317 319 320 321 327 332 337 338 341 341 343 341 338 340 339 341 345 348 350 352 355 356 353 355 359 357 356 355 355 355 355 356 355 354 355
311 312 313 314 313 313 313 315 316 319 320 323 327 331 334 337 340 341 341 342 340 335 334 337 344 345 347 349 351 353 355 355 355 355 354 355 354 355 355 354 354 352 352
309 311 311 312 312 313 313 314 316 319 320 323 326 330 332 335 339 340 340 344 345 343 340 341 346 347 348 348 349 349 348 350 350 350 350 351 350 350 350 350 350 350 351
305 306 308 310 312 313 313 313 316 319 320 321 325 326 329 333 336 338 340 342 345 344 342 341 343 343 342 342 342 342 343 344 343 343 342 342 341 344 345 346 346 346 349
304 305 306 308 311 312 312 312 315 318 319 320 322 321 324 328 330 333 333 333 334 333 332 331 333 334 334 339 339 337 338 340 341 342 341 340 342 343 342 343 343 345 345
302 303 305 306 307 309 310 312 315 316 317 317 317 315 316 318 320 325 325 323 325 327 329 327 327 328 330 330 331 330 330 331 332 333 333 333 333 333 332 332 332 334 336

GFSGL_850_thetae_096.txt.gz
Theta_e
350 351 343 342 344 344 343 344 347 351 347 350 347 352 353 351 346 342 348 351 348 350 350 350 345 347 348 349 350 350 350 349 349 347 350 352 350 352 342 344 350 349 347
352 352 352 343 343 346 345 346 343 347 345 342 345 345 351 354 351 342 344 351 352 353 352 351 351 349 347 345 349 350 349 351 350 351 351 352 352 353 355 344 350 346 349
351 351 352 349 343 343 344 344 344 340 340 346 347 347 352 349 351 349 346 351 353 353 354 353 351 351 352 349 352 351 350 352 351 351 351 351 352 352 353 351 351 346 345
349 351 350 350 349 344 343 343 345 343 341 337 341 347 348 351 349 352 354 354 354 352 354 353 351 350 351 352 353 354 353 353 352 353 352 351 349 349 350 349 345 344 345
349 350 351 351 348 346 347 344 343 348 344 343 340 337 340 348 351 353 354 354 354 353 353 353 350 346 342 342 348 348 350 352 351 349 348 346 346 347 347 347 345 345 346
344 345 348 350 349 353 350 352 350 350 346 343 343 343 342 342 343 348 349 353 354 354 354 351 345 344 344 340 338 337 338 340 343 344 342 342 345 347 346 346 347 347 347
343 344 345 346 348 348 351 352 351 351 351 351 347 345 344 343 341 340 343 345 351 353 354 354 353 349 346 340 338 337 337 336 336 336 338 337 335 343 348 349 350 347 348
333 341 344 344 344 347 349 349 349 350 352 351 351 351 349 347 344 343 334 333 343 347 352 353 352 351 350 352 343 350 347 345 343 338 333 332 332 335 338 344 349 341 346
324 324 332 340 342 343 344 346 350 350 349 350 352 351 351 350 346 345 344 342 340 336 344 344 349 347 338 334 335 343 349 347 344 344 336 331 331 332 336 340 346 346 344
325 320 321 323 337 342 343 344 344 346 347 348 349 352 352 350 349 346 346 345 346 341 338 334 331 333 332 332 333 336 341 338 344 346 347 337 330 331 333 335 335 346 344
324 322 320 320 321 325 338 340 342 346 349 349 349 349 350 351 350 348 347 347 348 349 346 341 341 339 327 326 326 329 329 332 338 340 346 347 347 348 349 346 335 334 345
314 322 323 319 319 321 322 326 332 341 343 345 347 348 347 349 350 349 349 349 348 348 349 350 349 348 346 341 339 334 330 328 335 340 342 344 345 344 343 346 350 344 338
311 313 322 324 321 319 319 321 324 323 339 341 343 344 345 346 346 350 350 350 350 349 349 351 352 352 351 351 350 347 345 344 338 342 342 344 345 345 344 346 350 349 341
310 312 318 322 324 322 319 319 320 323 322 335 340 341 344 345 346 349 351 350 349 350 351 351 351 351 351 351 350 346 345 345 345 346 347 347 347 346 346 349 351 351 353
312 314 317 319 321 324 323 320 320 319 322 320 324 338 342 342 345 349 350 352 354 350 350 350 351 352 352 353 351 351 351 350 347 350 351 351 350 348 347 348 350 351 351
311 313 315 317 319 320 322 323 321 319 319 319 319 325 336 340 341 340 345 346 347 352 352 350 353 354 355 355 355 353 351 351 352 353 352 352 351 349 347 346 349 351 352
311 312 315 316 317 319 320 322 322 322 319 318 317 318 328 337 341 341 342 339 341 351 353 351 353 354 356 357 357 355 357 354 353 352 350 350 350 347 346 348 350 352 353
310 311 312 315 315 317 318 320 321 322 321 321 325 324 320 329 339 341 342 341 341 347 350 352 353 354 355 357 357 357 359 355 357 355 351 350 349 349 350 351 351 354 356
310 311 312 314 315 316 317 318 319 321 323 324 323 318 320 322 333 339 342 344 343 342 345 348 350 352 353 354 354 355 356 355 356 355 356 355 356 354 352 353 356 355 357
309 310 311 313 313 315 316 317 318 320 322 323 323 320 318 320 328 337 340 340 343 345 346 347 347 348 349 350 353 355 355 354 354 355 357 358 356 355 357 358 357 356 359
308 309 310 311 313 314 315 316 318 319 320 321 321 320 318 320 326 334 339 341 341 345 346 346 345 340 340 346 349 350 351 354 354 354 354 353 355 357 359 359 362 359 359
306 306 309 312 313 314 315 316 315 317 318 318 318 318 318 320 327 331 336 339 341 341 341 339 339 339 337 337 340 344 343 349 352 353 354 353 354 356 357 357 355 356 355
303 305 308 310 311 313 313 312 313 314 315 315 317 318 319 322 327 329 334 336 339 341 341 341 339 337 338 338 339 340 344 346 347 348 348 348 351 352 351 351 352 352 351
302 304 305 306 308 310 312 310 311 313 314 315 317 319 320 322 326 327 332 332 336 338 338 337 335 335 340 342 342 343 344 344 345 345 345 345 346 346 345 344 344 344 346
298 299 300 301 303 304 305 307 308 311 313 314 316 318 320 322 324 325 329 327 326 332 333 335 338 339 338 339 342 344 344 343 342 339 339 340 341 341 341 341 342 343 343
296 297 299 300 302 304 305 306 307 309 311 313 314 315 317 320 320 319 321 323 321 323 325 329 331 330 329 328 332 334 335 334 333 332 333 332 332 332 331 330 331 330 332

GFSGL_850_thetae_099.txt.gz
Theta_e
357 357 356 356 356 356 354 352 351 350 352 355 355 353 353 352 352 352 350 354 355 352 349 354 354 352 352 349 349 349 350 350 350 350 351 350 352 354 353 353 353 348 347
355 354 356 357 356 356 356 354 353 351 352 351 355 354 355 353 352 352 351 349 352 352 351 351 352 351 351 345 349 349 349 351 351 349 350 354 352 353 352 355 353 351 345
355 356 356 357 357 355 355 355 354 352 351 352 352 354 355 354 356 353 353 353 354 354 353 352 352 352 353 351 352 351 351 354 355 354 353 352 353 352 352 351 351 347 346
351 352 354 355 356 355 355 355 355 354 352 350 350 351 352 354 355 354 354 352 353 353 354 354 351 351 351 352 353 351 352 352 352 354 354 353 351 348 349 350 347 345 345
350 351 351 351 354 356 355 355 354 354 354 353 350 350 350 351 351 351 352 352 352 352 352 354 352 350 350 349 349 350 352 352 352 351 350 349 346 348 351 345 348 346 345
343 349 350 351 352 352 351 354 354 354 354 355 355 353 351 348 342 346 352 353 352 353 353 354 351 353 350 340 337 333 337 339 337 345 344 343 342 344 346 347 350 345 349
343 344 344 345 350 351 352 352 354 354 353 353 354 355 354 351 348 342 342 346 352 353 352 353 353 349 350 347 341 340 336 335 334 335 335 335 333 333 339 335 346 350 349
328 332 340 343 344 346 349 350 351 352 352 352 353 353 354 354 352 350 344 339 342 345 349 353 353 351 350 355 353 354 350 340 335 338 339 335 335 332 336 344 349 346 350
331 330 326 330 340 342 343 345 348 349 350 350 350 352 352 354 354 353 350 348 346 341 332 334 347 352 352 345 351 354 354 350 348 348 346 343 344 344 340 339 345 347 344
327 329 330 328 322 328 339 341 342 343 345 350 350 350 351 351 353 354 353 352 351 349 349 343 329 331 336 341 343 345 343 334 335 341 343 344 343 345 344 342 336 342 345
320 317 325 330 327 325 322 328 338 341 342 344 345 346 349 351 351 352 353 354 352 352 351 350 347 341 336 333 333 336 332 334 337 342 343 343 343 345 348 350 349 347 345
314 313 312 316 327 329 325 320 321 326 336 341 342 343 348 349 350 350 351 352 352 351 352 352 351 349 346 344 342 343 342 340 338 342 343 342 341 340 343 345 346 345 347
314 313 313 313 315 322 327 322 321 322 325 333 338 341 344 348 348 347 351 352 351 350 349 350 351 351 351 352 351 350 350 349 349 348 347 343 342 340 341 343 345 345 347
314 315 316 317 320 322 323 326 328 326 323 323 330 332 340 343 347 348 347 348 347 351 349 350 349 350 350 350 353 353 352 352 351 350 349 348 346 343 344 346 347 346 347
314 314 315 316 318 321 322 323 327 328 325 323 320 321 324 332 341 345 347 348 349 351 352 353 351 351 350 350 351 352 353 353 350 349 350 350 348 347 348 348 347 346 347
313 314 314 314 316 318 321 322 322 324 324 324 321 319 320 319 319 323 337 343 345 348 349 349 349 351 352 353 353 353 355 354 353 353 353 351 350 350 351 351 350 348 347
313 313 314 313 314 316 319 320 321 322 323 324 324 322 319 318 317 319 328 335 340 340 341 343 343 345 350 352 354 356 356 354 354 353 352 353 353 353 352 351 350 350 347
314 313 313 312 313 315 317 319 320 321 322 323 326 326 325 322 320 319 319 328 336 340 341 340 339 340 347 351 352 355 357 358 357 355 354 355 353 350 349 350 349 347 348
311 311 312 313 314 314 315 317 318 320 321 320 322 326 327 327 323 317 318 322 334 339 342 341 341 345 346 341 346 353 355 356 356 356 357 356 356 355 350 349 349 349 349
307 308 308 310 312 313 315 315 316 318 320 320 321 323 326 326 324 317 319 319 329 338 340 342 345 346 344 346 342 351 355 355 354 354 354 354 354 354 355 356 356 356 353
306 305 307 308 310 312 313 313 314 317 318 320 321 322 322 322 319 317 317 319 322 333 339 343 345 348 347 348 347 344 348 350 353 355 355 354 354 354 355 354 354 354 354
304 304 304 307 308 309 312 313 315 316 317 318 319 321 321 320 320 317 318 319 321 326 336 340 341 340 341 342 340 339 340 342 344 347 350 351 352 353 354 353 352 352 352
301 302 303 305 306 308 309 311 312 315 316 317 319 320 319 319 317 318 318 319 323 327 333 338 340 340 340 337 338 338 336 337 338 340 340 341 347 350 350 350 350 353 352
299 300 301 302 304 305 307 309 312 313 313 313 313 313 313 315 317 318 319 320 323 326 332 336 337 339 341 340 340 339 339 338 339 338 339 339 342 343 342 344 346 347 346
297 298 298 299 300 301 303 305 307 308 309 310 311 311 311 313 315 318 319 321 324 327 331 332 332 335 334 337 336 335 337 339 339 340 342 342 340 340 339 338 340 342 342
295 295 296 297 297 298 299 301 303 305 306 307 308 309 310 311 314 315 317 320 322 323 326 324 324 327 326 328 333 332 333 335 337 337 337 335 332 331 334 331 333 336 334

GFSGL_850_thetae_102.txt.gz
Theta_e
354 357 355 349 345 344 345 341 344 345 352 346 345 351 349 348 351 346 349 353 349 343 352 350 353 350 345 351 351 351 350 350 352 352 351 350 344 352 353 352 349 351 350
353 354 355 356 356 352 346 348 344 334 348 352 351 352 353 351 348 345 342 354 350 350 346 346 349 348 349 344 342 350 352 351 346 348 353 354 354 351 352 351 350 350 346
353 355 354 356 355 356 355 351 352 347 336 342 341 350 348 351 351 350 349 340 350 351 350 352 351 351 349 349 352 353 352 354 355 357 356 351 353 353 350 348 350 347 346
347 351 353 354 353 353 354 354 353 352 350 344 345 348 347 350 349 349 354 351 344 350 354 353 351 351 352 351 349 348 348 347 347 349 349 354 352 350 349 352 350 344 348
348 349 352 352 352 352 353 353 354 354 352 350 348 346 345 345 351 350 350 350 353 350 346 351 354 349 349 350 350 349 351 352 353 352 352 351 348 345 346 345 347 348 345
343 347 349 350 351 351 351 352 352 353 355 352 352 349 347 346 348 346 351 352 350 352 351 350 349 350 348 352 351 339 335 349 352 349 335 332 334 341 339 338 334 333 337
340 342 344 345 348 349 350 351 352 353 351 353 353 354 353 350 348 347 343 345 347 352 352 351 350 353 353 352 350 349 346 340 336 334 334 333 331 331 333 333 332 334 334
332 332 335 341 343 344 348 352 353 353 353 352 353 353 353 354 354 352 349 344 341 340 340 348 352 351 349 349 354 356 355 353 349 342 339 340 342 339 342 344 341 337 332
330 329 331 329 327 340 342 344 349 350 350 352 351 352 352 353 353 354 355 353 351 347 343 341 338 338 347 348 345 347 352 355 356 353 347 347 347 347 346 346 344 344 335
323 320 323 328 328 323 324 329 338 341 343 345 348 350 350 350 350 352 352 354 354 353 352 349 346 345 345 335 343 350 345 334 339 344 345 338 337 337 341 347 339 342 346
319 318 316 314 316 330 331 324 323 325 334 340 341 341 345 347 349 349 351 352 352 352 353 352 352 352 350 349 348 339 333 330 331 332 335 337 338 335 336 336 338 345 347
313 313 313 315 315 315 319 321 323 323 322 323 329 336 340 342 344 347 348 349 351 352 352 351 351 353 354 353 350 348 345 342 341 341 342 345 347 344 342 343 343 343 345
312 310 310 310 311 314 317 320 322 327 329 327 324 331 333 336 342 347 349 348 347 349 349 350 351 350 350 351 352 352 351 348 344 342 344 347 348 348 347 344 341 337 341
310 312 315 314 312 312 315 319 323 326 329 329 327 324 322 327 331 341 345 347 348 347 349 350 349 349 349 349 349 350 351 351 352 351 350 351 351 351 351 349 346 340 340
309 311 311 314 315 315 315 317 319 321 324 328 328 326 324 322 321 322 327 341 344 345 346 346 346 346 345 347 348 347 349 350 350 351 351 351 352 351 352 351 347 345 347
310 312 314 314 314 315 315 316 318 321 322 322 322 322 322 323 322 321 321 322 319 324 335 341 345 346 348 350 351 353 354 353 352 353 351 351 352 351 350 352 351 350 350
310 311 314 315 315 315 315 316 317 318 319 322 322 322 323 324 325 324 321 320 320 318 319 325 334 339 341 343 345 343 343 350 353 355 354 354 354 353 352 351 350 349 349
308 310 312 313 313 315 314 314 314 316 319 320 321 322 323 324 323 326 326 325 321 319 319 321 329 338 340 341 340 339 338 338 346 351 351 353 354 352 354 355 355 353 353
307 308 308 310 311 312 313 315 315 316 317 318 320 322 321 321 323 326 327 326 323 318 318 319 321 335 340 346 345 345 345 342 343 343 347 345 346 345 351 351 353 350 347
306 306 306 307 308 309 310 312 314 315 317 317 318 319 320 321 323 327 328 326 322 315 316 317 319 323 338 341 347 347 344 344 344 343 343 343 340 351 351 352 352 353 352
304 304 304 305 306 308 309 310 311 313 314 314 315 316 320 321 322 322 323 322 321 315 317 318 319 322 331 339 344 339 337 346 345 344 344 338 336 350 352 351 351 350 350
301 301 302 303 304 305 307 309 309 311 312 314 315 316 319 320 320 320 321 321 319 317 318 319 320 323 327 333 338 341 340 340 340 340 344 347 347 346 349 352 353 353 353
300 300 300 301 301 302 304 305 307 308 309 311 312 315 316 318 319 320 319 320 316 317 318 319 321 323 328 332 335 338 339 339 339 339 337 338 339 341 342 345 347 350 351
298 298 297 298 299 300 301 303 304 305 307 309 311 313 314 314 314 315 318 317 315 316 318 319 321 323 326 331 334 336 338 339 338 338 339 338 337 338 339 339 339 342 343
298 297 295 295 296 297 297 298 300 301 303 306 307 308 309 311 311 313 313 313 313 313 316 317 319 322 325 328 330 334 335 336 337 338 336 338 339 339 340 340 339 340 341
299 297 296 295 294 295 296 296 297 299 302 303 304 305 305 306 306 307 307 309 310 311 313 316 317 319 319 322 325 330 331 331 331 332 335 337 337 335 336 335 336 334 336

GFSGL_850_thetae_105.txt.gz
Theta_e
347 344 342 342 342 344 343 348 351 348 348 343 346 344 346 350 348 345 346 347 348 342 345 343 341 345 341 347 350 350 351 351 352 351 351 349 345 348 351 352 349 350 346
348 347 347 344 343 342 342 344 347 349 347 349 346 349 349 348 344 342 343 349 352 349 347 346 350 350 347 339 345 349 347 351 348 349 350 351 347 352 353 353 352 347 346
335 344 348 349 348 345 343 343 344 345 340 348 352 350 345 347 351 347 345 344 350 348 350 348 348 348 348 347 343 343 344 347 349 352 352 352 351 353 352 351 351 349 343
337 346 348 348 350 348 349 350 348 348 346 337 340 339 347 348 347 347 348 349 347 346 350 352 353 350 349 347 349 348 344 344 348 349 347 348 352 349 347 344 345 344 341
337 339 346 348 348 349 350 351 353 354 353 350 344 340 340 339 341 347 345 347 346 348 348 345 350 351 351 351 351 350 348 341 349 349 351 350 350 349 346 342 337 332 327
343 346 344 341 341 349 349 350 353 353 352 352 352 349 346 346 346 341 342 349 352 350 348 349 350 346 349 352 349 345 342 341 333 336 338 338 330 329 330 331 333 332 330
337 340 342 345 347 347 348 348 348 351 352 352 353 352 351 350 349 347 347 347 347 349 351 352 351 350 348 348 352 355 353 350 349 347 347 341 334 332 339 340 340 340 336
332 333 331 330 340 342 344 348 348 348 349 349 352 352 353 353 353 350 348 349 347 345 345 345 346 347 348 347 349 350 349 349 351 352 350 347 342 337 344 347 347 341 333
325 328 329 327 326 328 336 340 344 348 350 349 351 351 351 352 352 352 351 348 348 348 345 344 342 341 340 340 340 339 344 345 344 345 343 341 338 340 341 345 341 341 334
319 317 316 318 324 327 326 325 325 333 339 341 342 344 348 350 350 351 350 350 351 353 351 351 350 349 348 347 346 345 345 340 335 333 332 332 333 336 338 338 336 337 335
315 315 316 316 315 317 322 323 320 322 322 323 328 338 341 340 342 345 347 348 348 348 349 349 351 352 352 351 351 352 351 350 349 345 341 339 339 340 340 340 339 342 341
309 309 309 311 312 314 315 316 316 317 319 323 324 323 328 335 337 340 342 346 347 347 348 349 350 351 351 352 354 353 352 351 351 351 349 345 342 341 344 347 347 347 345
308 308 307 308 308 309 310 312 315 317 321 325 328 328 326 324 328 329 340 343 346 347 347 347 349 350 350 349 349 351 352 352 352 351 349 347 347 346 346 347 349 349 350
304 304 305 306 308 311 312 313 314 318 322 325 328 330 328 323 323 323 321 324 333 341 345 346 346 346 346 349 349 347 346 348 349 349 350 351 351 351 351 351 351 351 350
305 305 306 307 310 312 312 313 315 316 319 321 322 323 322 322 321 321 322 323 321 322 324 327 329 336 338 345 345 346 346 346 345 346 348 348 348 349 349 349 350 350 351
306 306 307 309 310 311 312 313 311 312 316 318 319 321 321 321 322 322 324 325 325 323 321 321 321 319 318 320 329 337 342 345 348 347 347 348 351 352 351 351 351 352 351
305 306 307 309 311 312 313 314 315 313 311 314 318 321 321 322 322 323 324 324 324 326 326 324 321 319 320 321 328 338 340 341 341 341 341 340 342 347 352 352 349 348 348
304 304 306 307 308 311 311 311 313 314 315 314 316 316 317 319 322 322 322 322 322 325 327 326 321 320 319 320 328 337 343 345 344 344 344 344 342 345 346 347 347 345 346
304 303 304 304 305 306 307 308 309 309 312 314 314 316 317 317 319 320 321 321 322 326 327 326 321 316 317 318 321 323 337 339 344 346 344 344 343 345 343 343 343 341 338
303 303 303 303 303 304 303 306 308 309 310 310 313 314 315 316 318 319 321 323 326 327 327 324 322 322 315 317 319 323 329 334 340 342 340 344 347 344 345 341 341 340 339
299 299 300 301 301 302 303 304 305 307 308 309 310 312 313 315 316 317 318 322 327 325 323 321 321 320 316 316 319 321 326 329 337 340 340 341 344 345 344 343 343 339 342
299 299 299 299 299 300 300 301 302 303 305 307 308 309 310 312 314 316 317 320 322 322 321 320 320 316 315 317 318 320 324 326 328 336 338 339 339 338 340 341 341 342 343
299 299 298 297 297 297 298 299 300 300 301 304 305 306 308 309 309 313 315 316 318 318 318 319 319 317 316 316 317 319 321 326 328 332 335 337 338 338 338 337 338 340 341
299 299 298 298 297 296 296 295 296 297 298 300 302 303 305 307 308 310 311 313 313 313 313 313 314 314 314 316 317 318 320 323 327 329 332 334 337 337 338 338 337 338 338
299 299 298 297 297 296 295 295 294 295 295 296 298 298 300 303 304 306 308 310 309 309 310 311 312 313 312 312 314 316 319 321 325 329 331 333 333 335 337 336 336 337 337
299 299 298 297 296 296 295 295 294 293 293 294 295 296 297 299 301 304 305 306 307 308 309 309 310 310 310 311 313 315 317 320 322 323 327 330 331 333 333 334 335 336 337

GFSGL_850_thetae_108.txt.gz
Theta_e
346 346 343 343 342 340 346 348 348 347 349 345 340 349 342 346 347 344 347 342 343 340 338 336 336 337 340 343 348 348 348 351 351 350 349 349 346 350 352 351 350 349 346
340 342 342 341 342 342 344 349 348 348 348 348 344 343 340 344 349 348 345 343 345 346 342 337 334 337 342 342 339 344 349 349 347 349 350 349 346 349 351 350 349 347 346
344 344 343 344 341 342 343 346 343 344 344 346 346 344 347 348 347 345 346 343 345 350 346 343 341 342 342 344 342 343 342 341 342 347 349 349 348 347 349 348 344 344 342
335 337 336 342 344 344 347 343 343 344 346 345 339 346 345 347 347 349 350 347 343 343 344 348 349 348 347 347 347 347 347 347 342 343 343 344 346 348 350 340 338 335 328
337 338 339 346 345 345 345 345 346 344 344 348 345 342 346 343 345 345 347 346 347 350 347 346 345 343 347 349 350 351 351 350 348 344 334 335 333 332 331 331 331 333 331
339 337 342 343 343 344 345 346 346 347 346 348 351 350 347 346 348 346 343 346 345 349 350 349 348 349 347 344 348 349 349 351 349 348 347 344 346 344 337 337 341 343 343
341 341 343 343 343 336 339 343 345 346 347 347 349 348 349 349 348 347 348 348 346 349 348 350 350 349 349 349 349 347 348 353 353 353 352 351 350 345 342 339 342 345 343
337 338 340 341 342 338 339 339 340 344 346 346 347 347 347 348 350 351 350 348 348 350 349 347 348 349 348 346 344 340 342 345 349 349 348 345 343 343 343 344 343 340 336
330 330 329 329 335 337 339 339 339 343 345 346 346 346 347 348 348 347 349 350 348 346 347 349 348 348 348 347 345 342 341 340 339 336 335 336 337 339 341 343 343 348 342
318 317 319 324 327 328 328 326 325 324 324 333 341 344 344 344 346 348 348 348 348 350 348 348 348 350 348 349 352 352 351 349 350 349 348 348 346 343 341 344 343 341 340
314 314 315 316 316 316 319 321 317 318 322 324 324 327 335 339 340 340 342 345 347 348 348 348 348 349 349 349 349 351 352 352 352 351 352 351 350 348 346 344 342 341 342
309 309 309 309 310 311 313 315 316 317 318 319 323 326 327 327 330 330 335 340 341 344 346 346 347 347 348 349 349 350 350 351 351 352 352 351 350 349 348 348 347 347 346
306 305 305 306 307 308 309 310 311 314 318 322 325 327 329 329 326 324 323 323 325 337 340 344 345 345 345 345 345 347 348 348 348 349 349 350 350 350 351 350 350 350 350
303 304 304 304 305 307 310 311 312 313 314 318 320 322 322 323 323 321 321 320 322 322 321 322 323 326 330 335 339 339 341 345 345 345 345 344 344 344 345 346 347 348 349
304 304 304 305 306 306 307 308 310 312 314 315 317 319 321 322 321 321 321 321 322 323 323 323 322 321 321 322 320 319 320 325 332 340 343 345 347 347 346 345 345 350 350
304 304 304 305 306 307 307 306 309 310 310 311 314 316 319 320 320 322 322 322 322 323 323 322 325 325 323 321 320 320 320 323 333 339 341 342 343 343 343 342 341 343 349
303 303 304 304 305 306 306 307 307 306 307 309 310 311 315 317 319 320 321 321 322 321 321 321 322 325 326 322 320 319 319 324 329 343 344 342 343 344 344 343 341 340 343
303 303 303 303 303 304 304 305 305 306 307 307 307 308 310 314 315 316 317 320 321 321 320 321 322 325 325 322 319 316 316 318 319 331 338 342 344 344 344 345 344 345 344
302 301 301 301 301 301 302 302 303 304 305 306 307 307 308 311 313 315 315 316 318 319 319 323 324 326 326 324 322 321 320 315 317 321 326 335 340 340 341 342 345 344 344
300 300 300 300 300 300 300 301 301 302 302 303 304 306 307 308 309 311 314 314 316 318 322 324 324 326 325 322 320 320 319 314 314 317 325 327 336 339 339 339 344 346 344
300 300 299 299 299 299 299 299 300 300 300 300 301 303 305 306 307 309 310 312 314 316 322 324 324 323 322 321 319 318 316 314 315 316 318 321 327 331 337 339 339 340 341
301 299 299 299 298 298 298 298 298 298 298 299 299 299 301 303 304 306 308 310 310 314 316 317 318 318 318 317 316 317 317 316 315 316 317 318 321 326 332 334 337 338 337
301 299 299 299 298 297 297 297 297 296 296 296 297 297 298 299 302 304 305 307 308 309 310 311 313 314 314 313 313 315 316 316 314 315 316 317 319 323 327 331 334 335 337
301 299 299 299 298 297 297 296 296 296 295 295 295 295 295 297 299 300 302 303 304 304 307 309 310 310 310 310 310 312 314 313 313 314 316 317 318 323 325 328 330 333 335
302 300 299 299 298 298 297 296 295 295 295 294 293 293 293 294 296 296 298 299 301 302 303 304 305 307 307 308 309 310 311 312 312 310 313 316 320 323 326 327 330 331 333
303 300 299 299 298 298 297 296 296 294 294 293 291 292 292 292 293 294 296 297 298 300 301 302 304 304 305 306 307 309 310 311 310 310 314 317 319 322 324 326 329 330 331

GFSGL_850_thetae_111.txt.gz
Theta_e
341 347 344 346 341 345 346 347 347 346 347 347 348 348 349 346 344 341 342 341 338 339 340 341 338 338 340 341 342 343 347 348 348 348 348 349 349 346 349 349 347 346 346
343 344 345 343 341 340 343 348 346 347 345 348 343 342 346 344 343 344 343 344 342 346 342 341 339 337 337 339 342 340 338 341 345 344 344 340 339 344 342 349 348 345 342
345 344 343 343 343 341 342 342 345 347 347 349 347 345 344 340 341 341 342 342 341 343 349 347 343 342 341 341 345 346 345 345 345 342 338 339 340 343 345 349 341 334 329
332 335 341 342 340 342 341 343 343 346 347 347 347 347 347 345 347 347 347 344 342 339 343 346 344 347 346 345 346 349 350 349 348 347 347 340 335 333 334 333 329 330 329
335 337 336 339 340 341 343 342 345 342 343 347 348 351 345 348 347 348 348 347 349 347 346 345 343 345 345 342 345 347 349 350 346 349 349 348 347 345 345 343 337 340 336
337 339 339 342 343 343 344 345 346 345 345 344 343 347 352 348 348 346 347 347 346 347 346 348 349 349 348 348 347 344 346 347 347 347 351 352 349 350 350 348 342 341 338
341 341 341 343 343 339 340 341 342 343 345 346 345 345 345 348 347 346 346 349 348 347 345 347 348 349 350 351 351 351 350 349 349 349 350 350 348 346 347 347 345 339 335
336 337 338 339 339 339 336 334 336 340 342 344 345 345 346 346 344 345 344 344 344 347 347 346 347 345 345 346 348 346 345 343 341 341 340 339 339 339 342 344 344 342 338
330 330 329 330 333 335 338 337 338 339 339 341 342 343 344 345 346 346 347 346 346 346 345 345 347 348 347 348 348 347 346 344 345 346 346 345 345 344 346 344 342 343 337
319 321 322 326 327 329 328 328 328 330 330 335 337 338 342 343 343 343 343 345 346 345 347 347 347 348 348 348 349 349 347 347 348 349 349 349 348 348 349 349 348 347 345
315 315 316 316 316 317 319 321 318 320 327 325 326 327 329 334 333 335 339 340 340 343 346 347 347 347 347 347 348 348 348 348 349 349 349 350 350 348 349 350 350 349 348
309 309 309 309 311 312 313 315 316 317 318 320 324 326 328 328 328 326 323 328 335 336 340 342 343 345 345 345 346 346 345 346 347 348 348 347 347 348 349 349 349 349 350
305 305 305 306 307 308 309 310 311 313 316 319 322 323 327 329 327 324 321 321 321 322 322 323 327 330 332 339 341 341 341 342 341 342 344 345 346 345 344 343 344 345 345
303 303 303 304 305 307 309 309 310 311 312 314 316 318 319 321 322 322 321 320 320 320 320 321 323 322 321 321 323 325 325 325 325 326 330 338 342 343 345 345 345 345 346
303 304 304 304 305 305 307 307 309 311 311 311 313 314 315 317 319 320 320 319 319 319 320 321 322 321 322 323 322 321 321 321 320 321 327 333 335 338 341 342 344 345 344
303 303 303 304 305 305 305 306 308 309 310 311 311 311 312 315 316 318 319 320 320 320 319 319 320 320 321 321 324 324 321 320 320 321 323 331 342 343 341 342 343 344 343
303 303 303 303 303 303 303 303 303 304 305 305 306 307 310 311 313 314 316 317 319 319 320 320 319 319 320 321 323 324 321 318 316 316 316 318 328 337 341 342 344 346 345
302 302 302 302 302 301 301 301 301 302 303 303 304 304 305 306 308 310 312 313 313 314 316 318 319 317 320 321 323 324 324 323 322 321 317 314 316 322 333 338 340 340 340
301 300 300 300 300 300 300 300 301 301 301 301 301 302 303 303 304 305 307 309 311 312 313 314 317 319 321 322 324 325 325 322 320 319 319 316 314 315 320 325 335 337 338
301 300 300 300 300 300 300 300 300 300 300 300 300 300 300 300 301 302 304 305 308 311 313 312 316 322 323 324 320 321 322 321 319 318 318 316 314 314 315 317 320 328 334
301 300 300 300 300 300 299 299 299 299 299 299 299 298 298 298 299 300 300 303 304 307 310 311 313 315 317 317 319 319 318 318 318 317 316 316 316 315 313 315 316 318 324
302 301 300 300 300 299 299 299 298 298 298 298 298 298 298 298 298 298 298 300 302 305 306 308 309 310 312 313 313 314 314 315 316 315 315 315 315 315 314 313 315 316 318
301 301 300 299 299 299 298 298 297 297 297 297 297 297 297 297 297 297 296 296 298 300 302 304 304 305 306 308 309 310 310 312 313 313 312 313 313 313 313 313 313 315 318
302 301 301 299 299 299 298 298 297 296 296 295 295 295 295 295 295 295 294 294 296 297 298 300 301 302 303 303 304 306 307 308 309 311 310 310 311 311 311 312 312 314 318
302 302 302 299 299 299 298 298 297 296 296 295 295 294 294 294 294 295 294 293 293 293 295 297 298 298 299 300 301 303 304 305 306 307 309 310 310 311 311 312 311 314 319
302 302 302 300 299 299 298 298 298 298 297 296 295 294 294 293 293 293 293 294 294 294 295 296 297 297 298 299 301 303 304 304 305 306 307 309 310 310 311 312 314 316 318

GFSGL_850_thetae_114.txt.gz
Theta_e
345 344 343 345 346 347 345 345 346 345 345 345 344 346 347 345 343 340 344 343 341 340 338 339 341 340 339 340 342 342 341 341 342 343 342 342 340 338 341 340 348 348 347
343 344 344 345 344 342 343 344 344 345 345 346 346 346 346 347 348 344 344 343 344 341 342 343 342 340 338 337 340 342 340 343 345 342 340 336 338 339 343 344 347 345 334
344 345 345 346 344 341 339 341 346 343 346 345 346 345 344 345 344 343 346 344 344 343 345 348 347 343 341 340 343 344 345 346 348 348 347 344 338 335 334 333 331 328 330
343 346 345 343 343 342 342 340 341 341 345 345 347 347 346 346 344 342 343 343 343 344 343 343 346 345 345 346 346 346 349 349 350 350 346 348 348 347 347 346 333 334 333
337 336 331 336 337 339 341 341 341 341 342 343 344 346 348 346 348 345 348 348 348 348 348 346 344 343 344 346 345 343 344 346 349 347 346 346 348 349 349 350 348 343 333
342 338 333 338 340 341 340 340 343 342 346 343 342 342 343 349 346 349 349 347 347 348 347 346 346 348 349 349 349 349 348 348 347 348 348 347 349 349 348 347 347 347 343
332 334 334 340 342 341 342 343 344 344 344 343 344 345 344 344 346 347 345 345 344 343 343 342 341 344 348 348 348 348 349 350 348 346 344 344 342 341 339 339 338 338 337
339 339 339 339 340 339 337 337 337 335 336 340 342 343 343 344 343 343 344 345 346 344 343 343 344 342 343 344 344 343 344 344 343 343 343 342 342 343 344 344 342 344 342
331 332 332 334 334 334 334 335 336 337 335 339 342 341 340 342 343 343 344 344 345 346 345 344 344 344 344 345 346 346 346 346 346 346 346 347 348 348 349 348 347 348 347
322 324 327 327 329 329 329 330 331 332 334 335 335 334 333 336 339 340 341 341 341 342 344 345 345 345 345 346 347 348 348 348 348 349 348 347 349 348 349 349 349 349 350
315 315 315 315 316 316 318 320 319 322 326 327 328 330 334 335 332 331 335 339 340 340 341 344 345 345 346 346 346 347 347 347 347 347 347 348 347 347 347 347 347 348 349
309 309 309 309 310 312 313 314 316 317 319 322 325 326 326 327 330 326 327 328 330 334 327 325 332 338 340 341 342 343 343 343 343 343 344 344 343 343 345 346 346 345 345
305 305 306 306 306 307 309 309 310 311 314 317 320 323 325 328 328 327 325 323 322 321 321 321 323 323 324 326 325 326 329 330 330 331 333 336 334 335 341 344 344 344 345
303 303 303 304 304 305 305 306 308 309 310 311 313 316 318 319 322 323 322 322 321 320 320 320 320 321 321 322 323 323 322 321 322 322 321 322 322 324 329 334 336 339 341
303 303 303 304 304 304 305 305 306 306 307 308 309 310 311 312 314 315 317 318 318 318 318 317 318 318 319 320 320 320 323 323 321 321 321 321 321 322 323 336 341 340 342
302 303 303 303 304 304 304 305 305 306 307 307 308 308 309 309 309 311 312 314 316 316 317 317 317 318 318 318 318 317 320 322 321 318 318 317 316 316 318 326 332 341 341
302 302 303 303 302 302 302 302 302 302 303 303 304 305 305 306 306 307 308 309 310 310 311 312 313 315 316 318 317 316 318 319 322 323 323 321 320 319 315 315 316 325 334
302 302 302 301 301 301 301 301 301 301 301 301 301 302 302 302 302 303 303 304 305 306 308 309 310 310 311 312 313 316 320 321 322 323 322 320 319 318 317 316 313 314 317
302 301 301 301 300 300 300 300 300 300 300 300 300 301 301 301 301 301 301 301 302 303 305 307 310 309 311 315 320 322 322 322 321 320 321 321 321 318 317 316 316 315 313
301 301 301 300 300 300 300 300 300 300 300 299 299 299 299 300 300 300 300 300 300 301 302 304 306 310 311 313 315 316 317 318 319 319 318 316 317 317 317 316 315 314 314
301 301 300 300 300 300 300 299 299 299 299 299 298 298 298 298 298 298 298 298 298 299 300 303 306 306 308 308 310 312 312 313 314 315 315 315 315 315 315 314 314 313 312
302 301 300 300 300 300 299 299 298 298 298 298 297 297 297 297 297 297 297 297 296 296 297 298 302 303 304 306 306 307 308 309 309 310 310 311 311 313 313 313 313 312 312
302 302 301 300 300 300 299 299 298 298 298 297 297 296 296 296 296 296 296 296 296 295 294 295 296 297 300 300 302 302 303 304 303 304 306 307 308 309 310 310 311 311 311
302 301 301 301 300 300 299 299 298 298 298 297 296 296 295 295 295 295 295 296 295 295 295 293 293 295 297 296 297 298 299 300 300 300 300 302 304 306 307 308 309 310 310
303 301 301 301 301 300 299 298 299 299 299 297 296 295 295 295 295 295 294 294 294 294 294 294 294 294 294 295 296 296 296 297 298 300 301 302 303 304 305 306 307 308 309
303 302 302 302 301 300 299 299 299 300 299 297 297 296 295 294 294 294 294 293 293 293 293 293 293 293 294 294 295 296 298 299 300 300 300 300 300 301 302 303 305 306 307

GFSGL_850_thetae_117.txt.gz
Theta_e
345 343 343 342 345 346 345 345 345 343 344 346 344 343 344 344 343 341 340 342 342 342 341 337 338 342 341 339 339 339 341 340 347 346 339 338 334 337 340 341 344 344 335
343 343 344 343 343 345 346 344 345 344 345 346 346 345 346 346 346 346 342 342 342 342 339 338 339 340 340 340 339 340 342 343 346 349 347 346 339 336 337 338 334 334 332
343 343 343 343 344 343 342 341 345 346 344 343 344 345 345 344 344 346 343 342 342 343 343 343 347 345 344 343 342 345 346 347 350 350 351 346 346 346 346 344 340 334 339
343 342 342 344 345 344 343 340 339 342 343 343 344 345 345 345 345 344 342 342 341 342 342 343 344 346 344 344 345 345 344 347 350 347 352 351 351 347 348 349 348 346 335
343 342 342 343 342 342 341 341 341 341 340 341 345 343 342 344 345 346 345 345 344 344 344 343 343 342 343 344 344 344 341 343 349 349 349 350 348 350 351 348 347 345 343
341 340 337 335 337 337 339 340 340 341 340 341 341 343 344 344 344 342 344 346 346 345 345 345 346 345 348 347 347 348 348 347 346 349 351 351 348 346 347 344 343 344 342
338 340 334 334 336 338 341 340 342 343 342 342 344 343 343 343 342 343 344 345 345 343 342 341 341 347 342 344 348 348 346 347 348 346 344 343 343 342 342 343 346 346 346
333 336 336 337 337 341 341 341 342 341 341 341 341 343 344 345 345 344 344 344 344 343 344 344 343 343 344 343 342 343 343 344 343 344 344 344 345 345 347 348 348 347 345
336 335 336 337 335 337 338 337 337 336 335 336 340 342 342 343 343 343 343 343 344 344 344 345 345 345 344 344 344 344 344 344 346 346 347 346 346 346 347 349 350 353 351
333 331 331 333 335 334 333 332 333 335 335 336 335 334 335 335 336 337 339 340 341 341 341 343 344 345 346 345 345 345 345 346 347 348 348 348 348 347 348 348 348 349 351
327 324 322 324 324 325 324 322 324 328 330 332 331 333 333 333 334 334 333 334 339 338 339 340 341 341 342 343 343 344 344 345 345 345 345 345 345 345 346 346 347 347 347
313 312 313 313 314 315 315 316 317 319 321 324 326 327 326 328 329 328 325 324 325 325 326 329 330 329 326 327 330 332 334 336 337 338 337 337 338 339 340 340 339 342 344
307 307 307 308 308 309 310 311 312 314 317 320 322 323 326 326 325 325 323 322 321 321 321 320 321 321 321 322 323 323 323 323 322 323 329 324 325 333 327 335 335 338 340
304 304 304 305 306 306 307 308 309 310 310 311 313 315 317 318 320 322 323 322 322 321 320 319 319 318 318 320 320 320 320 321 323 324 322 322 322 323 328 329 332 332 338
303 303 304 304 304 305 305 305 306 306 306 307 308 308 309 309 310 310 311 312 313 314 315 315 315 315 314 315 316 316 318 317 320 322 321 320 319 319 318 318 321 320 332
302 303 303 303 304 304 304 304 304 304 305 305 305 305 305 305 306 306 306 306 306 306 306 307 307 309 310 310 312 317 322 320 314 317 320 322 323 322 321 320 320 320 322
302 303 303 303 303 302 302 302 302 302 302 302 302 302 302 302 303 303 303 303 303 304 305 307 308 309 310 312 317 318 317 317 315 319 320 321 321 321 320 319 318 318 319
302 302 302 302 301 301 301 301 301 301 301 301 301 301 301 301 301 301 302 302 302 303 303 303 304 314 313 310 309 311 314 318 320 320 321 322 320 319 319 319 319 319 319
302 301 301 301 301 300 300 301 301 301 301 300 300 301 301 301 301 301 301 301 301 301 303 305 307 309 311 310 309 309 312 314 315 316 316 315 317 318 317 316 316 316 316
301 301 301 300 300 300 300 300 300 300 300 300 299 299 300 300 300 300 300 300 300 300 300 300 300 301 304 308 307 308 308 309 310 310 311 312 312 314 315 314 313 313 314
302 301 301 300 300 300 300 300 300 299 299 299 298 298 298 298 298 298 298 298 298 298 298 298 298 299 299 300 305 305 305 306 306 307 306 307 308 310 311 310 310 311 311
302 301 301 300 300 300 300 299 299 299 298 298 297 297 297 297 297 297 296 296 296 296 297 297 297 296 297 297 298 300 301 301 302 303 303 303 303 303 304 305 307 308 308
302 302 301 300 300 300 299 299 298 298 299 298 297 297 297 296 296 296 296 295 295 295 295 295 295 295 295 295 295 296 297 298 298 298 298 298 299 299 299 299 300 302 304
302 302 302 301 300 300 300 300 299 298 299 299 299 298 297 296 295 295 295 295 294 294 294 294 294 293 293 294 294 295 295 295 296 297 296 296 297 297 298 299 299 301 302
303 303 302 301 301 301 300 300 299 299 300 299 298 297 297 296 295 295 294 295 295 294 294 294 294 293 293 292 292 293 294 295 296 296 296 297 298 299 300 300 300 300 300
304 304 303 302 302 302 301 300 300 300 300 299 299 298 298 297 296 296 294 294 294 294 294 293 293 293 293 293 293 293 293 294 295 295 296 296 297 298 298 299 300 300 301

GFSGL_850_thetae_120.txt.gz
Theta_e
349 350 350 350 348 345 345 343 343 343 344 349 350 350 350 350 349 344 344 351 350 351 350 352 351 347 348 351 350 350 349 349 347 345 346 349 352 350 349 343 346 345 344
351 350 350 349 349 345 344 344 345 344 342 343 343 345 347 350 350 347 349 348 350 350 350 351 351 349 350 347 349 350 350 350 349 348 349 349 349 352 353 349 348 344 344
352 351 350 347 349 349 346 345 345 345 344 344 345 345 345 351 351 349 350 351 350 350 349 350 350 351 352 349 351 350 348 350 350 350 349 349 349 350 350 349 350 349 345
351 351 351 349 346 346 347 343 343 344 345 343 343 343 344 345 347 352 351 350 350 349 349 349 349 351 352 351 351 351 350 350 348 349 348 347 347 348 351 349 347 346 346
344 345 345 342 341 342 344 343 341 343 347 345 341 344 344 345 349 348 350 350 350 349 349 349 349 349 348 345 348 350 349 349 346 344 344 344 346 349 347 347 346 344 344
341 343 343 343 343 343 343 343 341 345 350 349 347 346 349 349 346 343 343 352 352 351 351 351 351 349 345 346 348 348 349 347 351 350 347 346 351 350 346 346 348 347 347
340 340 340 338 337 337 337 339 340 342 343 345 346 342 344 342 342 342 343 344 351 352 352 351 349 346 348 350 350 344 344 347 347 346 348 350 351 352 352 352 352 352 353
336 338 337 335 334 335 337 342 343 344 344 345 345 347 345 344 344 344 343 345 348 347 349 349 349 350 347 342 342 348 351 350 351 351 352 351 351 350 348 347 348 349 354
334 334 335 337 336 337 339 340 341 342 342 343 343 343 343 343 343 343 344 345 347 347 346 345 345 346 345 343 343 346 349 351 351 349 348 346 346 347 348 348 351 351 352
332 334 335 336 336 337 337 337 337 336 336 337 340 340 340 340 340 340 339 341 341 342 341 342 343 345 344 345 345 345 346 346 346 346 346 347 347 348 348 348 348 349 349
331 332 332 331 332 332 331 332 330 332 333 334 335 335 335 334 334 334 335 336 338 339 334 332 334 335 333 333 336 338 339 340 340 340 340 342 343 345 345 345 346 346 347
320 324 325 319 319 319 320 321 323 325 327 328 329 329 330 331 331 330 329 326 326 325 326 327 323 323 323 324 325 325 324 325 332 335 336 337 339 340 340 342 339 339 341
311 312 312 313 313 314 315 316 318 320 324 324 326 325 324 323 325 326 325 325 324 324 322 321 321 320 319 320 321 319 320 330 332 332 333 335 333 333 334 334 337 336 335
307 307 307 308 308 309 310 311 312 313 315 318 319 320 321 319 321 323 322 321 320 320 319 319 318 318 318 319 318 317 320 324 322 324 326 326 327 327 327 327 328 329 330
304 304 305 305 305 305 305 306 307 307 309 310 312 311 314 313 308 308 308 307 307 307 306 313 317 317 318 318 319 321 322 324 327 325 324 324 326 325 326 326 326 326 327
306 307 308 306 306 305 305 305 305 305 305 305 305 305 305 305 304 304 304 304 304 304 305 314 315 317 317 318 318 319 321 321 324 324 322 323 323 323 323 323 322 323 323
309 307 306 307 308 307 308 307 303 302 302 302 302 302 302 302 302 302 303 303 303 303 311 313 314 315 316 317 317 316 314 315 310 318 319 320 321 321 322 321 321 321 321
306 304 307 307 306 306 306 306 306 307 306 303 301 301 301 301 302 302 302 302 306 308 309 310 311 312 313 314 314 314 314 315 315 315 315 317 318 318 317 318 319 319 319
305 306 306 306 305 305 305 305 304 304 305 304 304 302 301 301 301 302 302 302 303 305 305 306 306 307 304 304 308 311 311 312 312 312 313 314 315 315 315 315 315 315 316
307 305 304 304 302 304 304 304 304 304 304 303 303 301 300 302 302 302 301 301 302 302 303 302 303 303 304 304 305 303 304 303 305 307 308 309 309 309 310 311 310 310 310
306 302 302 304 304 304 304 304 304 304 304 303 303 300 300 300 301 301 301 301 300 299 299 299 299 300 301 301 302 302 301 300 302 304 304 304 305 306 305 305 305 305 305
306 305 303 304 304 304 304 304 304 303 303 303 302 301 299 301 301 301 300 300 300 298 298 297 297 297 297 298 297 297 297 298 299 300 300 299 300 299 299 300 301 301 301
307 306 304 304 304 304 303 304 303 303 303 303 302 302 301 301 301 300 299 299 298 297 296 296 296 296 296 296 296 296 295 295 295 296 297 297 298 298 298 297 297 297 297
307 306 305 305 304 304 304 304 304 303 303 303 303 302 302 301 301 300 299 298 297 297 296 295 295 295 294 294 294 294 293 293 294 295 296 296 296 296 296 297 297 298 299
307 307 306 305 305 303 304 304 304 304 304 304 303 303 303 302 302 301 300 299 298 297 296 295 295 294 294 294 294 294 293 293 293 293 294 294 294 295 296 296 297 298 298
310 307 306 305 305 305 305 305 304 304 304 304 304 303 303 303 303 302 301 300 299 297 295 294 295 294 294 293 293 293 293 293 294 294 294 293 294 294 295 295 296 296 297

GFSGL_850_thetae_123.txt.gz
Theta_e
350 349 350 349 350 350 350 350 353 352 351 351 351 352 351 351 352 353 347 354 355 352 351 352 351 352 352 349 352 350 349 350 351 346 345 348 350 352 353 349 351 346 344
352 352 350 349 350 351 353 353 352 349 349 350 352 352 351 352 352 352 351 349 351 351 350 350 349 349 352 351 349 348 349 348 350 349 351 350 351 348 354 346 352 348 347
353 353 353 351 349 350 352 352 353 351 351 352 350 348 353 352 352 353 354 352 351 351 350 349 349 350 351 349 351 352 349 351 352 346 349 349 346 350 349 350 352 347 347
352 352 352 353 351 349 352 352 353 351 348 350 350 350 353 353 354 353 352 352 351 351 350 350 349 349 349 348 350 351 350 352 348 349 347 346 345 348 349 344 346 346 344
351 353 350 350 351 351 351 347 352 348 346 353 350 349 352 352 351 354 352 351 351 350 350 350 350 350 349 350 349 350 351 349 350 349 346 346 348 353 347 348 346 346 347
349 351 350 350 351 352 350 349 349 351 352 353 354 354 352 352 348 347 345 353 352 352 353 352 351 349 346 344 345 345 347 346 346 350 350 348 347 350 347 351 352 352 352
345 346 346 346 346 347 346 341 341 344 349 349 349 349 350 348 341 344 343 344 349 352 350 351 351 348 348 352 352 351 348 346 348 348 347 347 348 349 349 348 351 350 352
341 342 344 344 346 343 346 341 338 339 345 347 348 347 345 342 341 341 343 343 345 349 350 350 349 345 343 344 344 344 349 352 350 350 351 350 349 348 347 348 347 350 352
337 337 339 338 336 338 341 344 344 345 347 347 347 348 344 343 343 343 343 347 347 348 347 344 344 345 344 344 345 346 348 349 349 348 347 347 346 345 346 346 350 350 352
336 335 335 336 336 336 339 340 341 343 344 344 345 347 343 342 342 342 342 345 345 345 343 341 342 342 343 342 343 343 344 346 344 344 344 344 342 344 348 348 346 346 348
332 333 334 334 335 336 337 336 337 335 338 338 340 340 338 337 336 336 338 338 337 338 337 337 336 335 334 334 334 334 331 331 331 334 338 341 341 343 344 344 346 346 345
332 332 330 330 331 331 331 331 333 333 334 333 334 333 334 335 335 334 332 330 329 330 330 328 325 322 322 321 321 321 320 320 331 336 336 337 339 339 337 338 337 333 337
321 323 319 317 320 322 323 322 325 328 327 328 328 328 327 325 324 325 325 325 324 324 324 323 322 320 319 320 317 316 315 320 329 331 328 329 330 329 328 329 328 329 330
311 311 312 313 313 314 316 317 319 323 324 324 325 325 325 321 319 322 322 321 320 318 315 314 312 315 319 319 321 323 325 325 327 326 326 324 323 326 327 327 328 328 327
307 308 309 308 309 310 310 311 312 312 313 317 316 318 318 316 308 306 306 306 305 305 305 310 318 319 319 320 321 321 321 322 323 326 327 325 324 325 325 325 325 324 324
306 312 313 313 312 311 307 305 306 306 307 307 307 306 306 305 304 303 303 303 303 303 309 316 317 318 319 319 320 321 321 322 323 324 322 323 323 323 323 323 323 324 323
312 311 310 312 312 312 311 308 304 304 303 303 303 303 303 302 302 302 303 303 304 306 312 313 313 314 315 316 317 317 317 317 316 317 318 318 318 319 320 321 320 320 321
312 310 311 310 311 311 311 311 310 309 308 302 301 302 302 302 302 302 302 305 308 309 309 309 310 310 310 311 312 313 315 316 315 315 315 315 316 317 317 317 317 316 317
305 308 310 309 309 309 309 309 308 308 308 308 306 303 302 302 302 303 302 304 307 307 307 307 307 307 307 307 307 308 306 307 307 308 309 310 310 311 312 311 312 312 312
310 308 308 307 305 307 308 308 308 308 308 307 307 304 302 306 306 305 304 302 304 304 303 303 303 303 303 304 305 305 306 305 304 303 304 305 305 306 307 306 307 307 306
310 307 306 308 307 307 307 307 307 307 307 307 307 303 300 304 305 305 305 304 304 303 302 301 300 300 300 300 301 301 301 301 302 302 301 301 301 301 300 301 302 303 303
309 307 304 307 307 307 307 307 307 307 307 306 306 305 302 303 304 304 304 303 303 302 301 300 300 299 298 298 297 298 298 297 297 297 297 297 297 298 298 298 299 299 298
309 309 307 307 308 307 306 307 306 306 306 306 306 305 304 304 304 304 303 303 302 301 301 300 299 298 297 296 296 296 295 295 294 294 294 294 294 294 295 295 295 296 297
310 310 309 308 308 308 307 306 307 306 306 306 306 306 305 305 304 304 303 303 302 301 300 300 299 297 295 296 295 295 295 295 295 295 294 294 294 294 293 294 294 295 296
311 310 309 309 308 307 308 307 308 308 307 305 305 306 306 305 305 305 304 304 303 302 301 300 299 297 295 295 295 294 294 294 294 294 294 294 294 294 294 294 294 294 295
311 309 309 309 308 309 308 308 308 307 307 307 306 306 306 306 306 305 305 305 304 303 302 300 299 297 294 295 295 294 294 294 294 294 294 293 293 293 293 293 293 294 296